GFSSE_925_rhum_000.txt.gz
RH
66 66 83 95 95 94 88 85 81 79 73 67 64 71 77 81 79 76 78 79 83 76 76 77 77 78 81 73 77 90 90 88 79 63 66 71 83 84 82 88 82 91 84
64 66 78 96 97 91 84 83 79 76 72 67 73 74 82 81 82 78 80 82 86 80 75 78 79 81 78 83 85 89 89 87 54 61 69 76 76 82 88 84 79 80 94
65 77 83 93 97 90 84 79 81 76 78 71 71 76 86 80 78 77 75 75 79 83 78 80 83 74 74 79 80 79 89 66 45 52 56 77 79 85 80 79 80 85 89
61 70 83 86 91 90 84 81 80 75 75 71 74 81 86 82 77 81 82 77 73 75 78 79 85 75 74 73 77 86 86 56 56 57 58 73 79 78 82 77 80 84 83
60 62 76 68 82 91 82 79 78 72 78 72 78 73 79 78 76 78 78 73 74 76 76 79 84 78 78 77 77 91 64 50 60 62 65 70 74 79 72 76 74 76 80
54 63 69 64 76 83 74 83 79 75 76 72 73 75 72 78 73 76 72 73 75 79 82 79 82 84 82 87 84 85 48 59 61 62 64 70 68 74 75 75 75 72 73
51 67 70 71 77 77 79 85 79 76 76 70 78 86 83 76 72 78 77 74 84 85 87 85 85 86 89 86 89 89 50 58 60 58 62 69 67 74 72 71 74 75 72
49 65 76 85 85 82 84 84 79 74 74 71 83 84 80 72 80 80 78 75 87 92 87 83 82 87 89 88 86 86 47 55 55 55 61 68 69 72 72 71 73 75 75
49 55 71 80 81 78 82 79 79 76 75 71 81 83 78 76 76 80 73 81 96 90 81 68 69 76 88 88 87 83 48 48 56 54 57 56 53 70 73 68 68 72 72
48 51 60 70 78 78 68 80 76 72 77 72 80 81 79 75 81 79 70 77 88 82 72 57 54 68 81 88 87 63 45 35 56 57 55 62 52 68 68 62 53 54 59
48 48 48 57 66 69 65 77 76 71 80 74 76 78 76 73 75 79 78 84 82 74 64 52 58 72 71 66 56 45 39 26 46 53 54 56 48 66 64 54 34 37 46
49 48 48 49 55 56 53 66 67 68 78 75 78 78 74 70 70 76 79 79 81 74 64 53 51 53 49 45 45 39 31 33 38 44 52 55 51 66 69 65 43 37 48
49 51 51 51 53 55 47 55 66 69 72 74 73 68 72 65 65 66 72 78 76 68 64 63 43 36 35 44 46 51 42 36 37 33 47 52 54 51 75 74 73 66 65
46 50 51 52 54 56 53 46 57 60 65 64 65 62 63 63 60 66 70 70 72 70 71 73 60 57 48 45 43 37 41 40 35 29 30 42 46 45 60 77 75 74 66
37 43 47 51 54 58 53 49 48 53 56 58 58 58 58 61 61 60 62 63 64 62 65 61 60 53 51 51 42 37 33 30 30 30 26 26 33 35 36 62 67 71 70
29 34 40 48 52 57 60 56 51 48 52 54 55 58 58 60 62 60 56 58 59 60 60 58 56 53 50 52 52 42 36 32 30 29 31 31 29 29 28 28 53 58 60
30 30 34 40 51 54 59 61 59 53 52 54 54 56 59 61 62 63 58 55 58 60 63 62 60 57 53 52 53 53 42 37 35 32 30 30 32 33 33 32 42 49 53
30 30 31 33 42 53 55 59 60 61 58 57 57 57 58 62 63 64 65 58 57 61 63 64 64 62 60 56 55 55 50 42 38 36 34 32 31 32 32 33 32 38 51
25 30 31 31 34 42 53 57 60 62 63 61 62 62 60 60 64 66 67 67 61 61 64 65 65 64 64 63 60 57 54 53 50 43 38 37 35 34 33 33 32 32 32
19 22 27 32 34 34 42 55 61 63 63 64 65 66 65 64 64 66 68 70 70 63 63 66 66 65 64 63 62 62 59 55 52 51 51 50 46 43 39 38 37 38 37
18 19 22 25 30 35 40 50 61 67 68 68 69 68 70 69 66 66 69 72 74 72 65 66 69 68 66 64 65 64 62 58 56 53 52 51 51 52 52 49 47 44 44
31 29 24 23 26 31 39 48 55 64 66 66 66 67 69 71 72 70 69 74 76 78 76 69 69 73 73 72 72 74 84 72 65 62 61 61 60 58 58 57 54 45 44
41 38 34 31 28 30 34 43 50 55 58 59 61 67 71 73 74 75 74 75 79 80 80 79 73 71 76 74 71 73 89 85 79 55 58 62 62 60 59 59 56 52 49
39 36 36 33 31 32 34 40 46 51 59 60 62 60 61 64 69 74 76 77 77 80 83 81 80 76 75 76 76 70 69 65 84 80 55 50 53 53 50 48 47 46 44
38 32 30 32 34 35 33 34 38 45 52 54 56 57 55 53 58 69 75 78 80 83 82 84 83 78 77 78 78 74 79 76 75 78 81 69 57 54 53 49 48 53 54
37 34 34 33 33 33 36 43 46 45 44 45 48 51 52 52 51 54 64 76 80 84 86 85 86 85 84 81 78 78 78 78 80 80 83 80 74 64 62 59 58 56 54

GFSSE_925_rhum_003.txt.gz
RH
75 64 72 95 95 98 96 91 86 80 76 68 75 74 79 79 80 79 83 85 75 80 79 78 80 78 83 77 79 93 92 85 75 72 74 84 86 84 90 85 86 88 91
67 62 69 93 96 96 92 88 83 79 74 67 72 72 83 83 83 81 80 84 86 79 80 79 79 78 78 82 79 91 91 64 57 69 79 82 85 85 85 81 81 86 94
67 62 69 88 97 92 90 87 80 74 77 70 75 77 83 86 82 79 80 80 86 82 82 83 77 77 77 88 87 77 81 46 52 57 68 84 80 82 82 86 92 92 94
64 61 75 88 95 92 87 86 83 81 77 76 78 85 82 86 81 85 82 79 76 81 82 87 80 74 72 74 75 85 57 49 55 65 77 81 74 82 78 81 86 86 90
66 57 68 86 92 94 88 86 83 77 82 75 73 70 77 82 81 81 80 75 82 81 80 84 85 76 77 73 77 80 47 58 63 65 76 76 72 72 76 76 77 79 81
66 66 65 68 87 89 84 85 84 77 77 73 71 73 67 72 77 80 75 73 79 82 83 81 83 84 77 83 80 81 48 63 66 71 71 71 56 75 76 76 75 75 73
64 63 73 67 75 82 83 82 84 81 80 76 75 76 77 73 73 81 72 74 83 78 80 79 79 85 88 86 86 87 47 62 63 67 72 68 64 74 72 75 76 73 72
61 65 70 73 86 82 77 85 82 80 76 70 79 88 78 78 73 78 72 78 80 94 93 87 84 87 92 89 89 90 46 60 60 67 71 69 66 74 72 73 75 77 75
60 67 69 72 85 79 79 83 77 75 72 72 82 87 82 76 73 78 72 75 90 97 89 83 76 79 90 89 89 90 44 54 57 58 70 62 58 72 73 69 73 75 77
60 61 63 66 75 78 81 84 72 74 76 72 75 78 78 76 76 74 72 74 88 90 83 75 59 67 75 88 92 74 48 38 57 56 58 61 49 68 71 62 65 66 69
50 55 60 63 65 68 68 72 73 71 76 74 72 79 75 75 74 69 78 76 80 82 76 68 54 64 78 85 83 63 43 29 52 57 59 63 62 67 66 66 57 60 63
51 50 57 63 64 65 69 64 70 70 72 78 75 77 78 74 70 75 81 80 80 82 81 70 61 62 54 56 57 44 39 27 42 51 57 61 62 66 65 65 62 55 60
52 51 50 57 60 63 70 68 74 66 63 77 78 75 71 72 72 77 84 84 81 82 82 69 66 54 41 41 42 47 50 33 30 42 46 56 57 68 66 71 73 70 66
53 53 52 53 56 60 61 56 65 66 66 72 69 74 77 71 69 76 74 72 75 74 68 73 72 68 39 33 47 49 47 49 33 37 34 42 53 64 69 69 75 78 76
49 51 55 56 57 59 60 56 55 64 64 70 67 70 73 68 68 68 66 68 68 72 68 68 69 69 58 55 46 46 44 39 41 38 33 29 34 45 64 68 68 72 75
39 44 46 55 58 60 62 60 55 53 60 64 65 65 67 65 66 66 65 63 64 68 66 60 66 65 62 56 54 51 41 36 33 31 31 30 27 26 30 58 62 64 66
36 34 39 44 54 60 63 62 59 55 52 58 58 58 61 62 62 64 65 64 60 60 63 62 60 62 60 54 51 53 54 48 40 35 30 28 30 31 31 33 49 56 57
34 32 34 39 44 52 59 65 64 62 57 52 53 54 55 59 61 64 64 64 62 58 60 62 63 64 63 60 57 53 53 54 53 43 38 37 34 30 30 31 32 36 46
32 32 33 35 37 40 47 56 65 65 65 60 57 56 56 56 58 63 65 64 66 62 60 62 64 66 67 66 62 60 56 55 55 53 47 42 39 37 35 34 32 32 32
24 28 36 34 36 36 40 53 58 64 65 66 65 62 61 61 61 62 67 69 70 70 64 63 66 68 68 69 67 69 65 62 60 56 53 53 51 44 39 39 37 36 35
29 26 27 30 40 38 45 56 61 63 65 66 67 68 67 68 69 67 66 69 73 73 71 70 65 70 72 70 70 73 68 65 64 62 60 57 53 52 51 51 47 44 42
38 34 32 31 30 40 45 45 50 57 63 64 66 68 69 73 74 75 74 71 72 78 79 76 73 75 77 76 74 82 81 73 69 68 69 65 61 57 56 52 51 52 52
34 35 36 34 32 36 44 49 52 58 63 63 66 68 70 70 72 75 76 78 77 79 82 84 82 79 78 79 78 74 93 92 88 61 66 68 68 67 66 63 61 58 57
36 32 32 35 38 38 38 40 50 57 61 58 59 60 61 63 65 66 71 77 79 80 82 86 87 86 82 80 84 84 75 71 87 89 64 58 59 60 63 61 62 62 60
37 36 34 34 34 34 39 43 46 50 52 53 53 54 55 56 57 58 65 73 76 80 82 85 88 90 93 86 82 80 87 82 79 81 82 68 68 67 60 55 57 59 51
39 39 38 37 38 36 35 35 36 36 36 38 41 42 43 46 52 56 62 70 70 71 78 81 85 85 87 93 91 84 84 86 80 87 88 80 75 68 72 68 59 54 54

GFSSE_925_rhum_006.txt.gz
RH
75 74 81 95 96 96 98 94 91 84 79 73 76 76 77 80 79 78 77 74 74 80 82 77 75 81 75 88 82 94 89 78 82 76 76 88 83 90 87 80 85 88 89
63 72 77 94 96 99 96 94 88 82 75 68 69 71 81 83 81 83 86 83 84 78 77 78 72 74 72 79 76 91 90 80 81 77 81 85 84 78 85 83 86 92 96
65 71 75 91 94 90 93 90 87 81 76 70 77 75 89 86 83 80 80 76 75 75 78 81 73 72 76 87 82 75 58 64 70 69 78 91 84 85 85 92 93 97 95
63 67 70 84 97 94 94 90 86 80 79 74 74 86 86 84 84 85 78 80 78 79 86 85 74 73 77 73 72 78 51 55 69 81 71 81 79 82 82 86 88 92 92
65 65 64 86 95 95 90 91 85 83 79 78 75 74 81 80 76 84 82 77 83 84 84 90 78 75 75 72 74 78 52 57 65 78 82 79 78 75 77 77 84 85 86
66 59 67 87 93 92 92 89 84 77 82 76 82 74 78 73 70 80 76 78 82 82 84 83 83 80 78 75 77 83 47 64 68 74 80 74 58 74 74 76 76 76 73
67 62 64 77 82 92 90 91 86 80 81 77 73 76 69 86 72 79 80 78 83 85 88 83 84 83 79 86 86 82 51 64 66 74 76 71 66 77 76 77 76 74 71
66 69 67 70 75 85 88 88 84 82 84 78 78 76 75 80 78 75 79 82 86 93 93 89 83 84 90 90 86 91 50 61 64 66 76 72 61 73 72 74 77 75 74
63 69 77 78 83 88 81 86 79 79 77 76 72 86 84 82 76 89 80 79 91 95 95 90 84 82 86 89 88 90 63 55 61 63 75 71 66 71 72 72 74 77 75
63 66 73 74 81 86 79 84 77 70 68 76 74 82 81 77 75 76 78 73 83 91 92 87 82 76 76 88 91 91 73 42 56 59 72 70 66 68 72 70 69 72 74
70 69 71 71 75 81 81 78 79 67 66 77 74 78 75 75 74 71 72 75 73 76 83 79 79 71 64 68 83 91 74 44 44 57 59 60 64 68 69 72 66 64 67
74 75 69 66 67 72 71 70 76 72 67 75 75 74 75 77 73 72 68 80 77 70 74 77 79 66 58 64 69 74 72 50 35 45 58 56 68 75 72 70 70 63 61
54 61 69 66 64 66 68 64 62 64 64 72 80 76 75 75 74 70 74 81 82 81 80 80 78 69 62 50 46 54 54 44 37 30 52 55 59 79 74 67 70 69 63
55 53 53 61 64 66 65 63 64 68 70 67 67 76 74 71 70 67 74 75 82 81 80 75 70 67 67 55 39 42 42 46 49 33 32 47 52 80 73 71 70 74 73
53 53 53 53 56 62 64 64 62 65 72 65 58 67 68 69 71 68 67 72 75 71 70 69 68 69 70 69 48 36 43 47 44 50 29 37 38 50 68 72 72 72 76
48 47 50 54 54 57 62 63 62 57 59 62 61 66 66 67 71 69 69 68 69 66 64 66 69 65 65 67 62 57 51 46 44 41 41 42 38 32 34 59 65 69 70
44 41 42 48 54 56 58 61 62 59 55 57 56 59 64 65 67 69 67 67 66 67 65 67 72 70 68 69 68 62 55 53 53 46 39 35 33 33 32 49 54 58 64
40 41 38 39 47 52 57 60 62 62 58 55 52 53 58 62 64 67 67 68 67 68 66 65 65 67 65 64 65 64 60 54 52 54 54 48 40 34 31 30 31 39 50
27 34 39 37 41 43 51 54 59 63 62 60 59 55 54 57 58 61 64 63 65 67 68 69 64 66 70 70 68 68 66 63 60 56 55 56 55 48 41 39 36 33 32
31 33 37 41 43 48 50 57 61 65 66 65 65 64 61 59 59 59 60 61 63 67 70 71 71 69 69 74 79 77 74 72 67 66 64 61 59 56 54 50 48 44 40
36 32 31 32 39 45 57 62 66 65 66 66 65 66 66 66 66 66 66 67 67 68 70 74 75 77 76 80 84 80 79 74 74 74 74 72 68 66 62 59 56 53 51
40 39 37 36 38 42 51 58 64 65 68 64 63 66 68 70 72 74 75 76 76 76 78 80 82 82 83 82 82 82 87 72 72 71 71 75 73 72 70 67 63 60 56
39 38 38 42 42 41 51 56 60 65 70 68 67 69 68 71 71 72 74 77 80 82 82 84 86 90 85 82 83 85 97 93 90 66 62 65 68 69 69 69 68 65 63
41 37 36 35 36 38 42 45 50 56 58 59 60 62 60 61 62 65 71 77 82 85 87 84 86 90 92 91 86 91 86 81 90 83 64 67 62 61 62 64 66 64 66
42 40 38 37 37 37 36 36 37 38 40 39 39 39 39 39 40 42 42 47 75 89 92 92 91 93 95 97 93 90 94 94 90 92 94 76 66 68 67 66 67 69 71
41 40 39 39 39 40 41 42 43 44 44 44 44 45 46 46 45 45 44 44 44 51 72 88 93 99 98 96 96 96 93 94 88 91 95 87 84 74 71 72 70 68 70

GFSSE_925_rhum_009.txt.gz
RH
76 66 88 98 97 97 100 97 94 87 85 76 74 76 71 72 76 71 73 70 71 80 81 77 82 81 80 80 89 91 86 79 86 78 82 87 85 88 82 77 84 85 87
57 73 81 96 96 97 98 97 93 86 78 74 71 70 73 75 78 79 78 78 72 76 73 71 70 68 68 75 77 81 90 81 86 79 74 83 85 83 84 82 86 93 94
59 75 76 86 95 95 98 97 91 86 78 71 72 67 81 70 80 84 80 76 73 74 74 78 73 74 71 78 88 80 74 84 83 73 83 87 87 86 88 92 88 97 96
62 70 71 80 92 98 82 94 91 84 79 73 73 80 90 78 78 74 74 78 75 77 81 86 74 72 74 79 79 75 64 75 72 76 69 86 82 84 85 90 93 95 95
66 67 67 79 91 98 95 94 90 84 82 77 75 80 90 88 75 84 82 79 81 81 86 89 79 76 75 74 72 76 64 69 71 80 74 81 82 76 78 82 85 89 89
64 65 66 79 95 98 97 95 89 84 81 78 78 64 91 89 75 80 81 80 85 84 84 85 82 81 81 78 76 79 76 66 70 73 83 82 76 72 78 79 79 78 78
66 66 65 85 93 98 95 94 88 79 81 78 70 75 70 82 75 76 80 80 84 84 87 83 84 89 84 79 84 86 86 68 69 70 76 79 59 75 76 77 78 77 72
64 66 69 88 89 94 96 94 89 83 82 77 76 74 72 73 84 79 86 85 84 89 90 89 84 82 88 89 88 88 92 72 66 67 78 75 71 75 75 77 77 75 74
68 68 72 84 90 90 90 88 90 87 81 82 79 80 76 76 86 86 88 88 89 91 96 96 92 86 84 86 88 88 92 70 62 64 70 76 72 75 71 74 76 78 75
71 71 72 76 82 91 89 86 86 80 74 79 76 75 79 75 80 77 87 78 85 90 96 97 95 91 83 83 88 91 88 79 58 61 62 76 72 81 70 74 74 74 76
76 73 72 77 80 86 88 84 87 82 71 68 77 74 77 74 68 69 70 72 73 79 94 96 97 93 82 72 73 88 90 82 58 51 58 65 71 82 72 71 75 71 73
76 77 78 78 79 82 88 84 84 83 73 63 74 75 76 78 76 71 69 67 71 76 83 92 96 95 87 72 59 62 75 87 72 48 48 57 61 79 77 70 74 72 68
60 70 78 76 75 77 82 80 81 80 73 66 66 74 74 75 74 75 72 69 67 78 81 81 83 85 85 76 64 55 57 68 67 56 41 37 57 73 78 77 76 76 73
58 58 68 72 72 72 73 73 66 65 64 65 62 73 79 76 74 74 72 66 71 75 81 83 84 84 83 78 70 64 49 45 52 47 38 34 37 61 71 78 77 76 75
54 54 56 59 64 67 70 71 66 67 64 63 64 63 64 73 75 71 72 73 72 75 77 83 82 78 75 68 69 69 65 41 38 40 44 45 40 37 60 72 77 76 75
52 49 51 54 55 56 62 68 67 65 63 61 59 59 59 63 69 68 71 73 73 73 71 76 77 75 72 74 70 69 69 63 54 42 44 44 43 42 34 58 68 71 71
45 43 46 49 54 55 54 58 64 64 62 60 55 54 58 61 67 68 68 70 71 72 72 71 71 71 71 71 73 69 66 66 65 60 56 52 49 43 40 42 59 61 64
31 44 46 47 47 52 55 55 57 60 62 61 59 56 55 56 60 65 66 64 64 68 69 71 70 70 70 69 68 68 66 64 63 63 61 55 53 52 52 44 37 39 52
36 33 29 42 47 47 55 59 60 60 62 62 61 59 58 58 58 60 61 59 60 64 68 70 71 74 76 76 75 71 71 69 67 67 66 65 63 60 56 54 54 53 44
38 36 37 42 45 46 55 61 64 66 65 64 64 63 62 62 62 61 60 60 62 64 66 70 73 76 77 79 80 80 80 79 78 75 73 73 73 70 67 64 61 57 56
42 41 42 43 44 47 56 66 70 67 66 66 69 70 70 70 70 69 69 70 70 70 72 77 81 84 85 85 92 86 84 84 82 82 80 79 78 76 76 73 70 66 63
40 40 42 44 47 53 58 66 69 71 71 73 74 75 77 78 79 82 84 84 85 85 85 85 88 91 91 88 87 88 93 75 71 69 73 76 70 71 75 73 73 72 69
44 42 39 38 41 45 59 66 70 70 67 58 58 57 57 59 63 66 69 77 85 95 95 93 92 95 95 91 89 90 99 95 88 66 66 68 69 67 61 62 64 63 62
45 41 41 41 40 40 39 40 42 47 51 51 48 46 44 46 46 46 46 47 49 68 95 99 99 100 100 98 95 92 91 86 93 90 70 72 71 71 68 68 64 63 63
44 43 43 43 44 44 43 44 45 48 50 51 50 49 48 46 44 39 36 35 36 38 42 49 70 98 95 97 98 95 96 98 97 97 94 78 74 75 75 75 73 72 71
45 45 44 44 48 48 49 52 54 55 56 56 57 56 53 46 42 39 36 35 36 40 45 46 45 48 60 83 93 93 92 90 88 93 96 90 87 82 77 77 78 76 74

GFSSE_925_rhum_015.txt.gz
RH
66 60 79 95 91 76 92 96 98 92 84 83 81 76 71 68 71 68 68 68 70 74 79 83 75 89 81 78 80 83 79 84 77 66 63 72 82 78 72 71 71 74 84
57 56 84 96 88 81 89 92 96 93 84 81 75 72 71 71 74 72 70 78 71 71 71 75 72 80 76 72 71 72 72 84 83 72 70 67 78 79 77 68 75 78 90
56 56 82 91 88 92 91 86 86 90 84 79 75 69 72 73 72 69 76 71 75 69 71 74 77 67 67 68 75 80 71 80 83 75 73 78 85 79 81 69 78 76 94
56 60 64 87 88 86 78 70 76 87 84 77 76 72 76 83 70 69 72 73 73 73 75 80 79 70 74 69 87 86 75 76 79 66 75 78 85 81 77 80 76 83 95
60 64 65 83 86 79 81 73 80 88 90 80 76 80 83 79 78 72 70 74 75 80 78 81 85 76 80 74 83 87 80 79 79 64 70 77 84 78 81 79 83 91 93
62 65 67 71 82 78 86 80 83 88 87 84 78 81 88 84 75 70 77 74 77 78 87 86 86 87 84 83 84 82 80 86 82 67 68 77 85 78 86 77 79 88 90
61 66 63 65 75 90 83 85 85 89 88 80 81 77 82 86 69 71 77 75 81 87 86 86 85 82 87 88 85 84 86 80 87 78 67 75 82 81 90 75 79 80 80
58 62 62 62 79 84 87 90 89 91 88 83 80 76 77 83 75 83 78 83 88 86 87 86 88 88 85 84 84 82 86 82 85 91 71 69 73 82 83 77 77 79 79
66 64 63 63 86 87 89 88 90 94 88 85 79 82 79 73 72 81 85 89 93 91 82 81 83 83 90 90 88 87 85 85 84 93 87 72 68 78 90 85 77 79 80
72 70 67 66 81 91 96 88 88 87 86 82 78 77 77 74 74 74 79 83 90 94 91 82 78 79 83 82 89 91 86 83 83 88 92 84 65 66 92 88 83 74 77
79 77 73 71 78 85 91 90 90 86 84 84 81 76 80 82 79 74 68 68 72 76 88 94 86 92 82 81 82 87 85 77 78 81 88 79 68 75 80 85 84 81 76
75 74 74 75 76 81 89 89 92 93 95 93 87 76 79 80 77 76 76 75 76 71 71 69 75 82 83 92 93 85 87 82 79 77 76 52 65 89 78 80 84 83 81
55 64 65 69 73 78 84 84 89 92 90 90 88 81 69 73 77 76 74 72 73 72 71 67 67 72 76 85 87 87 76 74 68 62 58 47 41 78 84 75 78 81 80
53 50 53 62 69 74 81 83 79 85 83 82 77 78 74 67 68 72 74 73 73 68 67 67 66 66 69 71 77 81 81 76 70 67 60 52 51 36 65 77 74 71 76
54 50 51 54 60 70 79 76 76 77 75 72 69 69 69 67 67 66 67 64 65 67 67 68 71 74 75 77 76 79 77 76 74 72 68 62 58 57 51 61 66 68 65
54 53 52 53 55 60 70 69 71 71 67 69 68 66 68 68 69 70 67 63 62 66 70 73 76 80 86 90 88 88 78 78 73 73 74 69 64 62 61 64 70 64 67
36 36 33 32 51 56 59 62 68 67 68 68 66 69 71 72 72 72 70 67 67 68 72 75 75 77 78 83 88 85 84 84 83 79 77 75 73 70 66 64 74 79 72
40 41 37 32 37 55 57 58 64 66 69 70 73 76 76 76 75 75 73 70 68 70 73 75 80 85 88 85 84 84 86 86 80 76 75 72 70 69 69 68 68 68 78
45 46 45 45 44 58 62 64 69 72 73 73 74 74 74 73 74 74 74 75 77 81 84 88 91 95 92 91 92 91 89 89 86 83 82 79 72 68 71 69 65 66 69
48 50 54 46 52 57 63 66 70 73 80 84 85 86 86 88 90 91 91 92 92 91 94 97 99 97 96 93 92 91 93 90 87 86 85 83 81 78 76 76 72 76 71
43 45 56 60 64 65 68 72 81 93 85 68 64 61 60 60 60 56 56 56 55 77 86 91 94 93 92 94 100 95 85 82 82 81 80 82 82 74 81 82 80 76 75
45 43 43 49 64 73 76 84 85 67 60 54 52 48 45 42 40 38 37 37 38 48 56 64 73 78 80 80 91 91 87 69 63 79 79 80 81 80 82 82 82 81 81
52 48 45 43 42 46 64 50 47 49 52 54 51 48 46 42 39 37 36 36 36 39 55 62 68 71 68 62 66 78 79 78 79 63 67 69 76 81 83 84 85 84 84
58 52 49 47 47 47 45 47 52 64 66 66 54 48 44 42 40 38 36 36 39 48 58 63 62 68 67 65 65 56 71 75 70 71 43 56 57 63 71 69 77 80 81
56 56 54 52 53 52 51 51 52 57 56 50 46 43 41 39 36 32 28 28 32 46 53 56 59 64 68 73 72 72 72 70 67 72 80 58 65 60 62 65 67 70 76
61 58 56 55 59 55 51 51 50 50 50 49 46 47 49 47 46 25 18 26 41 47 53 54 60 65 69 70 74 76 78 79 79 79 80 72 68 63 59 61 64 65 69

GFSSE_925_rhum_018.txt.gz
RH
60 62 82 95 90 88 83 96 96 90 87 82 78 75 72 75 73 72 70 68 70 74 76 81 80 83 87 80 76 82 73 85 77 63 58 56 81 89 84 72 75 64 62
53 60 71 89 94 91 90 88 91 88 81 81 78 76 72 65 63 67 68 74 78 69 70 76 77 81 80 74 74 68 73 79 82 70 64 59 60 79 85 67 75 70 70
56 59 84 93 82 82 92 87 78 81 83 81 76 68 73 77 78 75 77 76 77 72 74 78 83 74 72 67 74 81 80 71 75 76 59 64 60 74 86 76 79 78 78
56 58 74 90 85 78 85 76 64 76 84 80 75 72 75 83 77 74 70 71 76 76 74 78 82 80 73 70 79 90 86 73 78 72 60 55 58 69 82 76 76 83 85
58 60 68 84 89 76 80 70 71 80 89 83 77 78 82 89 77 74 74 75 67 72 80 76 67 80 78 82 81 87 90 74 77 76 58 62 70 64 77 84 75 81 84
56 60 78 85 80 73 75 76 76 81 88 85 81 77 83 88 78 76 70 71 68 73 84 85 84 82 84 87 86 85 85 86 86 69 60 59 79 72 82 84 78 78 88
57 61 73 75 80 82 84 80 82 79 84 86 79 75 78 87 86 81 78 72 78 85 88 86 86 86 82 86 86 85 84 83 73 75 65 58 67 81 91 86 79 79 80
60 67 66 72 75 86 88 84 84 81 83 86 80 70 77 86 89 82 83 80 84 88 82 80 77 84 84 87 86 82 75 77 77 76 67 66 65 81 92 88 79 77 78
64 68 67 69 82 87 85 75 79 82 81 88 84 80 82 79 73 74 83 86 89 78 83 85 86 79 79 79 84 86 83 79 77 66 65 67 64 70 88 88 84 85 80
68 69 65 68 72 79 82 82 83 85 83 81 79 73 74 76 73 72 73 76 81 78 78 69 76 87 86 81 78 79 77 78 74 64 62 64 75 82 82 85 86 83 80
65 68 70 68 71 73 73 77 83 81 84 84 82 79 76 73 70 77 74 67 66 67 65 69 69 75 77 76 75 77 80 73 60 55 54 57 78 89 83 81 84 82 80
52 61 68 71 71 75 77 77 82 74 76 72 71 69 64 63 69 78 79 75 74 71 69 64 63 61 71 73 66 74 80 66 63 60 55 57 70 80 82 83 80 82 83
41 49 61 66 71 72 75 75 73 74 73 72 73 73 68 65 66 72 74 76 76 74 76 71 71 70 68 69 68 67 68 68 66 64 62 64 70 80 73 75 82 78 78
42 43 50 61 67 71 72 76 72 74 75 74 74 74 72 68 67 67 67 69 73 71 69 72 69 68 70 71 70 68 68 68 68 66 65 68 70 62 78 75 69 76 77
43 46 49 53 60 66 73 73 73 72 74 72 77 76 74 72 68 66 67 68 69 69 70 71 71 71 71 70 70 70 72 73 72 71 70 70 73 70 64 77 80 71 67
44 46 48 52 54 60 67 72 72 73 72 76 76 77 79 77 74 75 74 72 72 72 72 73 73 73 73 72 70 71 72 71 72 72 72 72 74 76 71 68 82 83 78
36 37 38 40 46 58 62 66 72 74 79 76 76 78 81 81 81 81 79 77 74 73 76 75 74 75 74 74 74 71 68 68 68 68 70 71 70 73 75 74 86 90 86
42 44 50 53 45 55 64 68 71 74 76 77 78 79 80 79 80 80 77 75 75 77 78 79 79 78 77 76 76 74 74 73 72 71 70 68 68 69 69 71 72 74 91
45 49 54 57 56 65 71 72 74 76 75 76 75 75 77 78 80 81 80 81 83 83 82 79 77 77 78 77 82 80 75 74 74 71 69 70 69 70 71 71 73 74 74
49 55 58 67 68 70 71 71 72 76 80 81 81 82 83 81 81 79 72 65 65 65 62 62 64 65 65 64 66 66 64 62 65 62 64 63 65 70 71 70 72 71 73
46 50 60 67 67 63 64 68 68 63 63 59 56 51 50 50 49 49 49 46 46 46 47 46 47 46 44 47 44 44 48 49 54 45 56 63 54 54 57 64 62 69 70
42 44 47 59 72 73 76 70 58 57 56 55 55 54 50 48 47 46 47 46 46 45 46 48 50 51 46 45 45 46 42 39 34 44 43 39 42 40 48 55 58 62 64
48 48 49 51 57 56 53 53 54 56 54 52 52 51 51 48 46 47 48 47 48 48 47 49 48 51 48 46 43 46 49 50 49 42 38 38 36 42 40 41 47 50 50
55 56 55 54 54 54 53 52 51 49 51 52 49 50 48 48 44 39 41 42 41 40 41 41 37 42 40 42 41 41 47 49 53 53 38 42 40 46 46 45 44 45 46
60 60 58 56 55 54 53 49 47 49 50 49 45 43 43 41 41 35 34 35 34 32 35 36 35 36 40 40 41 44 49 49 47 50 58 39 37 34 36 38 42 44 45
64 62 58 55 56 56 53 51 50 47 44 41 40 34 33 30 32 31 29 27 28 30 31 29 32 37 48 43 41 45 52 52 49 45 41 41 41 37 35 40 44 47 55

GFSSE_925_rhum_021.txt.gz
RH
47 69 85 98 96 90 87 92 93 85 85 80 77 74 76 76 76 74 73 69 72 72 73 79 79 80 89 90 82 71 77 73 72 73 58 50 62 81 84 78 76 71 62
44 59 85 94 95 96 97 80 84 82 82 79 78 73 72 63 60 58 71 76 78 69 73 78 82 82 84 75 79 74 71 74 74 74 64 57 49 71 86 83 75 82 77
42 52 83 89 92 93 86 84 75 76 77 77 79 69 68 73 76 67 75 78 80 72 76 81 88 84 76 80 75 68 82 82 76 73 62 60 54 63 69 81 79 81 83
41 49 66 83 92 83 79 77 71 77 81 78 76 73 72 80 81 78 72 72 78 81 77 76 80 81 84 83 82 88 88 83 76 71 73 51 50 61 62 76 76 83 85
43 47 66 81 87 81 78 72 75 76 82 82 77 78 83 84 89 72 71 78 72 71 84 82 78 74 81 71 87 87 88 76 73 74 67 55 59 60 71 75 80 73 81
42 46 76 75 85 80 70 79 75 80 91 86 82 77 82 86 91 84 72 64 71 75 86 84 84 77 79 88 87 84 84 85 82 68 64 57 56 67 76 80 85 78 79
42 48 78 73 84 80 79 82 80 85 80 83 81 74 75 86 92 89 84 76 77 79 87 88 84 86 86 82 82 83 83 83 78 68 67 61 55 61 76 84 78 76 79
45 51 62 74 78 80 84 84 81 83 78 80 74 73 77 80 90 84 85 82 81 79 82 79 75 77 84 80 82 82 78 71 72 69 66 65 63 63 75 84 86 80 76
48 52 55 65 75 70 88 78 74 78 77 79 84 69 79 79 77 74 74 78 85 84 76 72 82 91 93 94 90 84 80 77 79 72 64 58 58 68 72 81 85 81 82
50 51 51 55 65 76 81 76 74 78 80 77 78 73 68 71 67 69 69 71 76 72 67 69 65 78 93 91 88 81 76 77 83 71 63 59 58 66 74 78 82 82 79
45 50 50 52 56 61 61 77 76 77 79 82 80 77 73 70 63 67 67 68 63 62 64 66 68 65 66 65 64 66 73 82 70 59 51 49 50 65 74 81 80 81 82
40 46 51 53 54 59 59 65 73 70 77 79 71 63 69 54 54 63 68 66 65 63 66 65 67 66 69 79 66 64 76 69 61 58 58 56 53 61 69 79 81 81 80
33 38 46 50 53 55 59 61 60 61 60 59 58 58 56 53 53 58 61 64 72 66 74 67 68 69 65 62 61 60 59 58 59 60 59 59 60 66 73 79 78 76 81
29 32 39 45 50 53 56 62 57 58 60 59 58 59 59 58 58 57 55 57 62 64 62 64 64 62 63 64 62 61 60 60 61 61 62 62 63 66 76 83 86 82 75
30 34 38 41 46 49 55 56 58 57 61 59 64 63 62 61 59 56 58 60 61 63 63 64 65 64 64 63 62 62 62 63 64 65 66 67 66 68 71 81 89 90 85
33 36 39 42 43 46 50 56 57 59 59 63 63 66 68 68 67 67 68 66 66 66 65 66 66 67 68 66 64 63 62 62 61 60 62 64 65 67 70 73 85 92 94
31 31 32 34 37 45 47 53 58 61 64 63 66 67 71 72 72 73 72 72 69 67 68 68 69 70 71 70 70 70 66 61 60 60 62 63 63 64 64 68 74 86 91
34 36 42 46 39 39 50 54 59 61 64 66 67 68 70 70 71 73 72 69 71 73 75 76 73 67 63 62 62 65 68 64 62 60 62 61 61 64 65 66 68 71 80
37 39 48 47 48 48 56 60 62 65 64 66 67 68 73 74 77 77 75 70 64 63 59 58 53 53 52 50 50 49 51 52 53 52 53 55 56 59 64 66 65 68 69
44 47 54 57 59 61 62 61 63 67 68 64 60 58 53 50 51 52 48 44 44 44 42 42 41 42 42 39 39 40 39 39 42 44 53 48 54 53 44 46 54 59 64
45 51 54 54 56 56 58 60 58 57 55 52 48 45 44 44 44 44 43 41 42 41 41 44 44 47 45 44 43 43 41 41 36 37 42 38 36 36 37 36 40 46 52
37 44 54 58 61 62 56 55 52 51 50 51 50 47 43 41 42 41 44 43 43 43 43 44 42 43 42 39 40 41 44 38 35 38 32 36 35 37 40 40 41 45 46
40 42 47 48 48 52 52 52 50 50 48 46 44 45 44 41 37 36 38 37 37 37 36 36 34 35 37 35 34 39 44 43 46 38 36 35 35 33 36 38 33 34 38
47 47 46 46 46 46 45 45 44 44 43 43 42 42 41 42 37 31 31 32 32 30 30 31 28 31 31 36 36 32 37 41 51 50 33 35 31 28 26 30 30 31 35
51 51 48 47 46 44 42 41 41 41 42 40 38 36 34 32 32 30 27 27 27 28 29 30 30 31 35 39 39 37 38 41 43 42 44 36 31 28 28 30 33 35 36
55 52 48 46 45 44 44 43 42 39 38 37 35 31 28 26 28 28 25 23 24 27 28 27 29 33 41 47 42 40 39 47 44 39 40 40 40 39 38 38 41 43 41

GFSSE_925_rhum_024.txt.gz
RH
58 68 85 95 96 92 82 91 91 85 86 80 76 75 77 77 78 76 74 72 79 71 75 79 82 82 93 91 87 82 69 73 70 68 63 48 44 71 82 82 74 80 73
56 68 83 94 94 96 76 75 71 77 78 78 77 76 74 69 63 60 72 79 69 72 80 83 91 89 84 76 86 83 71 72 74 73 64 44 58 48 67 81 75 75 89
53 80 88 88 87 84 76 76 70 73 77 79 78 69 67 68 74 74 74 69 70 74 78 82 88 88 91 91 84 71 83 74 73 74 65 50 55 61 62 60 64 82 93
46 69 91 89 90 75 72 77 68 76 81 78 75 73 72 77 76 78 72 76 78 81 82 75 83 85 84 86 86 87 80 78 73 74 70 62 55 75 77 66 68 79 86
42 59 76 78 90 76 76 70 66 80 81 81 73 74 81 84 85 70 73 68 65 64 76 83 84 79 86 82 83 86 89 79 74 72 70 67 56 62 79 78 75 78 77
43 59 76 75 81 81 78 73 70 82 87 82 80 67 81 86 84 78 73 67 74 74 74 86 84 78 56 53 79 87 85 82 80 74 72 65 60 57 68 82 81 86 78
44 59 69 75 83 80 83 74 79 80 81 75 70 71 84 87 89 90 80 79 78 76 79 85 82 81 81 75 75 72 65 72 68 69 70 61 67 60 61 74 83 79 76
44 58 62 71 80 73 82 79 79 78 75 71 60 82 82 79 86 91 86 81 79 75 82 83 84 92 94 94 92 92 87 77 72 70 71 68 62 67 65 68 82 83 88
47 52 62 58 72 74 83 81 79 73 73 71 67 67 84 77 77 74 72 70 71 73 82 83 76 86 93 96 97 93 90 82 77 74 66 64 62 64 68 73 75 82 85
48 50 56 62 62 70 80 82 75 73 74 72 73 68 61 69 67 61 67 68 72 72 58 54 58 62 80 87 81 74 73 70 71 69 69 61 58 63 65 72 78 79 83
46 48 49 55 64 73 74 68 71 74 76 79 77 69 70 57 65 67 72 72 69 62 59 59 58 56 53 53 53 62 67 69 72 68 65 59 52 56 59 68 75 79 79
41 46 50 50 54 60 62 75 76 77 75 72 70 74 67 60 60 64 66 64 63 63 64 66 67 68 70 67 65 67 63 64 68 67 61 59 59 60 61 66 72 80 82
38 42 47 51 52 57 59 61 72 68 70 71 69 62 58 55 53 54 60 62 63 66 66 66 67 67 64 65 64 63 63 63 62 60 60 60 60 63 67 70 75 80 84
32 36 42 46 51 53 58 60 60 60 60 59 58 58 59 59 58 57 56 56 59 62 62 62 64 65 65 64 64 63 63 62 62 63 64 64 65 65 71 74 77 82 87
27 32 36 42 44 52 53 58 59 57 59 60 61 62 61 60 60 59 60 61 62 63 64 65 66 67 66 67 67 67 65 64 63 62 63 64 66 66 67 71 78 81 83
30 34 36 39 42 46 51 55 57 58 59 61 62 66 68 69 69 69 70 69 67 68 66 66 66 71 73 74 72 68 63 62 64 63 62 61 61 62 63 63 76 81 83
31 31 34 36 41 43 45 54 57 59 60 62 65 66 70 72 73 75 75 72 73 71 70 72 72 68 65 62 62 63 64 62 57 58 58 59 57 60 62 64 63 66 79
33 34 39 40 35 40 46 53 58 60 64 64 66 67 68 69 71 75 72 74 68 68 62 59 50 48 49 48 45 47 46 55 51 52 52 51 52 53 56 58 63 65 64
36 42 48 43 40 40 52 58 61 64 65 68 70 70 70 70 70 63 51 48 45 45 42 42 41 43 46 45 45 42 42 40 39 40 40 45 48 42 39 38 38 43 49
45 53 55 56 54 60 63 63 66 66 58 57 55 48 45 46 46 44 42 42 41 42 43 45 44 45 44 45 42 41 41 35 38 42 42 33 24 25 32 36 37 40 44
52 55 59 61 62 61 63 66 58 53 49 46 44 43 42 41 41 40 42 42 41 41 42 41 40 38 37 38 37 42 32 37 29 36 21 28 24 29 37 39 38 42 39
55 59 60 62 58 58 56 56 54 52 51 48 43 42 39 36 36 35 33 35 34 33 34 33 32 34 35 34 42 41 61 40 38 24 35 35 34 34 23 28 31 23 24
49 50 55 58 54 53 51 51 49 50 48 46 45 42 41 36 29 27 28 27 30 29 30 29 29 31 34 33 38 43 66 64 48 39 38 36 31 22 32 25 20 25 26
47 47 48 48 50 50 50 51 49 44 44 43 42 40 37 34 30 24 25 25 26 27 28 27 28 30 35 41 45 39 39 42 55 58 43 39 32 29 29 30 31 33 39
50 49 47 45 44 43 42 42 43 43 40 38 36 33 29 30 28 26 24 23 24 25 24 26 26 30 36 41 50 46 44 43 40 59 59 43 38 35 36 38 43 39 42
51 47 46 45 44 43 42 41 40 39 38 34 30 28 26 25 25 24 23 22 22 23 24 24 25 24 30 32 36 37 42 43 43 47 53 46 43 39 41 44 45 44 36

GFSSE_925_rhum_027.txt.gz
RH
80 86 90 94 79 75 65 77 77 82 79 78 77 76 79 83 81 80 77 77 76 76 81 89 88 88 94 92 87 82 69 73 73 70 62 51 47 63 89 79 71 78 73
70 80 87 89 83 82 76 77 68 76 74 81 77 75 70 73 74 70 76 79 71 74 80 88 93 85 94 87 94 84 66 72 73 73 69 48 45 54 81 66 62 71 86
66 75 90 88 77 72 77 74 65 72 78 80 74 70 68 74 77 79 76 75 73 73 81 82 89 86 92 92 89 66 75 68 70 73 65 54 59 61 73 83 62 62 88
58 69 89 85 72 73 78 76 66 71 78 82 75 71 69 70 74 79 78 80 76 71 82 82 78 84 85 81 82 70 79 80 74 72 71 68 62 67 81 83 78 74 84
61 64 83 84 77 76 71 75 68 73 77 80 70 77 76 78 77 68 80 68 70 66 65 77 77 69 84 79 72 67 73 81 80 74 69 69 65 56 76 84 79 75 80
62 63 69 78 83 77 76 79 68 76 79 74 72 70 78 79 83 75 74 71 75 72 69 69 63 60 53 49 49 75 86 80 77 74 71 64 65 63 60 76 83 84 85
61 67 77 77 78 77 84 77 73 80 84 63 68 76 83 81 90 83 67 75 79 76 75 80 83 80 84 82 85 86 83 72 66 64 64 64 62 68 68 63 75 84 83
57 66 73 82 80 81 82 79 79 80 76 62 72 82 73 78 81 91 85 79 78 75 84 88 85 90 95 93 96 96 91 82 78 72 67 60 63 67 72 68 69 78 82
53 58 56 78 81 79 80 81 80 81 73 66 60 75 78 75 74 76 78 70 69 81 82 87 86 87 90 95 96 92 87 84 79 73 70 66 58 61 71 69 74 76 78
51 54 56 53 73 71 75 80 81 77 73 70 66 54 61 68 67 66 61 64 68 71 64 57 60 64 66 58 58 56 58 65 70 70 69 62 61 60 72 68 72 77 79
50 53 55 56 53 58 66 76 77 74 75 73 71 63 64 55 51 63 71 74 71 63 57 54 57 59 64 66 66 63 67 68 66 67 67 64 62 59 72 60 61 71 78
48 50 54 57 60 64 72 71 70 74 69 68 66 62 68 61 64 67 69 65 62 65 65 66 66 67 68 66 65 64 64 64 63 65 65 62 62 66 67 66 64 66 75
43 48 50 55 56 61 79 76 75 72 72 70 71 69 67 68 60 58 59 60 61 62 63 64 65 66 66 66 66 65 65 65 64 64 63 63 62 66 68 70 72 73 76
41 43 48 50 54 58 62 63 62 69 70 69 68 68 66 60 59 58 57 58 60 63 64 65 66 66 67 66 67 69 70 70 68 67 66 65 65 64 69 72 74 77 80
37 42 45 48 52 54 60 61 63 68 65 62 61 60 60 61 62 65 66 66 67 66 67 67 69 69 68 70 71 70 67 66 64 65 67 66 64 64 63 70 70 70 76
31 38 43 45 48 52 55 60 59 60 57 60 61 63 68 67 69 70 71 71 70 69 72 72 73 69 66 62 61 59 58 60 56 51 49 54 55 54 55 59 69 70 68
34 38 41 42 44 48 53 56 59 57 58 60 63 62 70 72 74 76 74 71 70 68 66 63 54 52 51 47 46 42 42 41 49 47 40 44 49 51 49 50 48 67 72
33 33 34 37 41 44 47 56 58 59 63 67 69 70 72 70 73 72 62 54 48 46 47 46 41 39 42 43 43 42 41 37 32 34 42 44 40 31 28 28 33 37 42
35 40 40 38 36 42 53 64 63 67 67 68 67 65 64 66 52 56 49 42 42 42 41 42 41 41 36 37 34 28 28 17 26 42 42 27 20 19 24 36 34 38 40
46 49 48 43 42 64 63 64 66 65 62 62 56 55 55 48 46 42 38 37 37 40 39 36 32 27 29 32 25 35 16 28 35 36 19 13 24 19 37 28 20 25 28
57 58 59 64 66 65 66 63 59 50 49 48 46 42 38 35 34 34 32 28 27 31 32 27 27 26 23 30 40 35 23 28 31 24 10 33 16 37 32 20 25 26 22
64 63 65 65 66 66 64 60 54 48 45 42 38 35 33 30 27 25 25 25 24 25 24 24 28 28 30 35 48 51 63 45 33 18 37 23 40 32 20 28 16 21 24
61 61 60 62 64 61 59 54 50 46 43 42 41 39 34 29 26 24 23 22 22 22 22 23 26 30 39 35 36 47 64 69 46 39 28 38 36 27 34 26 31 34 35
53 56 56 54 54 54 53 49 48 48 47 45 41 36 32 29 27 22 21 22 22 22 20 24 24 28 25 38 32 44 45 43 70 62 44 35 39 40 39 37 37 39 47
51 50 52 52 51 50 50 48 44 44 43 39 34 32 30 27 25 22 20 21 21 21 22 22 23 23 24 36 32 34 42 36 43 59 50 44 43 40 38 40 40 45 44
48 46 45 45 46 46 45 43 40 38 34 31 28 26 25 24 23 20 19 19 20 20 21 21 22 21 24 24 27 31 32 42 50 46 46 46 47 40 42 42 45 47 42

GFSSE_925_rhum_030.txt.gz
RH
80 90 87 78 75 73 68 78 90 84 79 82 81 80 89 89 93 82 79 80 73 79 81 88 86 92 96 94 89 79 70 77 73 69 64 54 48 61 93 78 62 77 85
68 92 87 78 83 74 69 68 71 74 74 77 78 76 76 76 76 77 76 74 72 78 82 90 89 90 91 96 90 85 68 77 72 72 71 56 44 58 78 90 68 70 92
71 91 87 75 74 74 80 66 67 70 81 81 74 70 73 78 75 77 75 77 72 79 80 86 88 88 95 83 76 72 65 69 70 71 68 64 64 65 64 86 75 63 70
67 86 87 77 74 75 79 77 69 71 85 83 72 70 69 68 76 78 79 78 75 64 82 78 75 82 79 75 75 77 75 80 78 74 66 69 68 66 75 85 87 80 79
67 78 87 78 72 78 76 86 75 70 82 84 75 73 76 76 80 74 83 74 70 68 67 77 77 76 86 82 79 76 84 89 88 78 71 63 68 66 70 85 84 79 75
62 69 79 76 77 81 79 83 80 72 78 83 75 81 74 85 85 70 76 73 76 75 73 78 79 75 68 65 67 80 84 88 82 68 60 63 64 67 76 65 83 84 85
63 64 73 77 81 85 85 85 85 83 77 82 77 81 80 83 80 86 70 72 78 76 76 78 80 83 87 83 87 92 90 77 74 73 68 63 57 64 81 75 67 80 83
58 71 75 83 84 83 87 81 84 84 79 75 82 90 90 85 83 89 80 78 74 70 76 87 89 88 93 88 89 93 91 89 87 81 75 72 66 57 80 78 74 71 75
63 72 80 86 86 83 82 81 81 80 78 69 82 90 74 71 77 91 85 75 70 71 81 74 78 85 85 87 87 80 78 79 79 76 75 71 61 60 78 76 74 74 77
62 64 67 83 86 85 80 81 81 79 76 69 58 70 63 70 70 72 71 69 69 73 67 58 56 57 60 58 60 59 57 63 67 68 67 67 64 62 84 82 75 73 77
64 58 58 63 78 79 74 81 81 78 76 72 66 58 55 56 53 54 68 71 70 66 64 60 65 64 68 68 67 66 66 65 65 64 65 63 65 65 83 84 75 66 68
68 62 56 54 54 66 71 79 80 77 76 73 69 58 67 64 63 66 68 68 66 66 66 66 67 67 68 68 67 67 67 67 67 66 66 65 65 65 81 79 73 74 72
51 60 58 56 56 60 69 73 75 75 74 72 70 66 70 72 65 61 62 63 65 65 65 66 66 67 68 69 68 69 73 72 71 70 69 70 70 76 79 74 74 75 79
46 50 54 57 58 63 70 74 73 74 73 73 71 73 72 68 61 61 61 62 63 65 66 68 69 70 68 71 75 76 74 70 68 67 64 59 60 62 70 70 72 72 75
32 44 52 54 56 60 68 73 75 71 70 68 73 73 70 67 64 65 66 71 73 72 73 76 77 75 72 67 64 61 58 57 58 54 55 51 55 50 52 70 73 73 78
28 37 47 52 54 58 64 64 63 66 69 70 65 63 66 67 70 74 78 77 74 74 75 68 62 57 54 52 53 50 45 43 43 43 42 39 40 45 44 53 57 60 62
34 38 45 49 53 56 61 62 64 63 66 67 69 70 72 76 76 77 70 64 59 57 56 54 50 44 37 36 35 34 33 32 31 26 34 40 33 29 24 32 52 56 65
36 41 47 50 50 55 57 63 66 70 70 69 71 74 74 71 71 74 60 51 47 50 46 42 37 34 30 25 22 18 17 17 18 35 43 26 24 21 22 34 27 35 42
33 35 38 39 44 51 61 68 70 70 69 71 71 69 64 64 65 62 52 43 40 38 36 34 28 23 22 19 15 18 15 15 36 39 24 13 33 20 37 29 27 24 22
38 42 42 42 40 59 67 69 66 68 64 62 60 60 62 57 50 41 34 31 28 26 26 22 20 18 26 24 22 20 13 22 33 30 14 25 21 23 34 24 24 20 13
53 52 47 47 68 67 66 63 60 55 52 53 52 48 45 37 32 28 25 25 24 24 22 20 18 18 24 26 38 26 19 30 31 24 24 25 17 41 30 25 27 16 19
64 65 72 74 69 66 64 60 57 52 48 44 37 33 30 27 26 25 24 23 22 19 17 20 23 24 28 31 39 60 66 45 37 15 37 23 38 19 25 23 25 28 34
69 70 73 74 68 64 61 57 50 45 39 35 33 30 28 27 25 24 22 21 20 18 18 22 24 23 29 31 42 44 59 66 54 37 26 39 24 40 28 38 34 37 38
68 67 68 68 65 62 60 54 48 45 43 40 35 31 29 27 25 22 20 20 19 19 19 21 23 21 25 38 31 34 41 46 63 66 44 38 36 35 40 40 38 43 37
63 63 65 63 61 58 55 50 42 42 43 39 34 30 27 25 23 21 18 18 18 19 20 20 21 22 25 27 33 40 40 35 33 75 54 43 38 40 40 39 42 42 44
60 58 58 57 56 52 47 44 41 41 39 36 32 28 25 25 21 20 18 17 18 18 19 20 22 22 24 25 27 26 29 43 52 50 44 44 47 41 40 43 41 42 44

GFSSE_925_rhum_033.txt.gz
RH
81 87 76 76 70 76 79 85 92 87 86 85 85 89 92 93 93 78 80 81 75 79 79 87 85 93 95 95 92 90 74 67 66 68 68 60 49 57 92 87 79 77 83
63 88 77 74 78 80 73 80 84 80 83 82 79 81 85 88 86 82 76 76 75 77 82 88 96 95 96 96 92 85 73 82 72 70 72 62 50 61 72 90 89 76 83
68 89 82 77 81 75 70 80 72 75 82 80 78 73 73 73 72 73 73 74 72 81 78 89 89 90 96 90 77 72 70 77 80 74 70 68 68 64 81 81 89 86 80
70 87 85 80 84 74 79 94 77 71 87 81 73 73 73 71 74 77 76 79 82 79 82 77 79 84 83 81 78 77 87 91 87 81 67 67 68 64 84 83 87 87 81
77 81 83 77 77 77 88 86 81 83 89 83 73 73 73 70 78 75 82 79 72 71 71 79 75 74 87 81 82 87 88 88 94 83 75 65 63 66 78 71 89 84 83
71 73 81 75 76 76 79 81 91 92 91 84 76 75 80 80 86 80 81 74 77 74 72 76 72 64 59 60 61 79 82 83 77 64 60 58 56 56 81 78 71 82 84
67 68 81 79 75 80 87 87 92 95 92 85 76 84 84 81 82 76 86 76 79 74 71 75 76 83 86 85 84 92 92 80 78 78 76 72 68 60 80 84 79 72 82
59 66 80 82 79 84 83 86 90 85 92 84 80 86 90 76 81 88 84 78 80 74 78 84 88 88 90 88 85 86 87 86 87 82 80 77 72 65 82 79 80 79 73
62 64 74 82 84 85 85 90 83 83 90 74 85 93 79 74 75 85 86 83 71 69 76 79 77 82 86 87 85 74 67 66 67 68 69 68 69 66 88 87 83 79 76
64 69 74 79 88 88 88 88 82 83 82 68 70 84 71 72 73 82 82 73 67 73 78 69 61 60 66 70 72 71 70 69 69 68 67 66 66 67 80 91 89 85 78
74 73 79 82 89 87 87 86 83 82 80 72 63 65 69 67 66 67 69 71 72 72 73 71 71 70 72 71 70 70 71 71 71 70 70 69 69 69 82 83 84 88 83
81 78 79 77 82 86 90 86 85 85 82 77 72 65 64 64 57 58 65 70 71 70 70 70 70 70 70 71 70 71 72 74 75 74 72 73 74 91 89 87 87 84 83
61 74 70 68 67 77 88 80 83 86 81 79 76 70 70 71 68 67 66 66 67 69 68 68 69 70 71 71 70 74 77 75 73 72 69 64 61 80 78 78 78 78 77
54 57 62 62 63 65 75 72 77 80 80 77 74 73 72 74 71 65 65 66 66 68 70 72 72 68 68 71 69 68 63 59 61 58 57 54 50 55 66 66 72 72 76
39 48 55 62 62 62 68 71 74 76 76 74 77 78 79 77 72 66 70 76 76 75 75 76 72 67 64 61 54 53 51 48 44 42 41 42 42 41 52 61 62 65 68
24 24 41 55 60 62 66 70 74 74 73 75 77 78 72 70 76 82 81 78 72 69 66 63 60 54 48 44 40 35 32 29 28 25 30 35 32 30 32 60 60 66 67
25 29 37 50 56 62 64 66 72 75 81 83 79 71 73 80 81 75 65 59 56 55 52 49 44 36 31 27 22 18 16 18 16 23 38 26 30 21 26 50 57 55 55
33 34 37 49 55 59 63 67 79 82 82 74 75 78 79 76 69 72 67 58 49 47 42 35 30 23 21 18 15 14 15 13 21 42 24 20 29 21 28 30 29 31 42
37 42 47 54 57 62 67 77 77 76 76 77 77 75 73 66 65 64 53 46 37 31 26 23 20 17 19 15 12 14 11 16 41 32 19 25 21 23 33 28 26 22 24
36 41 44 51 57 65 73 77 74 73 72 72 67 64 59 59 59 47 32 27 25 24 22 18 16 15 26 16 12 11 15 23 40 28 16 23 24 29 25 27 20 17 17
42 44 46 45 62 67 73 68 66 60 59 64 59 52 53 48 33 27 26 25 23 22 17 16 15 15 20 21 21 25 19 31 35 32 16 26 22 25 18 17 14 20 16
55 56 54 54 64 69 69 65 61 55 50 46 39 34 30 27 26 26 25 24 21 17 16 17 18 17 19 31 48 61 63 36 36 20 18 19 23 24 22 18 24 24 31
70 72 68 64 68 67 65 60 53 47 39 32 29 27 26 27 26 25 24 22 19 17 17 20 20 20 28 26 40 34 47 58 63 32 27 34 30 33 25 29 30 34 41
75 80 75 70 68 64 60 56 53 44 40 32 29 28 27 27 25 23 21 19 18 17 17 20 20 22 25 33 28 29 33 46 58 61 42 35 36 32 34 35 37 41 37
76 79 75 69 63 60 58 57 53 42 36 32 30 28 27 25 23 21 18 17 16 17 18 19 20 22 24 27 32 37 38 34 42 72 53 46 35 32 36 41 43 39 41
76 74 71 66 61 59 58 54 48 38 36 32 30 27 25 24 22 19 16 16 16 17 19 21 22 23 25 26 27 29 34 45 55 55 53 45 43 37 40 41 42 41 44

GFSSE_925_rhum_036.txt.gz
RH
76 79 80 73 70 67 72 76 88 90 92 88 88 90 96 96 92 85 82 81 78 78 79 85 85 85 92 96 94 91 84 76 70 68 69 68 56 61 84 90 87 77 92
64 77 80 74 71 74 71 81 85 80 82 85 83 89 92 97 88 85 77 74 78 77 80 91 93 98 96 98 94 88 84 84 78 74 72 65 57 66 84 83 91 77 82
65 80 77 72 74 77 72 77 76 76 84 83 79 80 82 83 81 74 72 74 76 81 78 87 94 97 95 91 90 91 80 77 80 78 75 66 68 67 86 84 88 87 84
67 85 77 79 77 81 77 77 77 76 82 81 76 72 73 72 75 75 77 79 83 81 82 76 83 87 87 83 82 79 85 92 90 85 80 71 65 64 82 84 84 88 86
75 84 79 79 77 76 74 80 89 89 89 82 74 76 74 73 76 80 79 78 72 70 68 69 66 72 80 77 77 78 86 87 92 82 70 57 52 53 70 80 73 92 82
80 84 81 79 79 85 75 81 94 95 93 85 76 77 74 78 82 81 84 73 76 70 70 70 61 56 52 51 51 59 76 73 66 65 67 66 63 57 76 84 80 75 81
83 86 83 78 83 81 82 86 94 97 95 87 79 78 80 80 89 80 89 79 80 68 69 73 68 76 79 84 85 89 88 86 86 81 78 77 73 68 87 81 84 75 76
71 79 85 85 83 81 88 90 88 94 95 90 78 85 87 74 82 84 88 80 84 77 78 84 89 91 91 91 89 87 85 85 82 75 74 73 74 71 92 91 82 83 81
67 69 80 84 79 82 90 86 87 88 89 80 77 87 92 73 78 78 82 85 83 81 86 92 92 93 94 94 92 80 70 66 68 70 72 72 73 73 97 96 92 89 83
69 69 73 84 82 84 91 87 88 86 85 75 70 86 79 74 76 85 81 80 76 80 85 88 80 78 77 76 75 76 76 75 74 74 74 73 74 74 82 91 94 93 89
78 75 75 82 87 88 89 89 91 86 86 79 68 81 83 71 70 71 74 76 75 77 78 81 78 77 76 74 75 75 75 75 76 77 76 76 75 86 87 82 84 87 88
76 76 80 84 88 94 95 91 91 88 87 81 73 68 71 64 60 58 63 70 74 75 74 74 74 74 73 72 72 72 74 78 77 76 73 69 66 80 85 83 84 84 84
71 74 75 80 85 92 98 92 90 88 86 81 78 74 70 70 69 68 69 70 69 70 72 71 72 73 72 70 70 69 73 71 69 68 64 60 55 70 71 69 74 75 77
59 66 71 76 80 85 90 87 84 85 84 81 79 77 74 75 77 75 69 67 67 69 72 74 73 69 70 63 60 56 56 54 50 46 43 45 46 47 61 64 66 69 72
44 46 54 65 73 75 83 83 79 80 80 78 79 78 75 77 78 69 69 74 77 77 72 73 68 62 64 54 48 42 37 34 31 28 31 36 36 37 53 65 67 73 71
27 26 32 48 63 69 72 74 71 75 77 80 82 81 82 80 70 75 81 80 77 67 61 62 56 48 42 34 27 21 18 20 18 21 32 29 31 26 53 64 65 65 62
25 25 26 29 52 66 68 66 70 78 84 84 86 84 82 74 76 80 74 65 56 53 50 46 38 29 24 21 18 16 16 16 16 33 24 30 26 22 30 47 56 55 55
27 26 30 36 45 65 67 67 72 88 89 88 87 82 79 81 78 65 65 55 50 45 35 27 23 20 19 17 15 14 14 13 29 30 26 25 24 23 25 29 28 28 41
30 34 37 43 56 70 72 74 86 91 88 85 78 80 81 67 65 62 62 51 36 26 24 21 19 17 18 15 13 14 13 18 41 22 21 22 24 22 21 19 14 12 22
37 42 44 54 68 73 79 86 88 84 81 79 79 74 67 62 58 59 46 28 25 24 23 19 16 15 17 14 12 12 20 24 44 31 26 21 23 23 22 18 16 12 16
40 44 47 56 73 76 83 80 74 74 71 68 66 62 62 50 40 30 26 25 24 24 19 16 14 13 18 16 19 19 20 21 33 34 27 20 23 24 22 15 11 13 15
42 45 50 60 75 77 77 74 71 69 60 58 55 47 43 30 27 27 27 26 22 18 17 15 14 16 22 23 38 49 56 29 21 16 17 24 25 21 21 17 15 17 26
58 55 55 60 73 74 73 69 65 63 51 40 32 28 27 27 27 27 26 22 18 16 16 17 18 18 22 22 39 31 39 46 67 26 19 22 31 26 26 23 24 31 27
67 68 63 64 71 72 69 66 62 51 39 34 28 27 26 26 26 24 22 18 16 15 16 18 20 21 23 29 27 25 28 39 54 59 36 32 37 33 33 30 36 32 31
75 79 74 69 70 69 64 62 54 46 38 29 28 26 26 25 23 20 17 15 15 15 17 19 20 22 24 26 30 34 33 32 45 72 52 49 39 37 37 36 33 37 38
86 86 76 71 68 64 61 56 53 45 32 29 27 26 25 24 21 18 15 15 16 17 19 21 23 24 25 26 27 30 34 45 53 53 62 50 51 42 43 43 41 40 40

GFSSE_925_rhum_039.txt.gz
RH
73 77 76 78 76 69 68 78 87 95 95 93 93 97 95 91 88 86 83 80 79 82 82 80 82 76 96 93 96 79 82 78 69 72 70 66 54 58 78 93 87 77 84
66 77 82 75 72 68 71 88 87 93 92 89 91 93 91 96 89 85 77 75 75 82 80 98 96 94 94 97 97 90 88 83 75 74 71 60 58 68 79 87 85 76 84
69 79 90 77 70 74 72 75 71 70 76 76 81 85 87 93 85 72 73 75 80 79 79 90 98 100 99 98 93 87 93 86 81 81 77 65 63 64 84 86 76 84 74
72 80 92 75 74 74 70 68 67 68 73 82 78 76 75 74 74 75 77 79 82 79 77 75 84 87 85 75 80 87 89 90 83 78 81 73 59 57 66 84 80 85 87
78 80 81 81 78 74 69 70 74 79 85 80 76 74 70 72 77 78 77 76 72 67 64 61 67 76 78 76 75 74 77 75 74 68 63 60 55 49 54 82 80 83 95
77 84 85 84 78 79 74 74 77 90 90 81 77 79 79 75 76 84 78 73 76 63 67 68 59 60 54 52 55 66 79 75 76 76 76 78 76 68 81 80 85 80 78
78 87 93 82 81 85 82 78 85 96 94 86 78 79 73 79 83 81 82 77 81 68 70 73 72 79 80 86 86 84 85 87 94 92 82 78 78 77 96 90 83 83 80
67 82 86 81 82 86 86 80 85 94 94 88 80 81 81 77 85 80 82 79 84 77 78 87 94 94 95 94 92 86 80 79 84 86 73 73 72 74 99 96 93 86 84
72 79 86 95 88 83 84 84 85 90 88 85 76 86 77 74 76 81 80 82 84 79 84 90 93 90 90 91 88 81 76 74 79 79 74 74 74 72 93 96 95 94 91
81 83 85 87 91 95 98 87 84 85 84 79 66 82 79 74 78 88 82 83 80 84 86 89 89 88 83 80 78 78 77 76 76 76 76 76 73 72 86 90 91 85 89
80 81 82 91 91 87 90 96 90 88 87 83 67 79 80 72 71 81 76 75 78 78 80 83 84 80 76 76 76 76 74 76 78 77 76 72 72 88 89 89 87 87 86
81 80 80 88 96 92 91 96 94 92 95 86 71 72 77 72 64 64 67 71 74 75 75 74 75 74 74 74 73 72 74 76 76 74 72 67 63 76 77 75 77 80 81
71 72 78 93 100 99 96 93 95 94 89 87 79 70 68 67 65 66 69 70 70 70 71 73 74 75 73 70 64 60 58 60 60 57 53 52 54 64 66 69 70 72 76
60 61 67 80 98 99 99 99 95 93 89 87 80 75 70 73 74 73 70 68 68 69 74 75 75 72 64 61 58 52 52 49 44 40 38 40 41 46 62 68 71 80 76
50 52 64 74 81 96 100 99 92 92 86 85 81 74 71 74 75 72 67 70 76 79 70 68 65 60 56 46 39 31 25 23 22 21 26 29 33 52 67 71 70 72 69
27 28 34 50 72 82 94 87 84 85 83 85 80 76 75 77 76 68 77 79 79 66 61 58 55 48 40 30 22 18 18 19 16 24 27 30 29 42 68 67 65 64 64
26 26 27 28 43 71 78 71 76 76 81 84 81 81 83 84 76 77 79 70 60 57 52 46 38 28 22 20 17 16 17 14 19 27 29 29 26 25 51 58 56 55 57
28 28 28 29 31 52 77 73 73 78 82 84 86 86 87 85 80 80 66 60 56 50 37 25 22 21 20 17 16 15 14 17 33 28 27 27 24 21 21 19 17 18 44
29 29 29 32 39 50 82 77 76 82 89 91 89 89 89 83 76 65 58 50 42 27 24 23 21 18 16 15 14 14 16 25 32 26 23 25 24 22 22 19 13 10 10
31 32 35 41 56 70 84 88 89 96 97 94 90 86 83 72 65 59 48 32 25 26 24 19 16 15 14 13 14 14 23 27 40 30 29 21 23 24 23 21 17 15 9
32 38 44 52 72 83 91 93 89 88 86 84 84 77 68 67 53 46 27 26 27 26 19 16 14 14 16 14 21 25 23 20 38 39 23 19 27 25 22 21 18 16 23
34 42 50 61 79 85 86 83 81 82 75 74 65 60 55 50 32 26 27 28 24 19 16 14 13 17 22 23 31 39 29 23 27 27 22 25 22 27 18 18 17 22 29
46 46 54 64 82 84 82 80 78 73 67 56 46 44 34 30 27 28 27 25 19 16 14 15 15 15 31 32 25 27 25 25 37 31 25 30 32 27 29 32 32 31 36
47 51 55 66 80 80 79 76 76 68 55 46 38 33 27 26 27 26 24 19 16 14 15 16 18 18 20 33 32 29 27 38 29 28 34 32 36 32 36 36 34 38 34
58 62 64 70 77 77 74 73 69 65 52 38 30 27 26 24 24 21 18 16 15 15 16 18 20 21 22 29 36 38 40 39 50 46 32 29 33 35 38 38 40 40 40
68 75 75 73 75 73 70 68 66 61 45 31 28 26 24 22 20 18 16 15 15 16 18 20 22 23 24 25 26 31 38 36 35 38 38 37 40 35 41 43 42 39 40

GFSSE_925_rhum_042.txt.gz
RH
65 75 79 81 76 76 69 74 88 93 96 96 96 95 96 92 89 87 83 80 73 87 85 78 79 82 96 96 90 79 80 83 70 65 62 58 52 61 68 90 80 61 66
65 74 82 81 73 70 73 90 96 97 94 93 94 94 91 94 90 80 76 78 77 81 85 98 96 93 91 96 94 88 89 88 77 71 67 59 52 72 81 89 72 66 68
65 73 85 76 72 70 72 89 90 89 88 84 92 90 90 95 85 72 74 77 81 75 84 90 99 100 100 99 96 84 89 88 82 77 68 63 60 60 82 87 86 76 73
65 74 77 77 72 74 75 82 84 90 85 80 81 82 82 78 74 78 77 81 80 79 71 78 90 97 95 90 78 83 91 92 85 68 64 60 55 56 68 82 85 86 87
68 70 77 78 74 75 73 74 80 82 84 80 76 75 74 73 74 75 78 80 75 68 68 66 72 78 77 75 73 75 80 71 60 70 65 69 70 58 64 77 78 79 89
67 68 87 80 77 73 73 75 83 86 84 78 78 75 75 78 80 82 76 74 66 64 76 69 60 57 54 56 68 75 76 82 80 73 75 74 79 70 90 86 80 84 81
68 68 89 86 82 78 75 77 81 91 89 80 80 80 82 74 81 77 76 75 72 64 71 74 79 81 82 83 82 80 80 84 82 72 74 78 80 73 97 94 90 83 84
74 74 77 88 83 80 82 81 80 90 94 84 80 80 77 82 81 84 80 76 77 76 80 86 92 94 94 91 88 82 73 70 73 72 76 79 79 72 94 92 93 94 90
75 75 75 85 92 87 89 86 84 89 93 81 81 84 81 78 78 88 83 80 75 77 83 88 92 91 87 91 87 81 77 75 84 75 78 74 77 71 88 96 95 95 96
74 72 72 76 83 86 93 88 86 86 86 77 66 81 77 74 78 83 81 82 78 83 86 88 90 87 82 78 77 76 75 75 72 75 73 81 74 92 91 92 90 89 90
70 70 70 76 77 80 87 96 91 90 87 80 67 78 76 72 82 86 85 72 76 78 78 80 81 78 76 76 75 73 72 72 71 73 74 75 69 80 81 81 80 82 84
65 72 72 75 78 82 83 91 94 91 89 81 70 76 68 66 67 72 75 71 73 74 75 74 74 74 75 73 73 70 65 64 63 64 63 64 63 75 72 72 74 77 80
54 64 72 74 89 85 85 84 88 87 83 81 72 68 67 68 62 62 68 69 73 73 75 75 77 76 70 59 56 56 54 52 52 52 56 49 47 67 68 70 72 84 81
47 57 68 71 86 98 96 89 82 84 84 81 78 68 68 68 72 68 66 72 74 72 76 78 67 67 61 51 46 43 42 42 39 38 41 33 36 58 68 74 79 78 73
42 49 58 69 76 90 100 98 89 85 82 81 79 72 70 70 69 69 68 70 74 75 65 62 63 59 44 38 33 31 31 31 28 34 31 33 33 62 73 74 71 71 70
36 38 46 62 70 82 99 99 99 80 78 82 78 73 75 77 74 73 71 72 74 70 64 55 47 42 36 30 24 24 27 25 30 31 33 49 40 69 71 68 65 64 63
26 26 30 44 61 75 87 99 96 76 77 82 78 82 69 77 85 70 75 76 68 57 44 41 39 32 27 26 24 23 25 23 33 31 35 34 36 40 40 52 45 42 47
30 30 30 34 43 62 76 84 80 75 77 80 85 89 88 83 82 77 76 64 56 47 41 33 30 30 28 26 23 23 24 27 30 31 36 34 35 32 30 19 15 12 19
28 28 30 36 40 53 68 72 74 74 76 82 86 91 88 87 80 79 67 56 40 36 30 28 33 29 26 25 22 21 29 34 31 29 33 32 35 36 33 31 22 23 25
30 30 31 36 45 57 66 73 75 76 79 83 85 85 92 77 80 73 58 48 33 30 31 30 29 29 27 26 23 21 31 38 32 32 32 28 32 35 33 31 25 22 27
34 34 35 40 50 63 68 71 77 78 83 88 89 88 82 74 71 61 46 34 32 30 26 25 27 28 28 29 23 19 26 29 39 39 32 28 32 30 29 25 22 22 22
35 36 38 46 56 66 69 70 70 80 92 90 85 78 71 66 64 52 34 33 30 28 26 25 26 27 28 32 24 28 21 20 27 34 24 31 25 28 25 23 26 25 26
35 36 41 48 62 69 70 73 78 85 82 73 66 66 58 54 44 32 32 32 29 28 28 29 30 30 27 32 30 24 21 21 22 20 24 23 26 24 25 29 29 27 29
34 40 44 54 65 71 76 73 74 74 73 64 58 57 48 40 34 31 31 29 27 28 30 28 29 27 28 26 29 28 32 26 21 21 20 22 25 25 28 30 30 29 31
33 43 52 60 67 71 71 70 72 70 67 60 56 44 35 30 29 28 29 28 28 29 30 31 31 29 28 29 29 28 28 27 29 30 29 21 23 25 28 31 32 33 32
33 55 61 64 67 68 70 70 71 68 62 53 45 35 31 30 29 30 28 29 29 31 32 32 33 34 32 33 31 31 29 27 25 28 28 28 29 27 27 31 34 33 33

GFSSE_925_rhum_045.txt.gz
RH
51 82 85 79 76 76 74 72 95 97 96 96 95 96 94 90 87 84 81 77 79 93 86 84 78 80 97 93 92 82 76 77 68 62 56 47 46 74 74 79 70 63 61
54 77 81 83 78 75 76 79 94 96 95 97 97 96 96 92 87 80 78 75 80 85 95 98 94 79 92 92 93 88 78 81 77 70 61 66 60 56 85 90 86 73 65
56 73 86 77 72 73 85 94 98 95 93 94 94 96 98 94 83 74 78 80 79 79 90 96 97 95 98 100 96 94 85 86 83 67 60 62 54 54 62 84 86 81 81
54 70 77 77 72 71 82 97 97 92 86 87 89 94 95 83 76 75 78 82 79 78 78 90 96 96 96 95 92 82 84 86 64 52 60 52 50 50 45 75 85 87 88
54 63 75 79 70 73 76 90 92 88 83 81 82 79 80 73 73 75 81 84 74 68 66 77 82 84 79 72 68 66 70 57 58 70 65 69 72 68 62 79 75 81 84
52 57 76 74 73 74 74 86 89 87 83 78 78 77 75 78 80 80 80 72 64 77 72 62 61 61 56 55 67 79 81 74 75 65 65 67 72 71 92 89 86 80 84
50 63 90 76 76 73 75 82 91 89 82 80 79 80 80 83 87 86 75 77 64 80 85 84 80 76 68 80 83 85 83 76 79 64 65 69 76 69 91 90 92 93 91
49 60 81 87 80 74 78 82 90 93 86 80 82 83 86 83 87 94 80 78 66 74 81 88 94 94 87 82 82 74 67 63 72 63 68 71 76 72 96 93 94 96 97
51 56 72 89 92 77 80 81 86 93 92 83 82 82 84 80 85 94 84 82 70 77 79 81 84 83 82 85 81 75 72 70 72 66 70 69 74 86 93 96 94 90 92
54 54 59 72 84 88 96 83 85 88 87 72 77 82 77 73 76 88 82 82 72 81 81 88 86 83 78 75 74 73 70 72 68 63 65 71 71 85 85 86 83 85 87
53 53 53 60 75 77 83 94 89 90 88 76 68 76 70 71 82 80 90 75 69 74 76 78 76 74 72 73 71 68 67 63 60 62 64 68 68 80 78 76 79 80 82
52 53 52 57 62 73 83 91 92 92 90 82 69 76 69 59 65 73 78 66 70 71 72 72 72 72 70 67 71 63 56 53 53 55 56 59 56 71 70 73 76 84 88
46 52 53 56 58 61 74 86 84 86 79 75 63 64 59 57 65 65 68 67 70 68 75 73 75 67 62 56 55 53 51 48 48 48 51 49 44 59 66 73 88 84 79
36 46 54 54 59 60 70 72 76 78 78 78 66 59 60 57 54 58 60 63 67 65 65 70 62 60 54 48 43 40 40 40 37 33 39 35 33 68 72 80 77 77 74
31 39 48 53 56 69 70 66 61 74 75 69 67 60 58 59 60 60 60 61 62 66 65 61 57 53 46 41 36 32 30 30 27 30 32 38 46 74 77 76 72 72 69
30 34 40 49 53 61 74 88 72 64 74 66 69 65 61 61 60 62 64 68 65 68 64 55 49 45 40 34 27 23 24 25 25 31 29 43 48 67 69 67 62 57 55
24 30 32 40 48 55 64 88 90 66 69 71 72 65 64 67 76 71 69 70 66 56 48 46 41 36 29 29 26 23 23 23 24 28 32 33 42 36 38 30 26 22 27
25 24 25 27 40 49 57 76 94 70 65 76 74 66 70 76 77 73 71 67 55 49 44 39 34 31 30 27 24 24 24 25 29 28 33 33 35 32 34 31 20 16 16
26 27 27 28 32 38 52 62 73 65 61 76 73 70 75 81 81 70 65 62 47 42 38 30 33 29 27 26 24 19 24 31 32 27 31 32 34 35 35 32 28 23 28
22 25 25 28 33 35 42 57 61 58 62 73 75 73 79 82 73 67 65 46 41 38 33 32 31 30 28 28 24 21 28 35 31 31 32 30 30 34 32 30 27 23 24
23 24 27 26 30 37 45 54 57 59 68 78 82 81 82 73 64 63 54 41 36 32 30 28 29 29 32 29 23 22 26 29 37 34 37 27 28 30 29 25 24 26 25
26 29 29 28 31 40 48 54 56 65 86 91 89 79 72 65 57 52 48 37 32 30 28 28 29 30 31 31 26 28 31 26 26 34 29 27 26 25 25 25 28 28 27
26 27 30 29 33 43 49 56 60 81 90 92 84 72 68 70 66 54 40 33 31 31 33 33 34 31 30 30 30 28 31 31 25 18 24 23 26 24 25 26 29 28 29
24 28 30 32 37 47 56 61 69 80 79 78 75 69 63 56 50 43 36 34 33 32 34 31 31 27 29 28 30 27 33 29 26 27 19 22 21 24 23 26 28 29 31
17 27 34 36 40 53 59 64 73 70 74 74 72 66 57 51 39 34 32 32 32 33 32 33 31 28 27 29 30 30 27 27 27 30 36 25 24 24 26 26 28 30 32
21 26 38 41 48 56 65 65 67 67 66 68 66 63 52 46 37 35 33 33 33 34 34 33 34 34 32 35 32 30 30 29 27 29 33 32 32 28 26 28 29 31 30

GFSSE_925_rhum_048.txt.gz
RH
82 76 73 77 74 72 70 72 88 97 98 97 97 96 94 92 89 85 81 82 90 92 92 96 77 84 96 95 92 80 74 70 65 60 52 54 46 79 79 84 66 81 83
75 80 78 78 80 75 74 80 89 91 97 97 97 97 95 92 85 82 79 77 86 96 97 100 85 81 93 96 94 89 76 71 64 48 54 66 62 53 68 86 86 74 80
82 92 81 82 76 74 80 87 91 89 93 96 96 97 95 91 80 80 80 80 77 90 97 99 99 93 98 98 97 93 76 69 52 49 62 68 68 52 44 62 87 71 84
78 90 86 79 74 72 84 95 93 94 93 96 95 96 93 83 79 79 82 79 78 85 89 95 89 88 89 87 89 78 70 49 44 61 59 56 65 63 62 71 79 86 85
75 82 82 76 72 71 87 93 91 86 84 89 88 95 85 78 75 78 84 71 65 74 80 87 88 82 81 78 71 58 44 47 69 67 68 69 70 71 88 84 75 78 88
65 76 78 75 71 70 72 85 88 86 83 83 80 80 75 74 77 85 70 53 62 72 75 77 78 76 71 66 61 69 67 60 72 68 66 70 76 70 88 91 92 92 84
67 74 74 73 74 69 70 80 87 87 81 81 81 79 83 85 86 89 78 65 73 81 81 76 67 59 56 74 90 85 75 63 67 65 67 72 77 72 96 89 87 97 97
71 82 75 75 75 69 71 77 84 85 82 82 82 83 87 89 93 94 85 72 72 80 87 88 82 75 68 70 69 64 61 62 71 71 68 71 76 85 95 88 91 93 93
69 84 87 79 77 71 73 75 83 86 78 81 84 86 86 82 86 95 87 77 70 74 74 72 72 69 69 71 71 69 68 66 69 67 70 66 69 85 88 89 87 88 92
54 74 81 90 86 81 82 77 79 83 77 70 79 84 80 76 83 92 83 76 69 72 72 75 72 71 70 69 70 68 65 68 62 69 62 63 67 84 84 82 85 84 86
53 60 74 84 82 88 86 84 82 84 81 64 75 74 72 76 78 88 83 72 64 68 69 70 69 67 70 72 69 62 65 60 57 61 61 63 61 77 75 79 80 88 95
53 52 59 75 73 75 83 87 87 89 87 72 62 70 64 75 80 85 85 72 65 67 67 68 69 70 74 73 63 61 55 51 50 52 52 52 52 71 72 77 91 87 85
51 52 51 62 72 72 82 84 90 89 84 80 66 62 62 67 75 81 65 61 64 63 70 70 74 66 63 58 54 50 47 45 46 41 43 44 35 61 70 90 83 82 79
46 50 51 54 61 70 67 74 82 84 84 73 66 65 61 58 58 58 63 64 69 65 73 68 63 61 57 46 41 39 38 38 34 30 34 34 29 56 83 81 79 77 74
39 46 52 52 56 65 69 71 75 79 81 70 68 61 60 59 55 58 62 64 66 66 68 65 60 54 46 42 36 30 26 28 28 30 32 33 40 79 80 76 72 66 63
29 42 49 52 54 59 67 71 71 73 73 71 66 64 60 58 61 61 61 65 62 64 62 58 51 47 40 37 29 25 23 25 23 30 30 38 37 53 68 65 59 57 57
25 31 41 49 51 61 67 70 70 75 66 68 64 66 58 61 62 62 64 66 64 67 59 49 48 39 33 28 27 24 22 22 22 28 32 37 36 35 33 27 22 28 34
25 25 32 42 49 54 66 76 72 76 71 67 66 66 61 65 66 67 67 67 60 48 46 43 36 32 29 25 24 22 23 24 28 27 32 34 37 35 34 32 29 28 36
24 26 26 32 42 48 57 69 77 78 78 62 67 68 65 69 76 73 67 66 53 46 42 39 32 28 25 24 21 18 20 27 34 28 32 33 31 30 34 33 28 28 30
21 26 26 27 28 38 52 70 78 77 78 58 62 71 68 75 80 73 67 60 47 44 39 31 28 24 23 22 22 22 25 29 33 30 31 33 30 30 29 30 26 24 25
19 21 27 27 28 29 35 57 75 75 73 70 67 73 76 80 80 70 63 47 45 38 32 30 28 29 24 18 24 22 27 26 33 33 33 33 27 30 28 26 25 25 27
23 23 22 26 31 32 34 44 62 67 74 73 77 77 83 82 75 64 53 44 37 33 28 26 29 28 30 19 23 30 43 32 28 29 35 30 25 23 25 25 24 26 28
24 25 26 26 28 35 37 47 61 72 81 87 86 85 83 72 66 56 49 45 35 28 28 29 26 29 30 28 20 29 42 44 33 22 30 25 22 25 25 23 25 27 28
22 24 26 28 29 31 39 54 61 79 92 90 81 75 68 65 64 56 49 38 31 30 29 27 26 22 28 29 30 25 24 28 39 41 22 23 24 24 24 26 25 26 27
17 25 25 27 31 32 42 56 69 79 85 88 80 74 71 72 62 54 42 36 31 30 26 25 24 24 24 28 28 29 28 28 27 36 50 35 25 24 26 27 28 27 28
19 17 22 30 33 34 50 61 74 77 82 84 76 72 65 60 46 39 36 31 31 29 28 27 24 24 24 25 28 29 29 32 34 36 48 43 40 34 33 31 27 28 28

GFSSE_925_rhum_051.txt.gz
RH
90 78 75 78 86 84 95 98 98 97 96 94 96 97 93 88 86 80 87 91 93 95 95 83 80 96 96 92 92 65 65 60 52 42 60 58 66 75 86 89 80 84 87
81 80 75 80 81 76 82 88 90 90 91 96 94 94 95 89 88 83 82 88 95 96 95 93 78 91 95 94 95 71 66 56 39 55 66 70 64 73 67 69 69 78 81
76 82 86 87 76 71 77 96 91 92 91 92 98 97 93 87 86 84 81 80 90 96 98 83 89 98 98 99 98 83 68 43 49 62 62 61 65 71 64 58 88 78 86
75 85 88 84 73 71 84 94 94 97 96 95 95 96 85 83 83 82 79 79 88 96 99 100 95 93 91 88 91 69 51 45 62 65 65 65 72 78 78 74 81 86 90
79 89 88 79 73 74 94 92 89 91 96 96 94 92 86 81 79 83 82 80 80 92 98 97 85 83 79 82 70 52 36 67 69 70 71 68 74 86 90 85 68 72 74
84 87 84 77 72 69 81 78 74 81 90 89 96 88 80 76 82 85 79 81 81 75 86 83 82 81 76 68 63 49 44 70 71 63 69 76 79 83 93 84 86 95 90
86 79 79 74 70 63 64 68 74 83 85 83 85 78 76 81 90 81 63 71 80 81 86 86 88 75 72 78 64 63 56 67 68 69 70 75 77 81 95 81 84 96 94
82 78 77 72 72 61 64 68 77 80 83 82 79 85 88 89 95 83 66 63 76 88 89 88 81 70 62 64 59 56 56 63 72 72 73 69 73 89 94 86 92 92 95
76 76 75 75 74 66 67 69 70 73 82 83 83 87 89 92 91 88 78 69 73 70 65 60 59 59 64 64 64 64 65 69 72 71 69 64 70 85 90 88 90 91 90
77 75 76 80 76 73 74 74 73 67 79 82 85 88 82 83 91 84 82 69 68 65 64 64 64 65 66 67 64 63 68 66 70 66 62 64 71 84 82 85 85 92 98
85 76 76 80 78 78 80 81 80 73 65 76 81 80 77 77 89 90 80 65 64 63 66 66 65 67 71 69 62 64 61 58 62 63 60 59 58 76 79 82 92 91 91
88 82 72 75 78 79 84 85 85 83 72 63 73 73 72 80 82 88 81 69 61 63 64 66 69 73 71 74 62 60 53 50 51 52 53 52 48 65 77 94 89 84 85
64 80 78 76 76 76 85 83 88 87 82 64 58 65 69 82 88 80 83 74 63 64 66 72 73 70 60 59 53 45 45 44 44 41 39 39 39 69 90 88 85 82 80
55 58 75 79 76 78 78 84 83 84 81 76 59 51 67 75 85 81 66 58 63 63 72 74 72 63 57 45 42 42 40 38 35 31 33 34 31 70 86 82 78 72 70
54 54 58 71 73 75 80 80 78 77 74 75 72 62 61 73 72 69 61 66 68 70 74 67 62 60 49 42 36 29 24 26 27 27 33 35 40 80 80 74 67 64 63
48 53 52 61 67 72 74 74 70 73 71 70 71 64 61 62 58 56 62 68 71 72 68 62 60 51 48 44 34 26 24 25 24 28 32 36 38 50 64 65 60 57 56
28 47 52 52 61 66 71 70 70 73 68 71 66 64 61 60 58 58 66 65 68 65 63 57 49 46 42 34 27 24 23 22 23 28 31 37 35 34 32 34 42 46 48
26 29 51 54 54 61 65 71 72 77 73 70 65 63 61 60 62 65 63 66 66 67 59 50 46 38 32 26 22 20 22 23 26 28 32 36 36 34 34 32 30 36 38
22 24 38 53 54 56 62 68 74 78 78 74 67 63 62 61 64 64 65 68 63 53 48 46 39 34 26 22 19 19 20 23 32 29 32 34 33 31 29 28 29 24 27
19 21 24 36 52 53 59 63 66 70 80 73 68 62 64 62 69 67 69 65 57 50 47 44 34 25 23 19 19 22 26 26 33 29 32 32 28 29 29 28 26 25 24
19 19 21 28 42 57 72 82 86 80 73 85 74 60 66 65 68 71 71 65 53 50 45 38 28 26 21 17 21 23 28 29 34 30 31 32 30 30 29 27 25 24 23
21 20 22 27 28 47 59 66 81 83 79 84 82 67 68 69 73 76 72 61 50 47 40 29 27 27 26 16 19 34 40 31 28 32 35 36 28 27 24 25 24 24 26
23 23 23 25 31 31 39 70 76 87 85 91 90 74 74 74 79 80 68 54 47 45 35 28 27 27 27 24 18 26 41 42 36 25 37 31 26 25 26 25 26 26 27
18 19 21 24 27 32 33 41 67 82 94 91 89 81 81 83 84 76 62 48 38 34 28 27 26 27 26 26 25 21 21 25 33 28 24 25 26 25 25 22 23 27 28
18 17 18 22 24 30 35 38 50 82 88 87 89 84 82 75 73 60 58 49 41 37 32 28 24 23 25 23 28 28 27 29 29 38 44 37 26 23 21 25 23 24 28
23 22 19 21 28 28 35 45 59 75 85 93 86 79 69 68 64 61 53 44 41 36 32 26 24 21 21 21 23 23 25 30 37 38 49 48 43 33 33 25 29 32 31

GFSSE_925_rhum_054.txt.gz
RH
90 84 85 88 90 90 92 94 93 95 90 91 99 94 85 82 80 86 90 91 95 95 86 84 95 94 92 92 66 59 57 46 39 56 59 65 80 81 86 88 81 84 88
85 84 83 87 87 88 92 93 91 89 91 91 94 96 94 92 88 89 92 96 97 90 84 80 90 97 94 95 88 61 61 41 55 66 68 63 59 78 78 89 69 83 85
84 84 85 84 84 86 89 92 89 89 90 90 94 94 91 92 88 82 86 89 88 86 84 79 89 99 97 98 90 70 51 45 63 62 58 60 68 76 71 73 86 88 86
76 85 86 83 83 82 90 97 88 86 91 96 97 95 89 89 86 85 79 87 89 94 88 87 99 100 99 94 88 63 42 59 64 68 70 67 82 87 80 76 83 88 92
78 84 86 79 77 82 96 94 94 95 94 93 97 91 88 87 84 82 82 85 94 94 93 100 99 96 92 79 76 40 62 69 72 72 72 74 79 91 86 82 78 66 66
85 86 86 82 77 81 96 97 98 97 97 96 97 91 88 81 84 81 82 83 96 99 99 93 83 83 90 90 68 39 70 73 72 66 68 79 78 90 89 81 84 93 94
86 84 86 80 79 88 95 90 90 95 94 95 96 89 80 84 87 82 81 80 85 94 96 94 96 83 76 67 50 52 61 71 71 68 69 78 78 86 88 89 88 96 97
78 84 83 80 75 74 75 66 67 85 91 92 90 80 81 91 93 84 88 86 86 91 93 93 82 59 48 51 53 55 63 71 71 66 70 67 71 86 92 92 94 96 95
76 78 80 75 70 58 59 62 61 73 79 82 82 85 88 90 86 80 75 86 92 93 83 69 65 58 59 61 62 64 69 74 68 65 67 64 69 88 88 91 91 92 96
86 78 77 76 73 64 65 65 59 73 77 78 85 85 89 86 81 81 66 71 73 66 60 58 60 64 65 67 68 70 72 72 70 73 68 69 73 82 87 87 94 97 92
96 84 80 80 76 68 70 72 66 71 80 82 84 81 82 90 92 84 72 61 63 60 63 64 68 69 70 68 68 66 55 58 67 66 61 60 70 78 83 93 93 91 92
99 94 82 81 77 73 76 79 76 68 78 81 82 84 81 81 88 89 78 60 62 63 65 70 71 73 74 68 67 62 52 53 57 55 54 52 51 70 92 93 88 88 87
92 91 88 82 77 75 80 82 84 78 68 75 77 77 77 78 85 93 82 72 65 66 69 74 74 74 63 69 57 51 47 46 46 45 42 39 58 74 87 88 85 82 80
89 84 84 80 76 77 78 81 83 85 79 66 66 71 74 81 87 91 82 80 63 65 70 75 75 65 57 54 45 40 40 40 38 36 32 33 34 89 84 83 74 71 67
78 82 80 77 76 76 79 82 82 83 81 72 58 61 72 76 81 85 81 64 62 65 72 76 75 61 51 43 39 34 30 26 27 28 31 37 53 86 82 71 68 67 65
62 71 78 77 76 81 81 79 82 79 80 75 68 52 61 70 74 83 79 64 68 70 72 76 64 58 48 42 37 30 25 24 25 27 33 38 45 65 70 65 58 56 55
45 62 66 78 79 85 85 77 81 80 78 76 71 66 56 64 71 74 67 66 69 73 75 67 58 50 47 42 32 26 24 23 23 28 34 38 38 38 44 50 48 48 47
30 36 64 69 81 83 88 80 81 78 75 75 73 68 65 62 64 61 59 64 71 74 68 60 52 47 43 35 24 22 24 24 24 29 34 36 36 33 33 31 32 39 43
22 24 34 68 65 73 81 83 80 77 76 73 74 70 67 62 62 60 59 68 70 67 61 57 51 46 37 26 21 19 21 23 29 31 34 35 34 32 30 29 26 23 22
22 21 23 47 65 61 70 82 85 82 75 71 74 69 65 63 61 61 64 68 68 66 58 51 48 40 28 22 20 22 24 28 33 30 32 34 33 30 30 28 25 24 23
22 20 21 23 56 72 80 88 95 92 80 80 80 70 65 62 61 63 68 68 66 61 54 48 44 30 24 20 23 26 30 31 32 30 32 33 32 31 30 28 25 24 24
23 22 21 21 24 61 74 70 83 88 83 78 79 76 67 63 62 69 68 68 64 55 48 46 42 27 24 19 20 32 39 32 31 35 34 35 35 31 28 26 26 27 26
22 22 23 22 24 35 68 78 72 88 89 92 89 80 73 67 66 70 70 70 64 54 50 46 33 27 27 21 18 28 45 39 36 25 34 40 30 27 27 26 24 24 28
21 20 19 22 27 32 55 80 77 74 90 86 71 83 79 77 71 76 75 72 64 54 49 39 29 28 29 25 21 19 20 24 28 23 27 32 27 26 26 22 24 23 25
20 19 18 18 19 28 37 57 81 79 80 75 81 87 88 85 82 82 80 71 62 49 42 33 30 33 28 26 25 24 25 26 27 33 32 34 29 27 23 24 22 27 31
23 22 21 22 26 26 35 42 54 83 80 85 94 96 93 88 86 83 72 62 52 44 38 36 30 28 26 22 23 21 21 27 36 38 47 46 43 29 27 25 25 31 34

GFSSE_925_rhum_057.txt.gz
RH
82 86 81 88 89 91 90 91 90 93 91 93 100 89 81 73 72 79 73 74 72 79 88 92 92 90 92 90 84 65 57 44 49 57 60 71 82 82 88 90 81 88 82
79 83 83 86 87 88 89 89 90 86 85 88 98 98 96 88 90 92 95 96 95 91 84 89 95 93 94 93 88 70 54 51 65 64 61 56 64 78 86 85 80 83 88
83 85 83 84 86 86 88 90 88 84 82 88 92 94 95 91 90 91 94 95 86 74 79 83 95 97 96 98 86 66 50 64 61 57 58 69 77 76 73 91 85 90 85
81 87 84 85 82 88 86 86 87 86 89 92 95 92 94 93 89 84 88 87 83 76 80 85 92 94 99 87 78 50 62 62 68 71 65 78 90 85 76 77 83 87 88
85 84 86 82 86 88 90 90 90 92 94 97 98 92 92 91 90 81 84 87 86 83 82 89 98 99 89 76 59 53 68 72 74 73 74 80 81 86 81 86 82 70 64
88 84 85 80 83 85 86 88 90 91 91 96 97 90 92 89 85 84 85 94 94 86 93 98 92 84 74 74 61 71 74 74 70 70 78 81 82 93 84 85 89 93 93
92 85 83 80 79 87 89 90 92 97 93 93 97 94 88 85 84 84 84 93 96 99 98 91 80 74 71 75 66 67 72 72 69 69 75 77 91 93 96 94 96 96 97
85 89 83 80 79 90 98 94 94 96 94 95 97 92 84 89 82 74 82 81 95 98 96 88 85 84 70 67 69 67 69 73 68 69 66 70 75 90 90 95 95 93 97
87 88 83 78 79 84 94 79 80 90 90 91 93 84 86 88 75 75 87 87 91 96 97 89 74 64 66 66 65 67 70 74 68 70 70 77 72 86 91 90 94 98 99
89 85 80 79 77 70 67 63 66 80 88 89 84 79 82 77 75 69 70 87 95 93 79 74 68 68 68 68 71 74 74 71 68 72 73 75 76 86 86 93 97 96 96
97 87 82 81 76 62 63 65 63 73 74 83 83 80 80 77 78 77 61 67 71 68 67 68 69 70 73 73 72 70 62 65 72 69 65 68 79 84 89 95 92 92 92
100 100 91 82 76 64 65 66 63 72 73 80 88 87 88 89 89 84 73 62 62 62 69 72 72 74 75 73 68 59 54 61 68 60 56 54 67 83 94 91 90 89 88
100 100 98 82 79 71 71 70 66 65 78 80 83 84 82 87 90 92 84 66 68 70 73 77 76 76 75 75 60 56 52 54 53 50 45 50 66 91 84 88 84 81 77
99 99 90 83 83 78 74 74 73 66 70 78 81 84 85 83 83 94 90 73 64 69 74 76 76 75 64 73 51 46 43 42 41 39 35 32 49 90 85 80 74 70 69
100 98 88 84 84 81 81 77 77 77 70 62 71 78 81 81 82 89 92 85 71 69 72 77 78 66 55 52 43 39 35 31 29 29 30 45 80 89 81 73 70 68 62
92 94 90 87 83 82 82 78 78 78 77 72 63 60 71 76 80 86 87 85 78 68 71 77 80 63 51 41 36 33 29 26 26 28 32 42 55 70 72 65 59 58 55
67 83 92 87 83 84 82 80 80 78 78 77 75 67 54 70 75 79 82 84 69 70 72 79 80 60 47 41 38 33 26 24 24 28 35 38 45 48 53 54 52 51 51
33 58 68 86 91 84 88 83 84 83 83 79 77 73 64 52 67 73 80 83 69 73 76 79 69 54 44 41 34 25 23 24 24 28 35 37 36 34 35 33 32 38 40
25 26 47 73 87 90 92 87 83 84 89 82 78 73 70 61 56 69 73 75 70 73 77 75 61 51 44 39 25 20 22 24 26 31 36 36 35 34 32 28 27 23 22
27 25 25 46 67 78 91 96 97 98 94 89 80 74 70 70 64 64 68 64 67 74 74 65 55 46 44 31 22 22 23 27 30 32 37 37 35 31 30 29 26 24 23
27 28 26 25 37 78 96 100 100 100 99 96 87 78 72 72 69 64 65 62 70 71 68 59 49 46 38 25 23 27 30 32 33 32 35 35 34 33 31 30 26 25 25
25 26 26 28 27 55 85 91 95 93 95 84 86 81 80 74 72 66 64 64 68 70 64 56 50 43 27 23 24 30 42 35 37 36 35 36 35 35 33 28 26 26 25
25 24 23 24 28 31 67 86 92 94 93 100 100 90 80 78 72 68 64 63 68 69 64 55 49 47 29 23 22 30 47 42 39 30 36 40 39 34 30 27 26 25 25
23 21 21 21 22 29 40 86 90 86 88 92 73 69 77 80 75 71 68 68 70 69 62 57 49 43 30 25 24 24 23 25 32 25 30 39 34 30 28 25 24 23 26
24 22 21 21 24 29 36 72 85 87 81 74 78 75 82 85 83 79 75 76 74 65 60 58 50 38 30 30 25 24 24 24 22 28 30 33 32 29 28 25 26 26 30
26 23 21 20 20 21 26 50 77 85 85 83 88 93 87 89 88 87 83 83 76 68 62 58 47 36 33 32 28 23 20 26 33 34 43 43 41 27 25 26 28 29 33

GFSSE_925_rhum_060.txt.gz
RH
82 79 81 88 88 88 87 90 90 91 88 94 99 94 84 80 74 75 78 77 81 94 93 92 91 91 92 90 86 73 62 61 57 62 67 78 82 87 88 92 82 87 78
76 82 84 86 87 89 87 87 91 89 87 91 99 98 85 89 90 91 96 97 96 91 88 96 92 91 91 91 91 77 60 63 64 63 58 64 70 80 88 75 76 83 86
80 84 82 88 84 84 85 88 88 84 78 82 92 98 95 96 95 96 97 96 85 80 82 93 93 95 95 96 94 75 82 65 59 58 69 73 80 74 84 85 90 91 82
79 85 82 84 80 84 86 89 86 83 79 80 88 91 92 92 90 92 90 88 76 79 82 89 95 91 97 76 80 80 70 66 71 61 72 80 86 79 76 81 84 90 86
82 85 82 82 85 83 83 83 87 80 80 82 85 89 91 92 88 86 86 82 75 75 80 90 93 97 82 68 68 81 72 72 72 73 78 79 85 78 84 90 90 80 73
87 86 84 84 85 82 80 82 83 82 81 85 94 89 91 93 82 84 89 85 78 73 82 99 95 91 70 69 81 79 74 73 70 74 79 82 92 94 90 89 96 95 97
91 87 88 84 87 82 81 79 82 84 94 82 97 94 93 88 87 87 92 88 90 83 92 92 86 77 72 72 81 74 74 70 69 73 75 91 96 93 92 96 96 96 97
99 91 87 82 78 80 83 84 84 88 87 94 98 96 91 89 86 86 89 92 97 98 97 92 85 79 73 79 74 73 74 74 72 76 76 80 89 91 92 93 95 97 97
100 91 86 84 77 82 92 87 89 94 90 88 94 94 88 88 83 85 87 89 98 98 92 84 75 62 72 83 71 70 76 74 75 74 76 80 78 90 89 95 98 97 95
99 91 86 86 80 81 92 91 90 91 90 89 87 89 84 75 64 74 73 84 96 96 87 66 68 76 88 81 75 75 76 72 72 72 77 78 86 87 90 96 96 93 94
99 92 88 84 81 76 75 70 70 82 87 88 88 84 80 77 72 62 65 84 87 81 71 68 75 83 80 78 75 72 70 70 74 70 67 75 84 86 96 94 94 92 91
100 99 92 84 80 76 65 64 61 71 77 84 85 81 80 78 81 77 61 69 76 76 73 77 82 81 77 74 72 59 60 68 72 64 58 57 76 95 94 93 91 89 83
96 98 98 88 84 79 68 66 62 61 69 74 82 82 81 84 89 91 82 70 71 74 81 86 84 81 76 73 66 58 57 59 58 54 48 58 75 92 89 86 82 78 74
96 98 98 91 83 80 70 69 63 59 67 69 80 87 88 90 93 93 93 78 68 72 78 82 81 80 71 75 58 52 50 48 46 42 39 37 80 88 87 77 74 72 71
97 98 98 97 84 81 76 73 68 66 63 66 74 82 86 85 84 85 91 87 66 71 74 79 80 80 66 75 51 44 42 39 34 30 30 51 90 90 78 73 72 65 63
100 98 100 99 88 84 83 77 72 71 64 60 68 75 80 85 82 79 87 91 85 70 73 77 81 73 57 50 45 38 33 30 28 29 34 63 76 74 74 66 62 59 57
76 88 92 96 89 88 88 83 79 74 72 69 63 64 71 75 79 78 83 89 85 82 74 79 83 74 54 43 38 36 32 27 27 30 36 43 56 58 59 58 56 53 55
41 77 80 89 92 92 89 87 84 80 77 76 74 70 65 63 70 75 83 86 84 84 75 78 84 73 52 44 40 34 27 24 25 32 38 42 45 43 45 44 46 45 45
27 33 65 85 88 92 94 89 87 88 88 81 80 78 77 72 62 70 74 77 86 83 77 79 82 69 50 43 37 28 25 25 25 30 39 41 38 36 35 32 27 23 24
26 26 28 50 69 86 94 98 100 100 98 93 86 84 82 80 73 58 66 72 83 87 76 81 81 60 50 44 30 23 24 26 27 32 38 38 36 35 31 30 26 23 23
26 30 29 28 38 90 100 100 100 100 100 100 91 86 85 83 78 65 58 68 78 82 73 78 69 55 47 38 26 28 29 32 32 34 40 40 37 34 32 31 28 24 24
24 25 29 29 28 62 90 91 98 98 99 100 99 92 88 85 83 75 69 64 74 74 72 76 67 51 42 33 25 31 41 37 38 36 36 37 36 36 34 31 28 26 25
26 25 26 27 28 32 65 84 100 100 99 100 99 100 88 91 88 82 77 72 72 66 68 73 63 55 43 32 25 30 50 46 42 38 40 39 38 37 36 31 27 26 24
26 24 24 28 27 30 56 89 97 96 96 99 99 76 76 82 80 88 81 80 74 67 70 72 65 56 52 37 30 28 28 28 42 32 33 42 42 39 34 29 26 24 23
29 27 25 24 24 24 30 80 89 98 97 92 93 93 96 74 82 89 85 82 78 71 75 74 70 56 55 48 36 33 28 25 22 27 30 38 37 34 31 30 29 27 26
34 31 28 26 24 24 26 36 73 87 94 94 87 92 89 91 91 93 91 84 79 79 75 76 72 63 55 48 40 32 26 27 30 30 35 40 37 30 32 31 29 29 30

GFSSE_925_rhum_063.txt.gz
RH
77 72 84 86 89 84 86 89 90 90 87 95 100 96 84 81 80 80 78 79 82 95 90 91 89 90 90 86 82 78 79 73 67 59 59 75 87 88 92 79 81 72 84
72 86 81 87 88 85 85 86 87 88 84 90 95 100 96 94 92 87 88 84 79 91 96 93 89 90 89 92 80 78 80 63 58 54 58 60 72 87 85 71 73 80 83
75 88 92 83 84 83 85 88 89 87 81 87 92 99 98 98 98 98 98 97 93 90 86 94 90 91 94 87 77 86 76 56 55 64 67 75 70 80 86 80 92 85 80
86 96 98 85 81 82 86 88 83 79 75 80 86 93 98 96 96 98 96 85 79 80 82 92 95 96 96 67 75 80 65 68 59 72 86 87 78 79 81 81 86 91 84
96 88 95 82 81 82 86 84 81 73 74 76 81 86 87 92 92 90 86 79 74 77 79 93 92 92 85 58 72 77 70 70 71 75 76 81 82 80 90 94 90 79 87
96 94 88 82 81 78 76 81 82 75 75 77 79 84 87 91 86 87 87 78 74 78 77 87 99 88 75 66 88 82 73 70 73 76 81 87 90 91 91 96 96 92 96
91 87 90 86 81 77 72 77 74 78 79 79 81 88 91 91 86 90 86 80 76 80 97 98 87 89 75 67 85 75 72 70 72 74 88 90 93 90 92 94 97 97 98
99 93 97 86 82 82 78 76 75 79 78 83 94 95 94 90 89 90 88 91 86 83 98 89 84 82 63 64 76 74 72 70 73 72 76 89 90 91 89 94 97 95 93
99 94 95 93 84 75 76 78 81 85 86 89 92 92 92 90 88 90 88 94 97 98 91 85 83 71 71 70 64 72 75 72 74 74 82 88 89 88 93 96 84 88 94
99 91 88 84 78 78 83 82 86 87 86 90 83 89 88 80 74 86 75 92 96 97 91 82 74 84 89 69 70 74 78 75 74 74 81 83 88 87 96 96 92 89 92
98 94 87 84 84 80 81 86 88 92 88 88 87 88 84 77 80 79 74 83 91 95 83 76 86 93 79 76 75 75 77 74 75 72 72 81 86 96 94 95 90 91 88
99 99 98 91 88 86 86 89 85 88 92 90 90 90 81 76 69 60 69 78 78 72 74 80 88 82 78 75 74 64 67 72 73 67 64 74 88 94 94 93 91 85 81
96 100 100 99 91 89 83 80 74 75 79 85 88 84 79 78 82 79 65 77 87 76 90 92 86 82 78 74 69 59 62 67 64 57 52 57 94 93 89 86 81 77 76
93 96 96 97 93 87 79 72 66 68 72 72 79 81 78 82 84 88 83 68 70 70 78 85 83 80 79 75 63 57 56 55 52 47 46 59 92 92 84 77 76 74 72
91 94 97 99 98 88 83 71 67 64 65 59 70 77 79 81 86 90 92 88 68 72 77 80 81 79 71 74 61 50 47 45 43 37 31 38 92 89 78 75 71 66 68
92 93 95 98 98 91 88 78 70 66 62 58 65 71 81 83 82 85 90 94 82 70 74 78 79 80 66 73 55 46 40 36 31 30 44 89 89 77 75 69 64 60 61
83 93 97 99 99 98 90 84 77 72 68 62 64 68 74 78 84 82 81 88 92 79 73 79 83 80 63 54 46 39 35 34 30 32 46 68 80 67 65 62 60 59 57
36 73 89 96 98 99 93 88 86 82 77 72 67 65 69 74 77 83 82 82 89 89 81 78 83 84 63 50 42 39 35 30 30 33 42 53 58 57 55 53 55 49 50
28 28 45 78 94 96 93 96 90 90 85 79 77 72 69 68 67 76 79 77 86 92 90 78 82 84 68 50 43 38 31 26 26 30 40 45 46 43 40 36 30 25 25
27 27 28 45 69 88 100 100 100 100 96 94 84 82 80 77 73 70 70 74 83 94 94 83 83 81 68 51 40 34 28 27 26 30 39 44 39 37 36 31 27 23 21
30 29 28 30 35 85 100 99 100 100 100 100 96 91 85 83 81 82 75 66 75 85 92 82 85 78 60 47 36 30 29 30 30 33 41 44 40 38 34 32 29 25 24
29 28 28 30 29 55 92 98 99 100 99 99 100 99 96 89 87 86 84 69 65 80 92 88 82 75 54 46 38 40 38 39 39 36 41 44 42 38 35 32 30 28 25
30 28 26 26 28 31 68 96 100 99 99 98 99 99 100 92 87 86 86 80 62 73 84 87 79 76 54 44 34 36 45 42 41 42 39 40 39 37 36 34 32 28 26
31 30 29 28 29 31 36 95 98 94 92 93 98 100 100 100 94 92 89 89 80 71 78 81 77 74 65 50 35 31 33 33 38 40 38 44 42 40 38 36 32 28 26
34 32 29 28 28 32 35 71 89 91 90 89 94 100 100 100 100 98 97 92 87 82 76 78 77 73 67 61 47 40 38 30 26 32 39 41 42 43 40 35 31 28 27
41 38 37 32 29 28 30 35 86 95 96 100 94 99 100 100 100 100 100 100 96 89 84 78 77 76 68 63 58 50 42 33 38 33 35 38 41 40 37 34 33 31 29

GFSSE_925_rhum_066.txt.gz
RH
65 82 81 87 90 86 88 86 87 88 89 92 95 96 92 93 96 96 90 93 92 94 90 87 88 89 87 83 84 85 88 80 64 56 65 85 88 90 90 72 68 63 94
64 81 80 84 88 85 85 88 88 87 84 85 92 98 98 96 92 87 83 81 96 94 93 88 86 89 90 82 80 85 86 60 54 57 56 52 76 85 83 63 70 74 83
63 77 89 83 81 81 83 86 88 87 85 85 94 96 98 98 97 97 96 96 85 90 95 90 88 92 92 81 83 84 72 56 61 59 60 52 60 84 73 79 88 78 78
70 75 81 81 77 84 84 86 87 86 82 83 88 96 96 98 97 94 96 87 86 89 90 91 95 97 85 83 84 82 66 57 69 75 64 61 61 77 82 82 88 84 77
72 74 83 80 81 84 85 86 84 81 75 79 84 86 88 96 96 94 87 78 80 82 86 89 92 80 80 87 85 82 68 66 71 70 73 73 64 85 92 92 81 88 90
70 72 89 82 81 83 82 85 82 78 76 78 77 81 88 92 91 87 77 75 72 79 86 93 96 74 78 87 76 70 68 72 73 74 76 85 91 88 97 96 87 94 97
69 73 94 82 80 82 79 79 80 76 73 75 77 81 87 88 88 87 83 79 72 77 83 99 92 80 75 78 72 71 70 70 67 72 79 85 88 92 92 96 97 97 94
73 80 87 86 81 81 78 78 77 75 73 78 78 82 90 88 89 81 83 82 72 92 99 98 89 83 71 75 72 73 70 72 69 70 77 80 88 88 90 96 95 96 93
80 78 83 90 88 81 78 76 74 74 78 81 77 89 92 90 90 86 85 85 85 91 98 94 95 82 78 70 73 74 73 73 71 70 69 76 85 91 96 98 91 92 92
93 74 80 82 82 81 79 74 73 78 85 85 82 82 88 81 79 85 88 90 90 94 93 88 83 80 76 65 69 75 73 72 70 74 70 79 85 95 96 94 89 89 91
92 73 72 73 73 71 70 82 83 84 80 91 87 82 87 69 75 79 75 88 90 92 91 83 85 80 67 67 70 74 76 71 69 68 67 77 88 95 94 92 88 90 88
93 90 78 75 72 73 75 75 78 75 78 75 88 86 75 65 64 62 74 84 91 93 80 81 87 78 74 70 74 73 72 70 67 66 65 80 95 94 92 94 90 84 82
88 96 96 88 77 75 75 71 70 70 68 67 71 73 70 68 75 68 74 81 82 78 76 81 91 78 72 66 63 65 65 64 61 59 60 70 94 94 90 86 81 78 76
86 92 96 90 97 77 75 75 65 67 68 66 69 71 71 69 74 69 62 67 72 71 71 73 72 74 76 67 62 61 60 58 55 53 55 59 96 91 83 78 77 75 75
80 87 93 96 99 80 78 76 66 65 69 64 68 71 69 68 70 74 74 69 67 68 69 73 73 71 73 66 57 57 56 52 49 48 44 54 93 89 80 77 72 70 73
83 84 91 96 99 97 80 79 72 68 69 68 67 70 70 68 70 75 81 83 72 70 69 72 72 68 68 59 52 48 48 47 46 50 51 76 93 84 77 72 66 63 67
70 76 82 91 96 100 88 84 81 75 71 69 69 69 73 76 78 78 76 81 87 70 70 72 75 69 61 56 50 42 42 43 48 52 56 62 83 77 68 66 62 61 61
44 61 71 80 94 100 99 91 88 83 79 73 71 70 73 74 78 79 77 76 79 83 74 72 74 67 60 52 46 41 40 45 46 49 56 56 57 55 61 63 61 55 54
28 32 47 63 77 92 100 99 98 90 88 78 75 72 74 75 76 77 74 74 77 87 81 76 72 68 63 54 46 42 40 39 44 46 50 55 56 52 48 54 51 41 38
27 28 28 40 62 74 99 100 99 99 99 86 84 79 76 76 78 80 74 74 74 85 89 84 74 70 66 60 45 41 42 39 38 45 48 50 51 53 48 49 45 37 22
31 30 29 30 40 60 88 100 100 100 100 99 100 91 86 85 80 82 78 76 74 77 88 88 79 71 65 58 44 45 42 42 38 41 47 47 48 48 44 47 37 33 30
28 29 32 30 31 38 58 91 88 94 99 100 100 98 98 96 90 88 84 80 77 78 79 88 81 73 67 56 54 51 48 40 38 38 44 45 44 45 43 40 35 34 34
30 30 30 33 34 34 44 56 74 82 93 97 99 99 98 100 98 94 93 90 86 82 80 84 84 74 68 58 52 52 53 54 38 40 41 45 44 46 42 40 37 36 35
34 37 36 35 35 36 41 52 64 72 76 84 85 92 98 100 99 100 100 95 96 92 82 85 86 79 72 62 52 46 44 40 38 39 40 42 43 42 44 42 38 39 38
47 46 41 36 36 36 38 48 62 69 67 72 77 82 86 97 98 100 100 100 100 98 93 89 88 84 77 71 60 53 46 41 36 36 39 39 46 46 44 42 39 38 40
49 48 48 40 36 36 41 43 57 63 68 74 75 78 82 91 97 99 100 100 100 100 100 94 94 89 84 77 71 63 54 50 40 35 35 35 37 44 47 44 40 40 42

GFSSE_925_rhum_069.txt.gz
RH
53 86 85 74 84 84 85 83 80 81 85 87 87 92 92 90 90 92 91 87 88 93 88 84 89 90 85 86 88 91 80 61 48 48 56 80 90 87 60 67 66 82 97
55 83 83 76 87 85 82 85 85 84 84 87 91 94 94 95 96 97 93 87 93 93 89 89 89 87 83 81 83 83 58 47 47 44 51 49 67 80 61 67 66 80 86
59 77 90 81 82 85 85 86 86 85 84 82 83 94 97 96 95 90 91 90 92 93 89 85 90 93 86 85 86 84 77 56 49 53 51 50 70 78 83 76 73 80 77
58 74 79 81 81 85 86 87 87 85 83 82 84 96 94 91 92 89 93 92 92 90 88 94 96 88 86 85 84 80 59 61 69 66 54 53 67 84 83 83 83 67 67
58 65 78 77 79 84 83 86 86 84 80 78 81 89 94 92 96 92 86 82 80 89 87 92 90 74 81 83 90 66 62 66 67 63 65 71 71 90 97 85 92 94 88
55 60 75 77 82 84 82 84 85 82 75 76 76 79 84 94 93 85 82 80 78 84 82 93 83 71 76 81 78 68 68 68 67 64 73 88 94 93 97 90 96 97 99
52 78 89 79 83 83 83 85 81 77 77 75 77 82 86 90 88 89 83 74 73 77 88 96 80 73 86 83 71 69 65 68 64 70 82 86 88 89 93 96 96 95 94
54 80 90 85 80 81 80 79 80 79 74 75 77 81 88 88 88 82 86 72 77 82 96 98 87 77 83 76 69 68 66 67 59 62 81 82 86 89 95 95 94 93 93
58 79 86 85 86 82 80 78 81 78 74 80 78 81 86 85 73 84 91 77 88 95 94 94 83 77 69 65 68 68 66 69 64 62 73 80 88 95 97 96 94 91 90
62 64 79 79 78 83 79 78 74 76 76 80 77 78 86 75 66 81 83 83 84 89 93 90 84 74 65 60 70 71 68 67 64 65 69 72 89 96 94 92 88 91 91
70 57 66 76 74 69 66 78 75 77 82 88 86 77 83 70 71 64 82 82 82 88 88 83 77 75 66 59 66 73 68 67 60 61 69 67 94 95 94 90 90 89 87
83 59 56 57 57 56 56 76 75 79 84 85 92 83 73 57 59 56 74 84 86 88 88 80 76 67 65 72 70 69 71 62 60 62 69 66 94 94 94 92 87 84 81
83 78 63 55 56 55 58 59 63 61 64 63 70 79 65 55 61 62 73 83 90 90 89 84 87 83 71 59 60 62 59 58 57 57 62 69 95 94 92 85 81 80 78
80 84 85 64 57 56 58 59 55 57 59 56 58 62 61 58 63 55 60 66 70 72 65 72 72 67 65 61 55 55 56 55 54 52 56 61 95 92 85 79 78 76 78
67 80 88 82 72 60 59 62 55 54 56 55 56 59 59 59 60 58 54 56 61 60 58 64 62 62 65 61 53 54 54 54 51 47 46 52 95 88 81 78 74 74 77
65 63 84 92 88 81 61 64 62 57 56 56 55 60 60 58 58 60 63 60 58 57 58 60 62 62 61 60 53 52 52 50 48 46 44 67 96 88 80 76 69 68 71
64 67 71 82 88 93 76 68 66 63 60 60 58 59 61 59 60 60 63 71 71 61 58 60 61 61 59 57 51 47 46 45 46 49 49 70 89 87 76 70 67 64 66
49 57 61 67 80 92 96 73 69 69 66 63 61 60 62 60 62 66 66 65 74 73 62 60 62 64 59 56 52 47 44 44 46 48 50 50 70 72 72 67 64 63 61
30 38 50 60 69 81 90 93 77 72 68 67 64 63 62 64 64 68 68 66 64 70 70 64 63 64 59 56 52 47 42 44 47 45 46 49 51 52 57 62 61 56 51
27 27 28 37 53 66 76 90 94 89 75 72 68 66 64 64 66 68 68 66 65 67 74 71 66 65 61 59 53 46 46 43 42 44 45 46 49 54 49 52 55 48 35
24 25 25 26 29 46 56 92 96 100 95 90 75 69 70 68 68 71 71 68 68 67 77 78 72 68 66 62 57 46 46 45 43 41 45 45 46 52 49 45 50 40 35
24 26 27 26 26 28 41 64 90 94 97 99 99 90 85 76 75 74 74 74 70 70 69 82 79 76 68 65 57 53 61 50 45 42 41 44 44 47 46 43 46 35 32
24 24 25 26 27 27 28 37 70 74 76 89 96 97 99 97 85 84 78 79 76 73 72 74 81 79 73 66 58 59 68 66 47 42 39 44 43 44 44 42 41 35 34
31 32 32 31 30 31 31 32 37 56 64 70 78 86 93 96 97 95 91 86 87 83 78 75 78 83 76 70 62 60 57 45 55 53 42 40 43 42 45 41 39 37 37
46 46 42 36 34 32 33 35 37 45 52 60 61 67 72 84 91 98 99 95 95 88 89 85 81 83 80 72 66 61 55 51 43 45 51 45 41 42 42 44 41 39 40
48 46 44 37 34 33 34 36 38 45 52 60 60 63 64 69 81 90 97 99 96 99 94 96 91 92 87 80 71 67 60 61 57 52 59 50 48 46 45 45 43 40 39

GFSSE_925_rhum_072.txt.gz
RH
87 77 80 76 78 82 81 82 83 83 85 91 92 92 89 87 88 83 79 85 90 89 83 86 89 86 87 88 92 88 67 45 41 40 53 79 84 80 70 71 88 94 97
82 85 82 75 82 83 81 81 80 80 84 89 91 92 92 92 92 92 91 87 94 90 90 88 88 85 85 85 84 79 45 39 48 59 59 43 60 75 72 65 63 85 84
85 94 80 74 81 81 82 83 83 85 85 86 85 85 93 97 92 86 79 81 97 88 86 91 92 88 86 85 82 65 45 51 55 56 59 55 59 84 83 77 86 92 88
83 92 84 78 81 81 85 86 85 83 78 74 76 81 85 88 91 89 90 85 87 87 91 96 82 78 80 81 72 49 60 66 66 67 64 70 81 87 82 85 86 80 87
77 82 87 79 84 84 85 85 83 81 75 76 74 74 78 90 97 86 84 80 90 87 92 88 71 74 69 78 58 55 66 66 66 71 70 83 84 97 96 98 98 98 95
67 76 75 79 83 84 85 84 85 83 72 70 73 79 82 91 89 84 83 78 78 82 92 87 74 75 72 74 63 58 66 66 71 68 76 86 91 97 97 98 97 97 96
71 76 71 78 80 83 83 85 85 76 72 75 79 82 87 94 88 78 77 74 76 78 94 87 77 72 80 70 65 58 65 66 78 77 82 72 81 94 95 95 91 92 96
78 82 68 79 83 80 84 85 76 73 75 75 79 82 86 91 93 84 78 73 76 84 96 92 84 78 81 64 65 58 64 64 76 62 69 62 89 95 94 95 94 94 93
79 81 78 85 83 81 79 80 79 73 72 73 78 82 82 83 85 90 77 80 82 88 94 97 82 77 76 56 65 61 67 66 61 71 70 68 88 96 94 94 92 90 90
78 80 79 85 82 82 79 78 75 69 71 72 74 78 77 61 67 84 82 79 92 91 94 88 79 73 61 53 66 63 62 66 64 66 64 66 88 95 95 91 92 91 92
74 74 76 75 81 77 75 78 74 73 74 76 72 75 82 62 47 79 78 80 81 85 85 84 77 66 50 50 63 65 59 64 62 70 69 66 91 96 93 92 90 89 88
69 71 73 72 70 72 75 73 72 74 72 77 76 76 78 69 58 54 79 83 84 84 87 82 71 51 53 53 57 64 66 64 61 65 68 65 93 93 95 87 84 84 83
73 73 66 70 62 64 67 71 74 71 74 79 83 78 74 63 60 57 68 82 85 89 88 78 61 54 70 72 62 55 63 64 60 61 60 60 95 94 92 84 82 81 81
77 78 69 58 54 54 56 66 67 73 71 69 80 73 69 58 59 62 64 60 78 79 80 70 66 55 66 66 59 59 59 58 55 55 55 54 92 95 87 80 79 80 82
78 79 75 68 58 54 58 58 56 58 61 59 59 67 64 59 61 58 61 63 69 72 68 68 73 68 68 65 57 56 57 55 54 51 50 49 76 89 84 79 77 78 80
71 76 75 73 71 64 57 60 57 54 55 56 56 59 60 61 60 61 55 58 63 64 60 64 65 64 65 65 57 54 54 54 51 48 46 50 68 87 83 80 73 75 76
63 73 78 76 77 70 68 62 64 58 56 57 55 57 60 60 59 60 62 59 57 58 59 59 63 63 63 63 59 53 53 52 49 46 50 61 69 90 85 78 71 69 71
63 66 71 77 80 82 76 75 66 65 62 60 60 57 60 61 59 60 61 67 66 66 60 59 61 62 61 60 57 51 47 47 45 46 49 62 70 76 85 76 70 67 67
40 58 65 70 79 84 89 79 74 68 68 65 63 61 61 62 61 61 63 66 71 70 71 62 60 63 64 60 58 53 46 44 45 47 48 52 72 67 66 69 65 65 63
26 29 36 59 69 76 84 85 82 81 71 68 68 64 64 62 63 62 67 69 67 70 74 69 63 63 66 62 56 53 47 43 46 47 45 48 50 57 58 54 58 57 48
21 26 28 28 35 63 82 89 85 84 84 78 74 71 67 64 64 65 66 69 68 66 67 71 70 66 66 62 59 52 48 46 44 43 46 45 47 50 51 52 52 52 48
23 25 25 26 27 29 43 72 83 83 84 89 84 79 74 71 67 67 67 70 71 69 68 73 72 73 68 66 63 52 68 55 47 44 42 44 45 48 49 50 49 45 40
23 24 26 27 27 27 28 35 76 81 81 85 89 91 86 83 80 77 72 73 75 73 71 72 77 76 76 69 65 57 85 83 56 47 46 43 45 46 47 48 46 47 37
37 31 30 29 30 30 29 29 49 84 85 88 85 82 84 89 92 85 95 83 78 79 75 79 78 86 82 78 71 60 61 55 64 59 45 41 43 45 45 46 44 44 36
48 46 40 33 31 31 33 33 34 36 43 67 72 76 81 80 83 85 87 82 91 83 82 79 79 84 88 84 76 68 66 66 50 60 64 49 42 44 44 45 43 41 36
51 47 43 37 36 34 33 33 34 35 40 49 58 62 62 64 68 80 89 94 94 93 88 86 86 86 92 89 80 75 69 68 70 63 78 61 54 47 45 46 43 40 39

GFSSE_925_rhum_075.txt.gz
RH
87 86 82 81 80 80 82 81 82 85 86 90 90 90 89 89 80 80 88 95 87 84 80 88 86 86 88 90 84 48 38 38 48 45 62 76 84 89 91 81 91 97 97
81 89 83 80 82 83 83 83 83 86 87 88 90 91 91 92 95 96 91 95 91 91 88 88 87 86 82 80 68 43 46 58 60 57 38 43 62 85 75 61 80 85 84
80 91 82 76 80 82 81 80 81 81 84 85 83 89 94 96 86 81 94 97 95 86 90 90 89 86 83 79 47 50 54 55 62 66 71 58 72 87 89 79 88 92 92
77 90 80 78 79 80 80 80 81 83 83 75 72 75 77 85 85 83 92 94 86 95 96 87 82 81 78 56 52 67 71 75 80 69 74 88 85 87 92 94 90 96 95
83 88 85 79 83 81 83 82 81 79 72 74 72 76 76 92 91 83 85 92 85 91 84 71 70 75 62 46 63 68 69 68 76 81 86 87 91 98 99 99 94 97 98
82 81 86 83 85 84 82 80 78 77 70 73 73 75 77 88 88 85 67 73 83 92 86 73 68 69 55 49 61 68 70 70 78 70 78 81 94 98 98 97 96 94 96
83 80 84 85 83 83 82 83 79 77 72 73 76 82 89 92 83 68 75 76 78 91 90 80 70 69 54 52 60 67 70 80 76 73 68 69 92 94 92 93 88 96 95
80 75 81 85 82 80 83 86 78 74 72 74 79 87 95 92 77 82 70 76 78 94 90 94 75 70 56 58 53 66 70 77 71 65 65 68 91 94 89 90 88 89 92
76 72 75 82 83 81 85 84 76 69 74 75 79 82 73 80 82 72 76 75 84 93 91 88 76 71 56 56 55 64 66 71 73 68 66 68 90 94 90 93 92 91 93
77 70 76 84 83 80 81 77 73 69 69 74 79 82 72 66 82 80 83 78 82 88 96 82 75 68 50 52 57 64 66 69 74 66 65 66 91 95 94 93 92 92 91
82 77 76 78 82 78 74 75 71 72 70 73 73 75 81 58 81 80 83 85 86 87 87 82 76 67 47 47 58 56 66 66 71 69 67 68 92 95 94 92 91 90 88
89 85 74 71 78 71 72 72 72 74 72 73 72 74 74 58 49 78 78 80 83 82 84 83 76 61 44 44 54 55 65 68 72 68 69 70 92 92 94 87 87 85 86
80 77 71 69 69 71 74 72 72 74 72 72 74 76 73 66 62 56 78 82 83 84 87 84 73 46 50 56 52 53 66 67 72 64 65 66 85 92 93 86 84 84 83
76 78 78 70 70 73 76 75 72 73 71 75 75 76 73 76 64 62 64 74 81 83 87 82 65 45 67 69 65 57 61 64 66 61 60 57 73 95 90 84 82 83 85
69 74 78 77 73 71 72 71 66 70 72 74 78 77 66 74 61 60 61 62 63 69 70 67 58 48 64 70 67 59 60 60 57 56 55 55 64 85 87 82 81 83 84
63 63 70 72 68 62 60 62 64 70 71 70 68 70 66 68 59 60 59 61 62 66 64 66 67 70 68 67 65 58 58 56 55 52 50 50 53 74 83 82 78 79 80
75 64 60 66 68 70 61 59 56 57 60 60 58 64 67 65 60 60 58 59 60 65 66 64 67 68 70 68 65 58 56 56 54 52 48 47 59 70 78 82 77 78 78
69 75 72 62 65 68 71 70 64 59 56 55 56 56 59 61 62 61 62 58 58 62 61 61 64 64 66 65 64 61 54 54 54 51 47 55 62 70 80 83 76 74 74
62 66 77 74 66 62 68 72 76 71 61 61 59 58 57 59 62 61 60 62 65 61 62 60 60 61 64 64 62 62 52 50 49 47 47 51 64 70 73 76 76 69 71
42 64 67 75 76 74 65 66 76 78 66 65 64 63 63 60 60 62 60 61 63 70 70 68 64 61 62 65 62 60 56 49 45 45 47 50 57 70 70 68 72 67 58
22 32 60 58 74 81 83 81 73 79 71 69 68 68 66 64 63 62 62 62 65 69 71 73 73 64 64 66 66 59 56 50 46 44 46 48 50 56 68 67 58 58 57
24 26 28 28 43 76 77 81 80 72 75 74 72 80 73 69 65 64 64 63 65 70 70 70 75 71 66 67 65 61 67 56 47 45 44 47 46 50 52 56 56 54 54
25 24 25 27 27 28 52 81 86 86 82 75 73 73 81 84 83 72 68 66 66 69 70 70 70 75 76 73 66 62 85 82 66 50 48 44 45 46 52 52 54 54 51
36 33 28 27 30 30 30 35 78 82 88 78 69 58 52 65 79 83 82 83 76 72 73 73 72 73 83 84 79 65 60 62 70 68 51 50 46 45 49 52 51 51 49
45 42 37 31 29 29 31 33 36 67 86 81 79 77 80 76 74 67 69 74 87 94 84 83 85 87 91 92 83 79 74 71 61 69 79 64 51 52 58 55 51 51 51
52 48 48 38 39 36 32 30 32 35 36 38 49 82 84 78 80 77 79 81 84 89 92 91 94 98 94 92 95 89 80 79 83 75 85 75 70 65 66 63 56 57 44

GFSSE_925_rhum_078.txt.gz
RH
84 82 82 82 85 84 83 85 89 92 95 94 80 81 76 79 94 95 95 90 86 85 89 88 89 92 90 88 80 75 76 78 78 71 83 91 94 92 96 94 96 97 96
79 84 83 82 82 82 83 86 88 84 87 91 92 92 92 94 95 95 95 91 90 87 87 88 87 84 79 78 72 77 75 62 46 48 52 71 79 81 77 82 82 86 83
84 83 84 82 82 82 82 81 83 85 85 86 90 92 95 96 95 91 97 94 89 89 90 89 83 81 77 74 76 75 63 64 71 76 63 65 82 90 84 63 83 93 92
85 88 84 83 83 82 83 82 82 83 81 80 77 78 79 82 90 89 90 91 94 92 93 87 73 62 57 71 86 78 79 76 69 82 89 79 91 95 95 95 96 98 95
92 87 85 85 85 82 82 83 82 79 81 74 71 72 79 87 81 79 86 84 97 80 82 67 48 39 49 73 75 85 76 79 78 84 90 88 97 96 96 87 97 97 98
93 85 85 84 84 80 81 82 80 79 77 74 73 75 73 83 84 74 71 80 92 83 72 64 53 40 58 70 72 72 77 78 77 79 83 92 94 92 90 95 94 93 85
88 78 85 83 82 83 82 80 79 79 74 74 76 78 80 87 75 64 67 79 91 88 80 67 60 42 47 66 70 71 79 80 77 70 73 85 92 92 91 92 94 94 94
81 84 86 85 84 84 80 79 81 72 73 75 78 86 91 88 79 71 75 77 88 92 86 70 66 49 49 63 68 70 80 75 69 64 68 80 89 88 90 91 90 91 91
76 84 88 86 85 84 82 80 75 72 73 75 74 91 93 78 80 67 73 75 86 91 86 74 74 59 45 51 67 70 74 74 70 67 68 76 90 88 93 92 92 93 94
81 78 87 88 85 86 87 79 75 70 73 74 78 82 71 76 74 77 77 83 87 90 85 80 75 62 39 52 64 70 69 72 73 68 65 70 88 93 95 93 92 93 91
96 85 82 84 82 82 83 77 71 70 71 74 72 73 54 74 78 84 81 80 84 92 91 82 75 66 40 52 57 66 70 73 75 73 68 71 88 95 95 92 92 90 90
99 87 86 83 80 80 74 71 70 71 73 74 74 74 72 44 77 84 86 86 86 88 89 85 81 70 46 47 55 63 68 70 70 72 70 71 87 94 95 90 89 88 90
79 87 84 80 81 77 72 72 71 73 72 74 74 74 70 54 62 79 76 82 86 86 84 89 86 72 47 46 55 56 65 71 72 72 71 69 81 92 94 89 86 86 89
85 82 80 73 79 78 72 73 73 73 73 75 75 76 77 64 54 71 68 75 79 83 82 84 82 67 49 55 53 54 65 69 70 71 71 65 68 91 92 88 85 85 88
86 85 82 78 79 77 72 73 74 73 75 74 75 76 79 70 65 65 61 65 71 74 71 78 77 59 52 68 67 61 61 64 66 68 68 61 64 73 86 87 86 85 87
81 81 78 78 78 78 75 74 73 73 71 71 73 75 78 71 70 62 62 62 62 63 59 62 61 58 48 68 69 63 60 63 61 62 60 58 59 63 73 86 85 84 84
73 76 78 78 78 76 77 76 73 65 68 72 71 71 75 69 69 61 62 61 58 59 63 62 66 69 71 70 71 69 61 60 58 56 54 52 55 58 67 84 83 82 83
70 72 72 73 77 69 72 74 71 67 65 70 69 67 70 69 67 63 62 62 57 60 63 68 65 67 70 70 70 69 65 58 57 56 54 52 50 54 66 75 82 82 82
70 65 69 72 73 74 70 66 63 62 61 62 62 59 60 68 68 64 62 62 62 59 63 66 68 66 70 71 70 68 66 59 56 55 54 51 50 55 63 72 79 76 79
60 69 66 67 67 66 72 72 72 71 68 59 58 58 58 59 61 63 63 62 63 64 61 64 63 62 63 64 67 66 65 61 54 52 51 48 47 54 64 72 75 78 72
33 58 70 75 68 69 76 77 78 77 77 68 64 64 62 63 60 60 62 63 62 63 65 65 67 66 64 65 69 68 64 61 57 50 47 46 47 50 65 73 76 75 73
27 43 63 74 77 80 77 75 71 70 77 75 70 69 68 66 65 63 63 63 63 63 64 68 73 75 74 69 70 71 73 66 59 57 49 47 47 49 54 68 75 72 68
29 30 32 35 40 73 88 88 87 85 79 78 77 76 75 76 73 68 66 65 65 65 64 66 71 76 81 77 71 69 84 85 72 56 53 48 48 49 50 54 67 71 66
35 31 29 30 31 31 37 66 88 91 94 80 71 67 69 69 78 87 84 74 70 71 73 71 71 74 81 86 88 75 71 67 80 81 54 54 53 50 51 54 61 73 70
42 38 33 29 29 31 33 34 45 95 95 91 85 83 76 72 71 73 79 77 75 79 84 86 84 83 83 90 91 86 78 78 68 73 77 72 62 61 57 60 68 75 81
51 50 40 41 43 37 33 33 34 37 51 64 59 56 62 72 77 76 74 72 76 75 76 91 94 95 91 96 100 97 91 88 89 83 88 82 76 68 66 67 75 82 88

GFSSE_925_rhum_081.txt.gz
RH
90 87 83 86 86 77 72 80 81 78 72 70 71 71 79 93 95 95 93 87 91 90 90 91 93 92 88 82 80 83 84 90 90 89 90 91 94 98 100 94 92 92 89
88 87 83 84 86 89 88 87 88 87 82 85 92 92 93 96 96 94 92 89 88 88 89 87 84 82 80 79 85 83 76 53 45 62 70 72 74 87 88 81 79 84 86
91 88 83 84 84 84 85 88 90 89 89 88 91 93 95 95 92 95 95 90 88 90 90 83 82 78 80 84 84 83 75 75 65 60 63 73 81 86 68 72 86 93 91
91 88 85 83 83 84 84 85 84 83 84 87 89 94 94 95 90 94 95 93 91 92 88 78 79 82 86 89 88 77 66 69 85 80 74 92 95 96 98 97 97 96 96
89 87 86 83 82 82 83 84 83 83 83 78 75 79 94 96 88 81 89 98 82 70 60 47 51 78 92 87 78 74 74 77 84 87 94 96 94 96 92 93 93 95 96
93 87 85 84 83 82 80 81 82 82 77 76 77 88 89 89 83 74 79 96 78 64 62 45 44 69 77 78 74 74 79 78 82 86 94 91 83 84 93 94 92 85 89
93 84 84 86 83 80 80 81 82 82 80 78 79 81 80 86 78 57 73 92 88 69 68 57 40 65 71 73 74 76 79 81 82 87 87 84 88 89 92 93 90 92 87
99 86 86 86 84 82 82 80 83 84 78 76 79 82 85 86 66 59 70 86 92 81 74 70 45 49 68 71 72 77 79 75 67 68 71 81 88 92 92 92 92 91 93
98 90 88 87 86 84 81 82 86 78 74 74 76 82 92 72 77 76 72 83 96 91 82 73 61 45 58 68 71 78 76 71 68 68 70 76 85 93 94 94 94 94 95
96 94 89 86 86 86 84 83 80 75 72 71 61 78 85 83 80 75 71 78 92 92 84 74 72 53 55 62 70 74 76 74 72 73 72 72 79 93 95 92 94 93 94
100 100 91 87 87 85 84 80 76 73 71 70 63 59 51 74 74 79 78 85 90 92 89 80 78 66 46 61 68 73 73 77 76 74 75 76 85 96 96 92 92 91 92
100 100 100 90 85 84 87 81 76 76 73 74 74 68 42 69 76 82 82 84 87 92 91 82 80 76 57 53 62 72 73 76 76 76 73 77 86 95 93 87 85 90 91
98 100 100 91 84 83 87 79 78 75 73 76 75 73 69 55 80 86 84 85 83 86 86 84 83 76 60 42 57 64 70 71 71 74 74 78 82 93 84 83 86 90 92
97 92 95 85 84 86 84 71 74 74 75 76 76 76 73 61 65 78 82 79 85 85 84 83 83 79 58 45 46 58 63 69 73 73 74 76 77 87 91 90 88 87 90
91 84 85 87 85 86 81 72 73 74 75 74 77 78 78 75 48 57 66 65 72 80 78 77 79 79 59 48 57 56 58 63 67 67 72 72 77 78 82 87 88 87 88
86 82 80 82 83 86 79 73 74 74 75 75 76 78 78 79 68 61 60 60 69 70 71 68 67 72 60 50 66 68 64 63 64 65 68 68 71 75 72 84 89 87 87
84 82 85 81 78 84 80 75 75 75 75 76 75 77 79 79 74 69 64 64 64 63 65 63 65 67 68 53 62 68 69 63 62 62 62 63 62 68 67 75 88 87 87
84 86 84 84 82 78 80 77 75 76 76 74 72 72 76 79 74 71 68 62 63 61 61 62 66 67 70 72 73 73 72 70 63 60 59 58 57 58 60 63 74 87 86
76 81 83 84 84 80 79 77 77 78 76 70 70 71 70 75 76 71 70 63 64 62 60 63 68 70 67 67 69 69 71 71 68 60 58 56 56 55 54 55 65 76 81
72 75 75 76 78 82 74 79 82 77 71 65 65 68 65 66 68 72 71 67 64 65 63 62 66 69 71 68 70 71 71 72 69 64 59 57 55 54 53 55 63 74 80
71 69 71 74 77 80 84 82 80 82 79 70 62 64 61 60 60 65 69 67 65 66 66 64 64 67 68 70 73 72 71 70 68 65 60 56 54 52 51 54 62 69 78
46 67 69 69 79 81 78 78 80 78 76 74 69 63 62 62 62 62 63 62 64 66 67 67 69 68 70 72 73 78 80 70 66 66 65 60 54 50 51 54 62 71 77
30 38 61 74 73 74 70 83 86 86 84 78 79 78 75 74 69 67 67 65 65 67 68 67 71 75 82 81 82 77 84 88 80 63 59 59 59 54 53 54 63 78 88
35 34 35 40 46 53 74 87 88 88 89 80 80 78 75 75 77 80 78 75 70 70 71 69 72 75 80 90 91 88 79 78 82 84 60 55 54 55 55 50 52 57 74
41 35 32 30 31 33 34 44 77 93 92 88 87 87 83 82 82 83 84 83 82 84 81 79 80 82 86 95 92 92 91 93 84 81 86 79 68 64 62 61 58 61 67
52 43 43 40 39 34 32 33 35 46 68 90 93 92 84 79 78 78 78 80 81 84 83 85 86 94 97 99 99 99 96 93 96 94 94 85 82 75 72 68 64 67 75

GFSSE_925_rhum_084.txt.gz
RH
85 86 86 88 72 68 75 78 71 71 73 82 95 96 88 83 82 94 92 92 91 92 94 95 95 90 86 86 86 89 91 93 94 85 90 85 96 97 96 86 81 82 84
82 86 86 88 84 71 81 86 78 76 75 75 87 96 94 92 92 93 91 90 90 89 87 86 84 82 86 86 81 78 73 58 61 65 70 68 85 87 80 72 69 88 90
90 85 86 87 90 82 86 87 84 80 88 91 92 96 96 96 94 96 90 89 90 89 84 82 81 83 87 89 90 83 64 52 51 53 57 60 70 71 78 85 91 92 93
95 88 86 87 86 85 86 87 90 88 88 90 91 93 94 94 96 97 92 90 93 87 81 81 85 88 89 83 66 66 76 82 65 82 90 88 95 98 89 92 93 99 96
93 87 87 86 84 85 88 88 86 83 86 86 87 88 92 95 95 92 97 86 74 61 54 79 89 93 83 79 74 76 78 85 79 92 92 91 97 91 93 90 88 89 93
91 86 85 84 86 86 84 83 83 84 82 76 79 85 94 91 96 85 97 73 65 63 47 60 72 80 78 76 78 77 78 84 85 90 89 84 87 92 92 90 86 90 95
94 84 86 85 86 86 81 79 83 83 75 78 79 88 90 86 82 82 94 86 68 67 55 54 69 74 78 78 76 77 80 85 87 88 84 82 88 91 91 91 89 85 82
90 84 84 85 87 84 80 82 83 82 77 81 82 89 95 91 69 72 88 93 79 71 72 51 63 72 76 74 76 80 80 79 80 75 77 84 89 94 92 92 93 93 92
97 83 84 86 88 83 82 84 84 82 76 77 81 84 85 82 69 65 83 93 90 81 79 69 49 60 71 73 74 82 75 70 71 72 76 81 87 94 94 94 94 94 95
99 93 90 88 86 85 85 89 86 79 76 74 74 76 71 86 86 88 82 91 94 92 82 79 67 52 63 70 73 78 78 73 73 73 76 77 83 95 95 94 92 92 92
100 100 93 90 88 88 86 90 84 78 74 71 53 58 57 72 66 76 74 86 94 93 88 82 79 67 60 66 72 74 75 78 76 76 78 82 91 92 87 85 81 90 90
96 99 100 92 88 86 88 89 81 76 74 72 64 52 52 74 72 71 73 83 84 90 88 80 76 69 50 58 67 72 75 79 78 77 76 80 92 96 82 76 70 82 88
95 96 99 99 88 86 87 86 81 75 75 73 74 67 46 73 81 82 89 88 89 93 92 85 79 75 66 47 59 65 72 73 72 72 75 77 88 98 86 78 72 82 90
100 96 98 98 90 88 86 83 80 76 75 74 76 75 69 51 75 84 83 84 85 84 84 83 81 81 74 50 46 60 64 70 71 72 74 76 79 94 92 83 79 83 92
99 100 98 100 94 90 90 85 78 76 74 74 76 77 76 69 51 68 76 80 77 83 83 79 78 81 78 58 49 52 58 61 66 70 68 73 76 79 95 89 88 90 89
100 99 99 99 90 89 89 86 76 74 74 76 77 78 78 78 75 47 53 62 60 68 74 76 72 73 77 70 48 64 68 70 67 66 65 67 72 73 80 94 92 90 89
75 84 82 80 86 88 87 83 78 75 76 78 78 78 79 80 80 73 58 61 59 66 71 76 75 71 68 65 47 61 70 70 69 64 62 63 66 69 70 83 90 91 90
74 80 81 85 88 86 87 84 78 76 76 77 78 78 79 79 80 80 70 67 63 66 67 69 68 69 68 70 70 65 68 71 71 69 66 61 62 63 63 64 72 83 90
64 70 84 85 81 81 82 85 80 78 78 78 77 77 77 77 77 81 75 71 68 65 68 64 66 69 70 68 69 69 68 69 70 72 70 65 60 59 59 61 63 68 76
86 89 88 88 88 88 83 84 86 83 80 81 78 74 74 76 75 78 78 73 72 67 67 68 66 67 69 72 73 70 68 69 70 72 71 69 64 60 58 59 63 64 72
74 80 83 88 89 88 88 85 88 86 85 82 81 74 70 71 72 72 71 72 73 73 67 67 68 68 69 72 80 74 70 68 68 67 68 68 66 63 60 57 59 66 71
63 72 82 85 84 84 85 80 79 80 82 77 71 68 66 71 70 66 67 69 71 74 70 69 72 72 72 73 76 82 86 73 64 64 66 67 67 66 62 56 55 58 65
33 58 70 80 87 87 86 87 88 86 87 85 86 83 78 71 69 66 67 68 69 70 70 70 72 77 79 78 79 80 91 92 80 64 61 60 60 60 63 61 56 56 59
33 37 42 64 83 90 92 92 90 89 90 82 79 80 82 85 84 79 72 71 71 71 72 71 72 75 81 89 90 90 86 85 91 90 71 65 59 63 61 58 56 56 58
42 38 38 43 46 51 57 82 98 100 97 93 89 85 84 85 88 90 91 88 82 79 81 81 81 81 83 90 92 95 95 94 93 89 92 84 76 70 68 70 66 63 62
48 41 36 34 33 33 33 34 37 47 66 85 93 95 94 92 87 84 83 82 82 82 85 91 95 96 95 99 97 100 100 97 98 96 98 94 90 84 80 76 76 72 69

GFSSE_925_rhum_087.txt.gz
RH
83 90 82 85 92 90 75 73 77 89 95 95 100 94 88 94 96 93 91 86 84 90 96 96 94 91 90 91 92 93 93 94 82 84 85 89 88 94 87 73 72 76 84
83 95 91 81 89 91 93 81 74 74 88 97 100 96 95 93 92 90 91 91 91 89 87 86 86 90 85 80 78 84 78 56 66 64 70 83 83 75 68 66 81 88 85
92 98 95 81 89 91 93 84 74 75 78 89 94 97 96 95 93 91 90 90 89 86 84 83 88 90 91 90 89 82 63 48 49 51 53 79 85 87 84 86 88 94 87
97 99 98 88 88 88 89 89 79 82 84 84 89 93 95 96 96 91 92 93 86 83 82 87 89 89 86 81 82 84 67 69 88 86 90 97 95 85 95 98 97 97 95
99 99 96 89 87 85 85 86 85 86 86 87 88 87 90 96 98 95 95 87 73 76 87 92 94 94 84 76 80 80 82 88 87 88 88 88 90 94 94 94 95 91 97
100 98 92 86 83 86 87 88 86 84 86 86 85 85 92 93 92 98 75 68 61 50 80 92 90 77 73 89 84 78 83 89 84 81 86 87 89 90 89 89 90 92 92
99 97 92 85 84 84 89 83 84 86 77 81 79 90 94 89 83 96 83 68 68 54 60 77 78 74 73 74 77 78 84 87 86 84 86 90 90 90 90 91 90 87 83
99 97 96 85 86 84 83 84 83 76 80 78 81 84 96 87 75 86 94 76 72 69 60 73 74 75 74 76 79 80 80 79 74 75 81 89 86 92 91 94 94 92 88
97 88 97 90 86 85 84 84 84 80 86 81 81 82 82 86 65 76 94 89 80 83 74 64 74 74 74 74 81 78 72 70 71 72 81 87 90 94 94 93 93 93 94
94 94 86 88 94 96 87 87 82 80 75 76 78 78 74 63 67 72 94 86 90 86 84 74 62 69 74 73 77 81 76 72 73 73 76 89 94 95 93 93 90 89 90
96 98 90 88 91 87 90 88 84 78 76 77 76 72 66 55 67 65 86 90 91 91 82 81 68 52 58 67 70 71 73 74 73 74 77 82 96 95 81 69 66 76 85
96 95 99 93 89 90 90 91 84 79 76 72 56 52 50 70 70 72 74 87 85 92 91 85 82 71 52 61 70 72 72 75 75 75 77 80 95 96 80 72 65 70 74
93 95 96 100 92 97 97 89 84 78 74 73 65 49 50 71 72 72 78 86 85 91 91 87 82 80 72 53 61 66 72 74 74 73 76 78 85 96 87 77 68 70 74
90 90 92 99 95 96 88 88 82 76 75 73 73 67 44 64 76 81 87 88 88 89 91 87 84 82 80 71 48 56 64 67 71 73 74 77 80 94 97 84 76 76 86
93 89 90 91 99 97 91 87 82 77 75 73 75 74 70 50 61 78 82 83 83 83 83 81 78 77 79 79 58 52 54 59 63 67 70 69 77 80 93 94 87 86 88
91 94 96 93 96 98 93 89 83 78 75 75 76 75 76 74 68 56 73 76 75 68 75 79 75 70 73 78 73 52 62 66 70 67 66 65 68 75 77 96 95 93 91
94 98 98 99 99 98 93 91 86 79 76 75 77 78 78 79 78 77 55 54 58 60 68 72 74 72 68 68 63 50 58 69 70 71 68 65 63 66 70 74 96 93 93
72 72 87 73 96 95 92 89 88 82 79 77 77 79 79 80 80 80 77 62 61 64 69 71 73 72 69 66 65 68 68 69 73 73 73 71 66 63 65 67 70 88 92
59 60 61 69 71 80 87 88 88 82 81 80 80 80 79 79 80 81 81 74 71 70 68 71 68 70 69 70 68 68 68 67 68 69 69 71 70 67 63 63 65 71 79
61 62 69 73 73 72 75 83 92 90 86 84 82 81 78 77 78 80 79 78 76 76 73 69 70 69 71 72 73 72 71 70 69 68 68 68 70 71 67 62 61 65 73
78 85 65 61 65 69 85 92 96 95 88 84 82 81 81 77 78 79 77 78 80 79 74 71 70 72 73 72 79 79 70 68 68 66 64 64 66 68 68 66 63 60 62
60 64 63 83 84 76 96 94 92 89 88 84 81 83 82 79 76 78 82 80 78 82 80 77 74 74 76 75 79 84 74 72 65 62 59 57 62 65 66 67 64 60 61
26 54 69 71 85 92 96 96 91 88 89 88 88 85 76 75 71 70 74 74 72 75 79 79 76 74 84 79 80 78 90 88 76 64 64 62 63 64 62 59 61 61 58
27 30 49 69 83 86 91 94 92 90 90 84 81 78 78 81 86 77 72 71 71 73 75 74 75 76 82 91 87 86 82 84 90 84 72 70 69 68 72 68 64 62 61
34 35 40 48 74 90 98 98 96 96 95 94 93 90 87 86 89 92 92 88 82 77 78 78 79 80 82 88 90 91 93 96 96 95 96 87 79 74 73 78 76 73 72
41 42 41 44 51 57 64 77 91 97 98 99 100 99 97 96 94 91 92 95 95 95 91 88 88 90 89 91 93 92 94 96 98 98 97 94 92 86 84 81 81 79 76

GFSSE_925_rhum_090.txt.gz
RH
74 83 83 85 79 75 68 68 80 90 92 96 95 96 96 95 92 94 94 96 96 98 94 94 94 94 93 91 91 93 95 90 83 88 89 89 88 90 60 72 67 65 95
72 82 84 85 82 89 89 90 92 95 94 93 96 96 95 92 91 92 91 91 90 90 89 90 88 84 81 82 85 87 76 61 57 75 75 63 65 86 83 76 78 74 82
70 82 86 86 86 84 88 91 91 89 90 91 95 95 95 91 90 90 91 89 87 86 86 89 89 88 87 84 82 77 55 44 46 66 82 76 84 97 98 95 95 92 87
70 85 79 85 87 86 87 87 78 80 88 89 91 95 95 92 90 92 89 85 84 86 89 90 90 91 91 94 89 72 82 85 83 90 82 80 80 96 95 94 96 94 98
71 80 82 85 85 86 86 79 78 81 83 85 84 89 92 96 93 95 92 82 85 89 92 94 94 90 79 82 88 80 88 86 84 87 77 75 71 88 95 98 97 97 95
69 80 92 86 84 86 84 78 86 85 87 87 84 88 89 98 97 95 69 52 58 84 95 94 88 87 87 91 84 83 84 79 78 76 73 75 74 89 90 92 93 95 97
66 74 95 86 85 84 87 86 85 84 84 82 84 86 91 91 99 76 68 60 48 73 85 82 77 75 87 77 79 82 86 85 73 72 71 71 81 90 89 89 90 88 91
71 79 91 90 83 85 89 84 80 82 76 76 80 88 94 93 96 89 71 71 60 65 78 80 77 76 81 80 79 79 78 75 69 70 72 74 89 91 88 88 88 91 91
81 79 84 90 92 88 88 80 83 78 78 83 80 76 71 72 81 98 85 78 80 65 74 79 82 78 76 81 77 71 68 72 69 72 69 71 90 93 91 88 88 90 91
71 75 74 82 90 90 95 84 78 81 79 76 78 79 73 66 60 98 96 87 84 77 59 56 68 70 70 72 75 69 68 73 71 75 74 82 96 93 90 88 88 89 90
73 75 71 78 83 83 84 94 84 80 76 76 79 81 75 66 61 75 96 91 87 84 82 72 59 63 69 71 73 72 74 70 69 73 73 78 97 92 76 65 69 74 84
76 81 79 79 83 82 86 92 83 83 79 78 78 79 63 67 68 65 90 83 88 92 88 86 78 61 62 67 76 71 69 70 70 74 75 77 96 96 78 70 65 68 77
82 92 93 93 82 81 84 84 80 76 74 72 65 60 62 72 74 70 80 89 85 93 93 90 93 82 77 59 64 66 68 67 65 70 76 74 83 95 90 77 71 72 74
92 85 91 98 86 80 81 80 77 75 75 72 69 58 59 66 71 64 68 78 85 88 89 87 79 82 84 76 57 54 61 63 65 69 71 72 77 86 98 88 79 76 81
93 93 93 91 88 84 83 80 76 74 76 73 75 70 57 60 66 71 72 74 77 79 77 79 78 78 79 78 70 57 56 59 62 62 66 71 69 77 87 97 95 89 88
89 90 92 95 91 87 83 81 78 75 74 77 76 77 74 62 62 68 73 76 76 76 75 75 71 69 71 74 71 62 58 63 68 70 67 67 64 68 78 93 97 96 93
80 86 90 92 92 93 83 82 80 78 78 78 77 79 80 77 75 75 66 68 71 71 72 76 77 74 68 67 66 62 55 61 69 70 71 70 70 68 69 76 94 96 95
76 83 87 95 97 98 89 84 82 82 81 79 78 80 83 82 82 80 76 67 66 72 75 75 72 72 69 68 65 67 69 66 68 69 70 71 71 72 74 67 70 80 94
74 80 88 96 100 100 96 91 85 83 81 79 81 81 82 82 83 82 78 75 71 74 75 76 74 73 72 72 72 70 70 70 70 70 69 69 70 70 73 75 67 68 75
75 76 77 72 98 100 100 89 84 90 86 82 84 82 83 82 84 85 81 80 78 77 78 79 79 79 74 70 71 70 69 70 71 71 68 68 68 72 74 75 76 75 71
81 78 77 72 80 96 96 100 100 99 97 92 92 92 87 86 85 87 83 82 84 83 79 79 77 78 77 78 75 69 69 68 69 68 68 67 66 72 72 72 73 73 74
80 84 85 68 64 77 98 94 78 90 94 98 96 92 91 91 90 89 87 86 85 86 85 83 81 78 75 76 71 71 68 58 62 65 65 67 66 69 68 71 73 74 75
43 75 87 76 45 55 78 70 76 81 82 91 98 96 89 90 89 89 83 88 89 90 87 86 85 86 77 84 84 76 81 76 66 66 67 66 65 66 66 61 71 73 72
33 33 44 77 71 57 42 78 91 96 95 92 89 96 98 84 80 78 77 80 90 86 81 91 92 88 89 82 95 90 83 84 82 89 73 72 69 70 71 73 72 72 70
38 37 33 40 79 92 76 48 98 98 94 94 95 93 97 91 86 88 92 86 83 87 81 89 92 92 90 89 86 93 98 99 96 96 94 76 83 76 74 78 81 77 76
33 34 41 38 56 77 91 98 100 99 99 100 100 100 98 99 99 97 97 100 99 97 96 95 96 97 96 96 95 96 96 88 89 94 95 91 87 92 86 83 84 80 79

GFSSE_925_rhum_093.txt.gz
RH
66 86 81 87 84 89 85 84 91 92 98 98 96 95 94 94 97 98 98 99 96 97 92 95 92 90 88 89 91 95 90 86 85 78 60 58 78 88 76 63 62 82 97
64 82 83 88 83 74 72 72 83 91 93 94 96 94 91 90 93 94 94 94 93 92 89 88 84 81 83 84 86 86 55 63 66 70 77 77 90 96 89 75 71 79 88
64 76 92 88 84 73 77 86 89 88 89 92 95 93 90 89 90 91 90 89 88 88 88 86 85 84 82 82 81 68 40 67 81 82 69 79 91 93 96 96 96 98 96
62 73 81 83 85 84 89 90 88 87 87 86 91 94 89 89 90 88 86 87 88 89 90 91 93 96 95 88 80 79 77 85 76 79 68 68 74 96 98 97 97 99 95
64 66 79 84 83 86 87 84 82 84 84 84 85 88 90 93 94 88 84 88 92 91 93 94 94 94 95 86 90 82 80 74 68 65 72 68 70 91 96 95 97 98 96
64 63 80 84 85 86 83 76 80 81 85 85 87 88 91 96 97 83 73 87 86 90 94 95 89 89 91 86 83 77 77 74 67 63 64 73 81 87 89 95 94 96 98
60 80 85 84 84 85 79 80 86 83 82 80 84 85 96 98 77 68 54 72 91 94 95 94 91 90 81 81 83 82 79 68 62 62 66 75 88 84 83 86 90 96 97
59 85 83 87 84 86 85 85 85 83 78 72 77 88 89 99 80 71 68 59 85 94 94 92 82 91 77 79 79 78 66 66 60 65 73 84 91 87 83 85 87 88 90
63 78 79 88 90 87 91 84 84 78 76 76 75 63 62 87 98 77 75 69 64 78 73 71 69 72 72 70 65 63 64 66 66 66 64 81 89 90 84 77 72 69 71
75 75 72 77 86 89 97 82 82 78 74 74 72 72 70 57 97 91 80 77 67 56 63 68 69 70 72 74 66 64 64 67 65 66 75 88 92 90 79 75 78 84 82
72 77 72 74 78 82 82 92 84 84 80 76 80 78 67 68 78 84 92 78 76 70 58 54 58 66 67 67 67 63 68 63 61 65 75 73 91 85 70 66 68 68 75
66 73 74 75 77 80 84 90 90 92 85 79 81 80 62 53 55 80 88 80 81 82 80 74 60 50 64 67 67 60 66 60 61 65 76 69 87 89 74 67 63 61 73
73 78 70 76 75 80 84 79 84 76 67 64 62 62 51 56 64 78 88 83 83 85 95 88 76 79 63 52 55 57 58 56 56 61 71 68 75 98 86 76 70 69 70
75 79 74 79 80 74 76 75 81 68 60 60 55 48 53 57 60 56 68 86 82 87 88 80 70 68 73 65 50 47 51 53 56 58 66 67 68 78 98 90 80 76 76
85 74 76 75 81 74 71 73 76 64 62 62 60 50 47 54 55 52 57 66 69 70 75 70 66 65 68 66 62 49 47 50 53 56 58 65 64 68 79 99 92 84 83
91 88 79 77 73 71 75 74 72 66 64 64 65 62 52 49 53 59 61 63 64 66 65 65 63 62 62 63 60 57 49 52 56 60 62 64 65 63 69 78 98 97 94
81 88 88 88 84 75 74 74 71 69 64 66 65 67 67 60 57 60 58 62 63 62 60 63 64 64 58 56 57 54 50 48 58 63 65 65 65 69 66 68 81 97 97
66 77 83 87 86 79 76 73 75 72 69 70 66 67 73 70 70 70 67 59 59 62 64 65 64 63 60 60 58 58 62 58 58 60 63 66 67 68 70 71 68 81 90
62 66 74 83 85 84 82 82 77 74 72 66 65 66 71 71 72 73 70 66 59 64 67 69 66 64 63 65 66 65 65 66 65 65 66 64 66 69 71 70 73 72 73
64 64 72 79 88 91 91 92 86 80 77 68 66 71 71 70 73 75 72 71 68 67 69 70 70 69 69 65 64 65 65 65 66 67 66 65 64 67 72 74 75 77 74
65 64 68 78 82 91 94 99 94 87 85 80 76 80 77 73 74 77 75 72 73 73 71 71 72 73 74 76 72 70 68 67 68 67 67 65 61 66 70 69 71 71 71
67 70 70 65 75 92 98 99 96 93 95 92 88 90 90 86 82 79 79 78 75 76 77 75 74 75 76 72 73 67 73 63 64 64 62 62 63 65 67 69 70 70 72
67 71 71 61 62 79 93 86 94 91 91 99 98 96 78 82 89 91 88 84 82 81 81 82 81 80 76 74 76 74 81 79 65 62 63 64 64 64 67 66 68 72 74
42 69 72 71 79 73 83 92 90 79 68 65 59 56 78 77 80 97 99 95 87 89 90 88 86 84 87 83 84 84 79 78 80 79 72 71 69 68 72 74 74 78 78
38 45 49 54 72 81 72 70 80 61 61 61 56 80 84 84 68 64 68 96 94 89 92 91 92 92 91 88 84 88 90 89 95 91 92 79 83 79 76 77 82 83 81
43 48 50 51 64 79 91 58 57 53 54 65 74 68 58 54 93 94 100 83 99 96 91 91 93 94 92 88 88 88 91 95 96 94 93 86 83 89 86 84 85 86 86

GFSSE_925_rhum_096.txt.gz
RH
88 89 86 86 90 89 86 86 92 97 96 94 94 93 95 98 97 99 97 97 94 94 91 89 89 88 88 89 96 92 85 64 70 73 83 90 94 89 73 69 76 91 95
87 90 88 89 91 93 86 88 89 89 90 93 92 90 91 96 99 98 98 96 93 91 88 84 82 82 84 85 83 65 65 76 78 88 82 88 90 92 92 82 88 89 93
89 92 87 89 90 88 85 88 89 89 87 88 90 89 89 90 92 93 92 90 90 88 84 82 82 81 83 81 71 66 81 75 77 80 74 75 95 96 97 94 94 96 91
88 92 87 83 85 74 84 88 85 87 83 85 86 87 88 89 89 90 89 89 89 90 90 92 92 91 92 77 76 72 73 72 65 68 71 77 93 93 98 97 100 98 93
82 88 90 81 75 83 87 86 83 83 79 83 79 85 90 90 86 87 89 92 92 92 95 96 96 94 89 81 78 76 72 68 70 64 68 73 87 94 98 98 99 99 93
73 83 83 85 85 87 87 85 85 84 81 81 85 84 90 94 85 91 94 88 88 94 94 92 90 89 85 80 75 74 66 64 64 70 74 72 82 84 90 96 100 99 99
67 75 81 81 85 85 80 79 81 81 82 83 91 91 95 88 71 83 85 85 86 92 93 91 90 91 81 78 78 72 64 63 65 67 67 72 83 80 83 85 85 96 97
75 76 82 87 84 81 77 85 84 82 78 78 80 96 91 74 66 49 67 85 92 95 89 90 85 71 76 77 73 62 64 64 67 72 64 66 81 83 79 81 83 84 87
67 82 85 87 87 82 83 84 85 80 78 74 74 75 95 89 74 65 51 71 82 70 71 71 74 70 67 63 59 63 66 67 67 75 69 67 81 85 79 73 81 84 87
82 81 87 89 87 88 93 82 82 75 76 73 64 62 88 99 84 75 71 60 62 63 66 66 67 69 66 61 57 64 66 67 68 68 60 68 78 77 64 53 66 82 88
78 74 81 86 85 90 91 86 80 80 76 73 77 73 65 88 93 85 83 72 57 51 52 58 62 63 63 62 56 64 64 64 64 73 69 67 74 69 61 58 58 71 85
79 73 76 75 83 89 90 84 84 83 78 78 80 68 64 57 89 82 83 80 79 71 64 54 47 51 64 64 54 62 61 60 63 67 72 65 80 78 69 65 63 63 74
73 74 74 75 79 84 86 87 89 81 78 79 76 59 65 53 72 89 78 79 80 80 79 71 63 64 62 59 62 60 59 58 59 63 66 62 71 88 83 73 67 66 69
76 74 75 78 78 80 80 81 78 71 74 67 62 57 55 62 64 86 79 78 80 83 78 79 76 73 71 63 52 50 52 54 57 60 65 66 63 75 95 84 75 71 71
67 71 74 78 81 80 74 79 71 67 61 60 55 48 54 59 60 62 81 76 75 79 76 74 76 68 70 69 64 51 46 50 53 57 58 61 64 62 73 93 86 81 80
75 71 71 78 77 78 78 73 67 58 60 61 60 50 47 54 56 53 59 71 73 78 76 73 67 65 65 65 64 62 51 50 52 57 60 64 65 66 62 70 95 96 92
82 78 74 75 74 78 77 74 71 62 60 60 65 64 52 51 53 58 61 63 64 66 65 65 63 61 59 57 59 59 55 48 55 61 64 66 66 67 69 64 71 95 99
79 82 80 77 75 79 78 74 70 64 64 62 65 67 67 62 57 60 60 61 64 63 62 62 65 65 61 58 59 57 58 54 53 58 61 64 67 68 69 71 71 69 84
78 78 79 76 78 75 80 79 75 73 65 66 66 67 72 71 70 70 70 63 59 61 65 66 66 65 64 63 63 62 63 65 66 66 65 65 65 67 69 72 74 74 74
69 74 78 80 83 84 75 81 82 78 71 69 67 65 69 71 72 74 72 70 62 61 67 69 69 67 66 67 67 65 66 67 67 67 67 67 67 67 68 71 75 76 76
64 68 76 82 80 81 84 85 85 80 79 75 71 67 65 71 72 74 75 73 71 67 69 70 71 72 73 70 71 70 69 67 67 67 68 68 66 63 66 71 71 72 72
66 65 70 76 84 85 86 88 91 84 76 77 77 73 78 75 74 74 76 76 74 74 74 72 72 74 74 75 75 76 86 72 68 67 68 67 64 66 68 69 70 71 72
65 67 71 75 76 81 84 81 91 89 83 81 78 74 75 74 74 76 80 80 78 78 77 77 76 75 76 76 75 74 90 90 71 68 65 63 64 65 67 68 68 70 73
66 71 71 68 73 79 77 76 75 74 75 72 73 76 69 69 71 71 71 71 71 73 78 84 83 84 81 81 79 74 75 82 90 88 70 69 67 66 69 74 75 75 77
59 77 72 65 71 82 82 77 79 75 66 63 63 64 71 66 59 60 60 62 61 61 76 81 77 76 90 86 85 87 86 84 87 92 94 84 80 79 78 78 82 85 83
42 50 55 82 77 68 59 58 58 62 62 70 67 64 65 76 77 70 61 65 69 61 57 66 64 75 69 89 91 88 86 89 96 96 99 89 88 86 86 84 84 86 85

GFSSE_925_rhum_099.txt.gz
RH
86 86 82 85 80 88 91 94 97 94 94 93 93 97 95 95 94 94 95 95 90 90 89 89 87 87 91 97 95 87 81 87 81 82 86 82 89 88 86 80 83 94 97
88 87 86 87 88 85 89 91 96 90 89 90 90 96 99 99 99 99 97 95 92 89 86 83 83 85 86 74 65 75 75 79 79 79 79 89 92 95 96 92 86 94 97
90 87 86 87 86 83 87 90 88 86 86 86 88 90 96 98 97 94 92 90 88 85 82 82 83 81 70 72 80 74 76 84 84 80 92 98 97 97 96 90 88 89 92
90 89 88 88 88 86 88 88 83 84 84 84 87 89 90 91 90 90 90 89 88 89 90 89 92 76 72 80 77 72 71 72 71 70 73 85 88 94 95 95 95 97 97
96 92 91 90 81 82 85 84 80 83 76 80 82 88 88 89 88 90 91 91 93 94 93 95 96 85 80 75 74 71 74 68 64 56 55 68 85 96 99 99 95 89 87
95 88 88 79 79 86 84 86 82 83 81 78 86 83 86 88 90 91 94 88 80 83 93 93 98 86 78 73 67 68 70 68 62 46 54 73 81 85 90 95 94 97 96
92 86 77 78 86 86 85 85 80 81 85 83 88 95 88 89 92 94 90 85 91 88 90 89 89 77 76 72 66 67 68 65 58 46 58 73 82 82 84 88 92 94 94
85 86 85 85 86 84 80 81 81 80 83 91 91 88 86 87 94 94 85 86 89 91 90 92 78 77 75 69 64 64 67 72 71 50 51 62 82 83 83 85 88 88 89
79 80 86 87 85 78 82 82 80 78 76 82 96 86 70 58 55 78 84 90 82 80 91 76 71 68 64 57 66 67 69 73 69 56 52 59 80 84 83 85 87 88 89
76 81 89 88 83 82 85 85 81 73 74 75 88 96 87 73 57 48 62 62 64 66 67 67 62 58 54 52 66 68 69 77 72 69 55 60 74 87 80 84 87 88 87
87 78 88 90 86 88 87 84 80 74 71 63 65 91 97 84 74 67 50 47 54 59 59 58 59 58 56 51 64 65 67 72 72 72 66 63 71 73 64 61 67 76 89
94 90 84 90 90 92 88 82 72 77 68 74 69 62 80 88 84 81 76 63 53 48 46 47 52 51 58 53 61 63 63 68 64 65 67 60 71 75 67 64 61 65 73
86 89 80 86 90 91 87 82 79 78 75 78 72 59 58 82 87 88 79 81 79 72 66 54 42 61 61 62 60 61 60 61 64 64 66 64 65 78 77 70 66 64 64
81 79 82 77 91 86 84 80 79 77 78 77 58 66 72 74 85 81 77 76 80 78 75 71 73 71 66 63 54 53 54 56 58 64 63 66 62 69 77 81 74 69 66
79 78 76 78 85 84 79 73 70 72 80 75 58 62 63 60 74 81 79 75 76 78 75 74 79 78 73 68 59 50 47 51 55 57 58 62 64 63 70 83 84 80 75
75 74 75 80 76 75 73 63 64 70 72 65 55 53 58 59 62 70 76 76 74 76 75 74 76 72 71 69 68 65 56 46 51 55 58 62 67 67 67 72 97 94 91
71 68 72 80 80 78 74 62 62 68 64 61 58 47 50 57 58 59 67 73 74 77 78 77 70 66 64 62 64 62 60 51 52 57 62 66 67 68 69 69 71 93 99
65 69 75 75 82 79 77 65 65 69 60 63 65 62 47 51 55 59 64 73 69 70 68 66 66 65 62 59 57 57 57 54 50 58 62 63 66 67 69 71 73 73 84
64 68 75 78 79 80 75 69 65 66 62 64 65 67 64 55 54 57 62 62 65 65 64 63 65 66 66 62 62 62 62 63 64 63 62 65 66 67 68 70 73 77 77
79 65 68 69 78 82 80 75 69 67 65 62 65 66 68 68 68 65 65 64 61 61 64 66 68 67 67 67 67 67 66 66 67 68 68 68 68 69 69 71 69 75 76
79 78 76 76 75 77 85 83 79 76 69 69 67 70 68 71 72 72 73 72 70 61 62 66 69 71 70 69 70 70 69 67 65 66 68 68 69 66 69 71 72 74 73
77 76 74 71 74 82 77 84 84 82 81 72 75 72 71 73 72 73 74 74 73 69 66 70 71 73 73 74 74 79 89 75 69 69 70 70 71 69 70 70 71 72 72
71 76 70 71 72 72 81 77 82 83 86 86 82 81 76 74 77 79 79 74 76 74 74 74 74 74 74 75 77 74 93 93 80 73 75 69 67 68 68 69 70 71 73
68 69 72 70 65 74 70 78 79 78 83 76 80 77 81 78 78 82 85 81 82 84 80 79 76 79 79 84 85 81 80 79 88 85 73 70 68 68 69 69 71 74 75
67 69 73 74 76 76 81 78 75 73 72 73 79 74 69 67 67 63 64 77 76 75 76 75 69 70 71 89 89 87 89 87 87 89 92 86 77 77 77 79 80 79 82
77 78 78 76 79 78 79 75 77 76 76 77 83 83 76 72 73 71 72 70 73 70 66 64 63 62 66 72 84 77 73 90 96 95 98 93 91 86 84 86 86 84 83

GFSSE_925_rhum_102.txt.gz
RH
82 88 86 86 83 91 98 96 93 93 92 94 94 96 92 91 96 92 96 93 88 90 89 86 88 98 94 95 96 95 95 96 90 78 82 91 94 90 92 90 94 95 97
88 89 87 81 90 88 92 96 94 86 86 95 99 94 94 95 98 98 97 94 91 87 87 85 89 94 92 87 82 86 94 90 88 95 97 96 94 94 94 82 92 96 96
88 89 87 88 90 88 89 88 88 83 83 91 100 99 97 94 94 97 92 90 87 85 82 80 82 88 93 95 96 94 85 76 83 90 91 97 94 94 97 84 89 92 95
88 90 88 89 86 86 86 85 85 84 82 86 98 89 95 97 94 92 90 87 84 85 86 84 89 87 81 84 93 74 75 72 67 83 86 88 92 96 96 98 99 98 95
90 88 88 84 86 88 84 82 81 83 84 86 88 93 91 93 91 90 90 90 91 93 94 94 89 80 78 77 75 70 66 62 46 56 64 80 94 92 95 93 90 87 84
90 87 89 86 85 88 82 83 77 83 88 93 91 89 90 91 91 92 94 91 86 89 98 95 80 79 73 70 69 69 66 44 35 46 64 78 84 88 90 90 91 93 90
90 90 90 81 84 84 80 82 76 83 90 95 91 90 90 90 92 94 82 82 88 86 90 92 77 73 69 71 69 69 67 43 39 47 61 75 83 85 86 90 91 91 90
93 92 81 85 84 86 83 80 82 79 86 88 90 91 92 93 94 94 92 89 85 92 90 80 76 74 67 68 69 70 72 58 45 47 58 74 83 84 86 88 89 90 90
89 86 84 86 86 86 84 80 84 85 89 83 74 83 91 91 92 92 87 88 88 90 81 75 74 72 64 67 71 71 74 71 55 53 58 69 83 86 86 87 88 90 91
87 87 92 88 87 84 83 79 80 86 95 91 73 57 54 81 89 90 79 75 84 73 65 67 65 56 62 66 71 77 74 74 70 60 56 64 79 86 81 86 89 88 92
95 93 92 90 82 84 85 82 80 76 80 98 88 70 58 48 56 62 62 63 64 67 62 57 53 50 53 67 69 71 73 74 73 70 60 64 72 71 60 61 74 86 92
99 99 92 86 86 90 90 86 82 74 73 86 94 83 75 66 54 46 51 56 59 57 58 56 56 53 49 62 66 67 70 71 70 66 63 63 70 67 62 60 59 65 73
100 100 93 87 90 92 88 85 78 67 59 62 65 81 83 82 77 71 60 54 49 46 43 48 48 57 59 58 63 63 63 66 67 66 67 65 65 71 72 67 64 61 64
100 100 95 90 94 86 84 77 74 70 75 79 70 69 89 87 87 81 78 74 69 64 58 48 53 61 59 57 56 57 59 60 62 66 65 66 65 67 73 76 72 69 69
98 98 94 91 93 85 80 77 75 74 77 74 64 62 67 88 86 81 76 73 73 70 71 71 72 73 71 65 56 51 51 56 58 59 61 63 66 67 74 81 82 79 77
95 97 90 86 86 83 80 77 75 75 74 73 63 67 68 61 72 83 81 76 74 74 73 76 80 79 74 73 70 66 53 47 52 56 57 61 66 69 69 94 97 93 90
89 92 87 82 81 80 74 73 69 74 77 71 63 58 60 62 65 70 76 76 74 75 76 77 80 75 75 72 68 68 65 57 50 53 57 63 67 69 70 72 85 96 99
87 85 82 77 80 80 73 68 63 72 74 66 56 52 59 61 60 59 68 72 75 77 79 80 79 72 66 62 60 62 62 59 52 51 60 64 66 68 69 70 73 79 89
70 69 75 76 81 79 73 66 62 69 71 61 60 54 48 54 59 61 61 65 79 76 76 71 71 68 66 65 61 60 60 59 59 58 56 60 64 67 69 70 73 75 78
67 69 72 77 81 82 78 72 66 66 69 62 64 65 60 50 54 59 65 68 70 70 68 66 64 66 67 67 66 66 66 65 66 66 67 68 69 69 69 71 73 72 77
66 71 72 80 74 83 84 78 71 70 74 71 67 67 66 66 58 58 56 61 63 63 63 64 66 69 70 70 72 71 70 68 67 66 68 70 71 72 72 72 73 72 74
74 68 70 73 72 79 80 81 78 70 68 67 71 73 69 69 70 69 69 69 70 70 62 63 66 70 73 73 74 82 90 75 71 73 72 72 74 74 75 74 72 72 72
78 77 76 68 71 76 73 91 79 79 76 78 70 73 75 73 76 74 74 76 75 74 71 68 72 78 76 81 82 77 92 93 85 77 84 81 79 78 74 74 73 72 70
78 74 70 70 72 76 79 82 72 79 90 76 76 79 80 80 79 78 79 85 82 86 88 81 86 87 90 92 93 87 87 90 94 90 78 76 76 73 74 74 72 72 74
74 70 72 74 77 78 79 80 76 82 82 79 79 84 88 87 84 89 88 88 91 85 82 86 80 78 75 79 86 91 86 89 96 100 96 89 78 79 78 79 78 78 80
79 77 73 75 76 80 81 70 73 78 80 87 97 90 81 77 78 75 74 74 78 93 85 77 74 75 74 70 68 68 84 90 96 99 99 95 88 86 85 82 81 81 83

GFSSE_925_rhum_105.txt.gz
RH
83 83 88 89 90 97 94 93 96 91 89 91 94 94 92 92 94 97 94 90 92 89 88 90 87 87 92 94 94 96 95 96 95 93 93 86 93 98 97 90 89 94 96
83 89 88 88 91 95 94 91 89 89 93 98 93 96 95 98 100 98 96 94 90 86 84 90 87 92 95 96 95 95 96 92 94 96 94 90 88 91 94 90 88 95 98
92 90 90 88 89 92 94 95 79 92 95 94 94 94 97 99 98 96 93 89 87 85 86 90 93 95 96 96 95 94 87 88 88 92 88 90 92 94 98 87 86 95 97
92 92 90 90 87 90 96 95 91 95 94 92 96 97 95 95 95 92 90 86 85 83 86 95 96 92 95 76 81 76 72 81 84 84 89 90 91 92 95 89 95 89 90
95 92 91 90 85 88 92 88 85 89 98 95 89 86 92 96 94 91 88 89 89 89 97 97 89 89 79 75 70 64 62 51 67 68 83 91 89 83 85 89 86 83 78
94 89 92 87 86 84 84 84 83 92 95 90 86 89 90 94 92 91 93 94 87 91 90 92 84 74 74 72 69 54 36 33 36 49 65 78 88 87 89 90 86 84 82
96 90 86 86 86 79 81 83 86 90 95 97 92 94 94 92 92 94 94 77 79 91 94 90 78 71 72 69 66 53 37 36 40 52 67 78 86 88 88 89 89 90 89
88 88 86 85 86 81 77 80 82 88 92 92 90 92 91 92 94 95 84 84 86 93 91 78 72 71 70 68 70 64 48 43 45 49 58 71 85 87 87 87 90 91 90
86 89 85 86 84 82 82 74 85 85 86 86 87 88 88 88 93 86 86 85 91 96 83 76 72 70 70 68 70 71 66 54 50 55 57 69 84 86 87 88 91 90 91
90 90 89 87 87 84 86 78 85 88 76 76 85 86 91 88 91 91 84 87 88 82 75 74 72 68 72 70 71 72 72 69 63 56 57 65 79 83 85 90 89 91 93
99 85 93 90 88 84 86 86 89 93 78 63 57 81 89 85 79 84 80 82 66 68 71 70 63 63 71 74 74 74 74 73 71 62 59 63 70 73 70 80 82 90 93
100 99 92 90 87 87 88 90 93 99 89 71 54 48 64 70 69 65 64 65 65 62 59 56 54 55 68 71 72 72 73 73 72 68 65 66 75 68 62 60 62 74 88
95 100 95 92 86 90 92 90 89 88 95 87 70 59 47 52 59 60 62 64 64 64 62 62 58 54 57 67 68 68 69 73 71 70 70 69 73 77 71 66 64 65 68
98 100 100 90 92 93 89 88 78 79 83 91 86 76 70 66 59 54 51 53 52 52 53 54 51 60 59 62 64 62 63 66 68 69 69 69 73 79 80 76 72 70 70
97 100 99 87 98 92 86 84 78 66 68 73 85 88 81 78 75 72 65 62 60 59 55 47 54 61 60 59 56 55 52 58 62 66 66 66 69 75 82 83 81 81 80
94 99 100 90 91 91 85 81 73 68 76 76 70 74 87 82 79 76 74 72 74 70 71 71 70 74 76 73 65 63 58 50 53 57 61 62 67 72 75 91 94 91 93
96 100 100 100 90 87 81 76 74 70 79 73 60 56 61 69 77 79 79 79 74 75 77 79 82 82 80 77 74 73 70 63 52 51 55 59 66 70 71 73 92 95 99
94 100 100 100 94 82 80 77 76 74 76 69 63 65 66 62 63 70 78 76 75 77 80 80 81 82 76 73 69 65 67 65 62 52 54 60 66 68 70 71 74 78 82
88 87 92 97 96 87 81 77 74 72 74 70 66 61 61 60 63 66 68 68 74 78 80 81 82 81 72 68 66 64 61 61 60 57 54 58 61 65 68 70 72 74 77
94 71 88 99 93 85 80 81 81 75 77 76 68 57 56 58 61 64 64 64 66 79 82 82 79 75 71 68 68 66 65 66 66 65 67 67 68 70 70 68 71 73 73
69 71 82 82 98 96 85 92 88 82 80 74 68 55 52 51 52 56 61 65 70 78 72 73 69 70 68 70 72 71 70 68 69 70 71 71 73 74 73 74 72 74 73
81 68 69 70 81 81 91 88 90 78 75 70 64 64 66 58 59 55 56 62 66 67 68 68 68 66 68 73 75 82 90 75 76 78 76 75 76 78 78 78 80 78 74
93 83 68 68 67 74 78 95 82 86 83 78 72 68 70 69 68 65 66 70 73 74 71 66 67 72 73 80 82 80 94 93 90 80 82 88 83 81 83 80 78 76 76
66 65 70 65 67 70 64 72 81 76 82 71 81 76 78 76 71 73 75 76 79 79 78 75 73 81 88 92 96 95 95 95 96 95 86 81 82 80 78 77 78 74 72
72 73 66 71 68 78 67 68 72 75 71 65 68 85 84 82 86 85 83 91 91 94 87 82 91 100 91 95 99 96 100 100 100 99 97 93 84 83 75 81 78 73 77
80 82 82 74 74 69 82 84 69 80 74 82 84 92 90 91 88 90 87 85 90 86 84 86 86 82 90 87 90 90 88 88 98 100 99 97 89 82 80 86 83 83 82

GFSSE_925_rhum_108.txt.gz
RH
85 85 92 91 97 90 74 73 87 88 92 93 94 97 94 91 96 95 84 86 84 87 82 82 87 91 94 91 94 96 97 94 92 87 80 90 96 99 97 92 91 93 94
82 87 90 92 89 88 96 80 80 80 81 84 89 96 95 99 100 98 94 91 88 88 83 82 91 95 93 95 95 98 97 93 90 88 82 67 71 90 96 92 94 94 96
86 91 92 90 91 88 96 76 90 89 80 83 86 94 98 98 94 94 91 87 84 87 84 87 94 96 96 94 95 97 91 91 89 91 90 96 94 93 95 92 95 96 96
90 93 94 90 92 94 90 73 94 94 91 90 90 92 93 94 95 92 89 86 84 88 88 95 94 93 94 94 85 81 84 85 88 85 83 83 85 83 81 91 94 93 92
95 91 92 90 89 90 81 72 95 94 93 93 94 95 88 95 93 91 88 87 88 86 87 91 93 81 73 70 69 61 67 70 76 72 80 80 84 87 89 86 83 83 86
99 88 92 89 84 87 72 75 96 95 96 94 90 84 90 94 92 91 91 86 86 86 87 86 77 74 69 62 45 36 36 36 37 47 66 84 89 89 90 90 90 89 88
99 93 93 86 82 76 82 82 92 96 95 87 82 85 93 93 93 94 94 77 88 86 91 76 73 72 66 55 39 37 37 38 42 51 65 82 88 88 89 90 91 89 88
100 98 91 86 80 84 84 84 84 95 94 84 83 91 96 94 94 94 94 89 87 88 90 74 72 70 66 65 49 43 43 44 48 55 66 78 89 87 88 90 91 90 90
100 93 91 85 78 79 84 85 84 88 92 89 92 91 91 90 92 94 88 90 88 90 90 73 71 70 68 71 67 58 53 53 53 60 66 78 88 90 90 92 91 91 90
98 91 90 85 84 78 81 82 84 84 86 90 87 87 84 92 87 84 84 90 94 92 87 75 71 70 70 71 72 71 68 64 57 62 66 78 92 92 92 92 93 94 94
92 89 87 87 87 80 78 87 81 76 85 85 85 85 86 94 92 89 88 93 94 88 80 78 72 74 73 74 75 75 73 72 65 65 70 77 87 84 79 82 92 94 94
100 90 88 88 88 87 81 95 88 80 80 84 88 85 79 90 91 84 84 80 79 76 75 75 66 72 73 74 74 74 75 73 71 70 71 77 86 80 67 64 70 82 91
100 100 93 88 84 91 92 99 98 85 71 70 77 78 71 73 83 79 77 73 71 70 64 59 57 64 72 72 71 70 72 72 71 71 73 78 84 82 73 70 68 68 77
96 100 98 88 84 87 99 98 99 94 75 63 62 69 69 71 69 66 65 67 65 63 60 59 58 56 61 68 68 66 64 69 70 71 71 72 80 84 79 78 75 74 72
85 83 100 89 86 88 89 90 94 96 87 72 62 56 53 59 63 61 60 58 57 55 53 53 51 60 62 63 63 60 56 60 62 66 69 69 72 80 83 84 81 80 80
88 80 99 91 82 85 90 91 88 86 90 89 77 70 62 52 49 48 49 49 50 51 53 51 52 62 71 69 68 61 60 53 56 60 64 65 67 72 77 93 94 92 95
80 57 98 98 87 85 88 88 84 83 86 92 90 85 79 74 70 68 69 69 69 70 74 78 79 81 82 80 75 74 74 71 61 52 56 61 65 70 74 75 89 91 96
87 98 100 99 99 89 85 85 82 69 66 71 76 79 84 82 77 75 74 76 76 78 79 79 82 84 82 76 75 72 67 69 67 63 54 57 63 68 71 73 74 79 83
87 97 100 97 100 93 93 80 80 68 75 79 74 60 62 66 71 73 74 73 79 80 81 82 83 84 82 76 70 66 66 63 62 62 59 55 58 64 67 70 72 74 76
96 98 100 99 96 99 98 93 82 80 77 77 67 63 67 69 67 69 70 71 77 81 81 82 83 84 81 72 71 70 67 65 65 66 65 68 68 67 70 70 69 73 75
74 98 100 100 100 100 100 100 97 90 87 84 78 68 64 64 64 65 66 67 72 70 71 80 82 82 76 73 76 72 68 72 72 73 73 73 74 75 75 74 75 77 77
68 89 96 100 100 100 100 94 94 93 84 82 80 76 65 58 60 61 60 62 66 68 75 82 80 75 75 76 80 83 88 80 81 80 78 75 75 76 78 81 84 82 77
80 80 94 98 94 100 100 100 97 96 94 88 81 73 68 62 57 56 58 62 64 70 75 74 74 76 78 82 85 90 95 94 92 81 79 86 84 82 85 87 89 85 80
84 79 72 87 99 94 94 80 74 82 93 89 83 71 68 75 70 65 65 69 73 79 82 80 82 80 82 90 99 95 95 99 98 96 88 85 84 84 86 85 84 83 80
98 91 84 96 100 98 86 76 59 88 88 82 86 81 80 80 79 77 81 86 95 96 94 89 86 82 81 90 90 89 100 100 100 100 98 96 88 86 86 84 87 89 82
87 68 69 80 91 93 96 96 94 87 74 82 89 75 81 87 84 93 88 89 79 88 100 100 93 91 92 93 98 95 94 93 97 100 100 97 93 86 86 87 87 90 82

GFSSE_925_rhum_111.txt.gz
RH
90 93 90 90 98 99 96 90 65 85 86 84 91 94 88 90 83 82 81 76 82 85 92 91 88 88 86 94 98 96 98 93 78 83 86 91 91 97 97 88 89 90 94
90 95 91 96 99 97 91 92 79 82 86 86 87 98 95 94 95 84 85 84 79 75 84 87 90 92 94 97 98 97 96 92 83 77 73 79 86 90 96 89 88 97 94
93 97 98 94 94 92 91 82 78 79 83 84 88 92 94 95 94 93 87 85 78 81 92 95 94 90 96 98 99 98 92 89 87 89 92 93 98 96 97 92 92 96 90
96 98 99 90 84 77 59 79 79 79 82 86 87 88 90 96 94 91 86 84 76 79 93 96 96 93 91 91 92 91 89 86 75 76 80 82 78 86 85 87 89 90 85
98 99 100 86 83 64 68 89 83 79 81 86 89 92 91 92 93 89 84 85 80 82 86 89 94 86 72 66 65 75 82 82 72 73 84 87 80 88 89 88 86 86 86
100 100 94 87 82 58 90 91 91 86 89 92 93 90 88 93 91 88 84 79 82 83 90 92 71 66 52 47 47 51 49 47 50 68 86 87 83 87 87 88 89 87 86
100 100 99 87 85 63 94 92 92 93 92 92 89 85 93 92 91 92 82 82 85 85 80 93 73 60 40 40 41 44 46 46 54 80 86 86 85 88 89 89 88 87 87
100 100 100 86 87 64 88 93 94 94 92 90 83 88 95 94 93 93 82 86 87 79 84 90 70 64 44 42 44 46 48 50 56 76 87 86 90 90 90 90 90 89 88
99 100 100 97 87 75 69 96 94 94 92 84 79 89 92 89 91 93 88 86 87 86 79 79 71 69 60 53 52 52 54 56 58 78 85 85 91 92 92 92 92 90 89
100 100 100 99 98 97 81 86 95 93 88 77 85 93 88 89 94 90 87 84 84 81 73 73 71 70 71 70 68 66 60 58 60 65 88 88 94 93 93 94 94 93 92
100 100 99 98 99 98 95 84 88 92 89 88 91 90 90 94 96 90 93 84 87 84 73 71 70 70 71 74 74 71 68 61 62 67 88 85 95 93 83 91 96 94 94
100 100 100 97 97 97 95 89 93 93 96 96 95 93 96 94 96 95 92 90 89 85 78 72 72 72 73 75 75 74 71 69 68 68 84 86 90 79 65 62 71 78 90
99 100 100 96 98 95 92 88 92 89 89 87 85 88 96 97 94 94 96 95 92 85 84 69 71 72 73 72 72 73 73 72 71 71 74 84 91 83 70 68 66 67 76
98 99 100 100 98 98 99 95 94 86 88 90 86 84 97 98 93 91 89 88 80 77 71 62 61 67 71 71 69 67 66 70 71 72 74 77 88 87 80 76 74 76 77
97 100 100 98 97 96 100 99 96 95 83 84 88 82 87 92 87 82 74 70 66 62 58 58 59 59 64 68 67 64 59 63 63 68 70 71 76 85 86 82 82 84 83
88 99 100 97 99 98 100 100 100 94 73 72 82 81 72 68 65 64 64 62 59 58 57 55 53 61 64 66 66 60 58 53 56 60 65 67 69 75 86 94 96 94 93
91 98 100 97 86 87 92 97 99 98 78 66 58 61 64 59 57 57 54 52 47 47 50 53 53 65 76 80 78 75 74 73 65 55 54 63 63 68 73 76 87 90 91
92 99 100 100 84 86 82 82 88 90 92 86 71 65 60 53 49 48 48 51 60 68 72 74 77 82 83 79 77 75 71 70 69 67 57 55 60 66 70 73 74 78 80
92 95 99 85 83 88 88 88 83 82 86 88 90 84 79 77 73 69 68 69 75 78 79 78 80 83 82 81 75 70 66 67 64 62 62 59 55 62 66 68 71 74 78
88 98 99 88 95 93 97 98 90 83 77 74 77 80 82 86 84 84 79 80 84 83 83 84 84 85 85 80 74 72 71 69 68 68 67 62 65 64 63 69 70 74 76
94 97 99 100 100 100 100 100 100 95 75 76 78 75 72 71 77 80 81 84 85 84 83 85 88 88 87 80 75 73 72 74 75 78 76 73 73 72 73 73 75 77 78
85 91 99 100 100 100 100 100 100 99 88 75 80 74 64 68 71 71 69 72 78 81 84 87 89 88 80 75 79 80 79 80 81 78 79 80 79 79 79 78 83 85 86
90 94 97 100 100 100 100 100 98 99 96 94 86 81 74 70 70 70 68 70 76 82 79 80 89 84 76 78 81 81 92 92 95 88 81 86 90 87 86 86 89 93 93
84 87 90 98 96 99 100 100 99 97 95 94 92 85 83 81 69 71 74 77 77 85 89 86 81 80 77 86 93 89 88 91 96 93 92 86 86 88 90 88 87 89 90
99 97 100 98 91 96 100 100 100 100 96 86 93 90 85 82 70 73 74 80 85 83 80 92 90 88 88 85 91 96 100 93 99 100 99 99 96 89 88 81 86 90 82
98 100 98 91 89 87 96 99 98 85 81 88 82 83 84 82 83 94 92 90 86 82 85 85 98 99 94 100 96 96 99 96 98 98 99 98 96 86 84 85 83 86 87

GFSSE_925_rhum_114.txt.gz
RH
63 80 86 87 80 64 61 77 76 78 79 80 81 83 95 94 88 91 87 86 88 90 86 91 86 86 95 98 93 93 97 86 87 88 86 90 94 96 94 88 84 82 89
66 81 89 88 92 79 58 69 83 80 81 81 88 86 94 94 84 75 80 85 87 92 88 83 87 94 98 98 96 94 88 67 72 73 76 84 92 94 97 89 81 86 87
65 79 93 88 98 85 68 56 79 81 80 83 89 91 94 95 85 78 83 76 78 87 89 91 90 98 98 99 96 96 91 90 87 87 84 87 93 94 93 93 88 86 85
66 80 85 91 95 90 76 61 69 81 82 85 89 89 92 93 82 80 82 73 88 92 91 92 97 95 99 99 99 95 81 80 76 69 62 61 72 88 85 88 85 84 84
68 81 87 90 93 92 79 61 72 82 84 87 89 89 91 86 87 84 78 80 80 87 88 90 93 94 96 95 94 86 80 70 66 62 66 66 66 85 85 82 84 85 84
72 78 92 90 93 81 71 72 76 81 85 89 92 94 91 85 87 80 79 80 78 85 86 93 92 75 65 66 65 68 57 58 64 63 66 71 74 86 87 87 87 86 85
75 83 98 91 84 81 84 82 79 81 86 91 92 92 84 86 84 81 79 79 82 85 83 92 69 49 39 37 38 41 46 64 60 64 66 71 80 86 86 86 87 86 86
80 88 95 92 79 87 88 83 81 85 88 91 92 85 86 87 84 79 81 82 85 86 89 90 65 47 40 42 44 47 50 68 64 68 70 76 89 88 88 89 88 87 86
85 88 94 91 86 92 92 93 85 88 91 90 85 85 90 88 82 79 86 86 80 86 86 76 57 49 47 47 50 51 54 68 64 67 66 74 91 90 91 91 90 89 89
90 86 90 81 78 90 99 95 95 94 90 88 83 90 90 88 77 85 89 87 78 86 82 76 67 61 56 56 55 53 55 67 67 70 69 82 94 93 94 94 93 92 90
97 89 82 77 70 70 95 99 96 94 91 86 80 90 88 77 88 95 90 85 75 78 77 73 70 68 68 68 67 62 66 62 64 67 71 89 95 94 96 96 96 95 94
98 92 82 72 69 66 76 98 98 98 92 88 88 90 65 67 73 80 91 83 77 75 73 71 69 70 77 77 78 72 64 64 65 69 78 88 94 95 86 87 90 92 95
98 92 84 77 81 67 66 89 94 95 85 87 88 69 62 65 76 88 89 86 92 84 82 80 76 72 70 67 70 68 64 65 65 70 78 85 92 88 75 72 74 81 80
99 94 87 78 75 64 67 64 74 89 88 74 70 69 80 88 73 80 88 93 88 77 75 70 67 69 70 67 64 62 66 66 66 69 76 75 90 87 79 76 75 77 77
75 98 92 86 71 67 68 64 65 67 70 70 69 80 93 95 82 86 88 86 77 75 72 65 62 65 66 64 65 64 61 66 69 70 69 70 78 86 87 83 80 80 80
85 99 98 94 71 77 76 68 64 66 67 70 70 76 94 81 75 74 76 77 76 73 66 63 60 60 62 63 63 60 55 58 61 68 68 74 69 76 88 96 94 93 88
97 98 98 93 80 77 96 85 73 68 70 72 73 76 81 79 79 76 72 74 71 67 66 63 61 62 66 73 70 66 68 64 60 59 60 65 72 68 74 82 92 94 94
92 100 95 95 91 78 100 99 99 79 68 71 74 76 78 77 78 74 71 69 67 66 63 61 60 66 74 77 74 73 70 71 66 63 62 62 70 69 75 73 75 80 87
55 82 98 98 95 92 100 99 99 98 76 65 64 68 74 71 73 70 66 65 70 75 79 81 82 78 80 80 77 73 69 68 69 66 65 62 64 70 71 75 72 75 79
83 89 98 97 96 95 98 100 100 96 89 85 74 67 68 65 70 69 70 76 82 84 83 85 83 86 82 79 73 71 69 71 72 70 68 66 64 70 72 72 75 78 78
85 90 95 98 98 98 100 100 99 91 86 85 86 85 85 82 86 85 82 85 89 87 85 87 88 88 88 84 72 64 68 75 78 81 82 80 76 79 78 76 79 86 90
94 91 93 96 100 100 98 95 96 93 87 84 87 87 87 88 92 91 90 90 91 89 91 91 90 90 82 77 67 70 62 69 80 80 76 86 92 88 85 82 83 89 88
93 87 94 99 98 99 99 100 99 98 96 94 96 92 90 88 82 93 94 97 95 98 98 93 88 86 75 86 84 77 71 68 73 89 86 80 84 88 86 85 86 89 93
98 98 91 100 99 98 99 100 99 97 93 88 92 96 74 73 76 76 79 80 88 93 89 85 89 87 82 90 87 85 94 88 75 72 88 88 83 89 90 90 88 83 90
98 95 99 95 100 100 100 100 100 97 90 93 96 99 92 86 84 75 79 93 86 77 74 74 78 76 79 94 93 100 99 100 98 94 98 97 90 85 85 85 81 81 90
99 90 93 99 100 100 100 100 99 98 100 100 100 97 98 95 90 83 80 79 79 84 89 80 79 83 84 99 99 99 93 94 95 97 97 93 95 86 82 82 78 82 83

GFSSE_925_rhum_120.txt.gz
RH
78 69 84 73 70 83 84 75 75 92 95 92 95 96 92 86 93 95 96 96 94 86 82 86 86 90 96 99 99 99 97 89 85 86 91 92 97 93 86 84 86 85 83
78 70 78 76 72 83 83 76 75 88 88 90 91 96 93 96 95 96 95 96 96 86 88 96 87 91 97 97 97 92 82 80 80 84 84 86 92 92 88 87 84 86 85
81 85 82 77 73 81 87 78 75 83 88 88 90 93 96 96 96 96 95 87 91 89 97 98 92 91 94 94 94 91 88 87 81 72 76 83 87 87 87 85 86 85 84
75 89 96 84 76 84 81 79 76 80 87 88 90 89 90 93 94 92 89 87 80 96 96 94 94 91 92 83 83 77 68 64 73 68 69 78 83 84 85 85 84 85 85
71 77 90 88 86 85 82 80 78 80 86 85 91 89 89 89 92 92 89 79 86 91 90 87 79 85 93 80 70 59 58 61 63 66 69 77 87 85 84 85 86 83 86
71 72 79 86 85 85 88 83 80 81 84 85 89 88 80 81 83 89 89 84 84 83 87 85 88 96 98 68 48 59 59 62 64 70 76 82 86 85 85 86 86 86 86
72 76 71 77 81 83 82 85 87 84 85 86 87 84 81 80 85 84 88 83 79 65 82 94 98 74 72 58 54 58 59 62 68 76 83 88 87 86 86 87 87 87 86
77 81 77 76 84 83 81 83 85 89 88 89 86 84 83 78 82 81 88 84 83 72 62 59 54 46 37 36 59 60 60 65 70 78 82 87 88 88 88 88 88 88 86
79 83 80 80 84 85 78 80 83 88 89 90 87 84 85 79 79 84 81 79 77 61 54 43 34 34 37 45 59 61 62 64 69 76 80 88 90 91 91 91 90 90 89
79 85 81 81 85 87 84 74 79 86 90 89 88 87 84 76 79 82 80 77 66 57 43 38 38 42 44 49 59 60 63 64 66 72 77 90 94 93 93 94 92 92 91
85 88 84 86 89 87 84 77 84 88 88 90 90 85 78 80 80 81 83 86 72 54 47 46 46 47 48 49 60 59 58 62 65 67 76 90 95 94 96 96 95 94 94
79 82 82 88 85 84 91 85 91 88 90 91 90 83 79 83 83 85 85 87 75 62 55 51 51 55 50 50 58 57 56 60 66 69 74 88 96 96 83 81 85 91 95
74 78 90 87 81 77 86 92 95 92 95 97 88 82 83 82 88 87 82 84 80 79 71 65 63 68 67 55 61 56 56 59 65 65 63 76 89 87 76 72 71 80 83
90 87 82 76 83 76 87 95 100 99 98 96 88 69 68 84 85 76 81 87 84 83 74 66 65 68 67 62 60 56 56 58 63 66 56 67 76 80 77 74 74 73 74
72 80 81 73 69 93 86 96 98 99 98 94 84 62 62 80 80 74 78 81 77 82 70 63 64 64 60 57 54 56 58 59 61 65 64 58 66 74 78 77 76 76 75
84 81 87 79 78 67 98 95 100 99 95 90 76 58 55 75 71 68 76 80 70 73 66 65 61 60 58 56 55 56 54 58 60 63 66 67 58 68 76 82 86 85 82
72 74 78 79 75 54 86 86 97 95 88 82 71 56 54 68 74 71 72 72 71 64 63 59 57 58 56 56 56 53 50 49 53 56 62 64 68 62 68 78 95 96 92
64 55 88 92 79 71 99 84 84 88 80 74 65 63 63 69 64 72 72 75 69 65 61 56 54 54 57 60 65 63 61 63 62 56 56 57 63 68 68 67 71 81 87
58 49 65 95 78 78 95 68 76 84 72 62 66 64 64 68 71 72 67 68 67 61 58 56 54 57 64 71 69 68 67 66 64 63 60 59 59 65 69 74 72 71 74
52 60 57 77 100 88 76 57 57 62 65 61 72 68 64 69 68 67 66 66 63 60 57 55 56 62 69 71 73 70 68 67 66 66 64 62 61 61 64 68 71 71 75
70 93 80 88 100 87 76 60 59 60 62 62 64 74 72 68 69 65 64 62 60 61 66 68 73 74 74 74 74 70 68 66 67 70 71 72 71 68 69 72 78 79 80
81 96 86 82 100 87 81 71 62 62 64 66 66 70 69 70 67 64 60 61 64 71 73 75 76 79 80 80 74 72 81 74 71 74 75 78 78 79 79 79 82 84 85
99 98 94 92 99 99 82 80 70 63 63 66 68 70 68 67 66 60 61 65 72 75 76 77 79 83 82 84 77 78 82 89 79 78 81 77 76 74 76 80 81 84 86
99 86 79 94 89 100 85 85 89 78 75 72 67 66 63 61 63 68 71 72 76 77 79 83 85 86 88 87 78 75 80 83 92 90 81 82 80 81 80 82 86 88 88
97 87 92 83 92 94 82 89 90 88 84 85 79 72 67 71 70 75 73 77 81 83 86 85 90 91 91 89 84 90 86 85 86 91 92 88 81 81 80 82 82 82 84
95 92 88 92 72 87 99 90 88 87 90 93 94 93 85 86 84 86 86 84 88 86 86 88 87 83 81 81 88 91 90 91 92 90 93 84 90 83 82 75 76 79 82

GFSSE_925_rhum_123.txt.gz
RH
91 88 82 75 75 81 79 83 90 99 92 72 77 79 70 73 82 84 82 93 89 91 92 85 95 98 96 92 95 96 96 91 88 89 89 91 89 88 88 88 85 85 83
74 81 82 74 82 90 89 85 91 96 90 77 88 95 93 95 96 96 95 95 84 87 85 90 98 95 95 98 95 95 80 78 76 74 81 84 88 88 89 88 85 86 84
75 72 75 76 84 86 90 84 92 90 88 84 88 93 98 95 96 95 96 90 90 97 94 88 96 97 96 98 97 97 86 81 76 67 76 85 86 86 88 82 83 85 85
75 66 75 75 84 85 85 80 88 88 88 88 85 89 92 94 95 93 97 89 96 97 93 88 95 95 94 86 75 67 77 83 74 68 82 85 86 86 86 85 85 83 84
77 75 70 77 84 82 81 78 81 88 87 89 85 87 88 89 93 92 88 84 92 92 93 88 92 74 81 68 61 66 68 74 70 64 85 88 87 86 87 86 86 82 85
77 76 78 75 79 85 83 80 80 86 85 89 87 87 84 86 90 86 83 83 89 86 87 84 75 74 72 57 59 63 67 69 68 70 85 86 88 86 87 88 87 82 85
82 76 75 74 74 84 82 79 80 83 84 89 88 86 80 84 92 85 77 84 84 83 82 88 84 56 43 59 61 64 70 70 68 76 88 88 88 87 87 87 87 85 86
72 70 71 77 72 82 87 82 80 84 84 86 87 83 80 80 88 85 84 82 79 83 90 97 84 58 45 59 63 70 71 69 69 79 87 88 88 88 88 89 88 87 87
75 73 72 72 76 72 87 88 84 85 88 84 85 84 90 78 80 87 85 78 64 66 61 57 46 35 51 60 63 66 66 68 62 77 86 88 89 90 91 91 90 89 90
70 76 74 73 73 74 68 84 85 86 88 88 86 86 89 78 78 89 87 84 70 57 42 36 34 36 54 62 64 68 72 71 72 69 86 89 94 93 94 93 92 91 91
65 66 83 80 81 82 74 74 79 82 85 88 87 87 86 79 84 87 84 78 56 46 36 35 40 43 54 60 62 65 70 67 65 60 82 89 95 96 96 96 95 94 94
66 72 72 87 88 86 79 72 80 88 88 89 89 91 84 79 86 85 81 68 53 44 40 42 44 44 56 59 59 61 68 67 66 54 72 88 96 96 88 84 83 87 91
54 73 86 83 78 86 96 79 78 95 89 88 90 90 81 82 88 86 88 77 55 48 48 48 50 44 56 59 57 59 68 65 65 52 60 75 93 92 74 72 78 82 86
65 75 86 95 86 83 90 82 99 97 92 92 93 88 80 88 87 85 86 81 61 54 53 56 62 65 59 62 59 58 64 62 64 62 55 63 76 86 82 79 77 78 77
60 66 74 80 98 88 87 76 97 96 99 93 92 86 79 86 82 82 84 82 68 65 59 66 70 70 66 61 61 58 59 63 65 66 60 58 65 74 78 81 78 78 78
68 56 52 62 83 98 93 91 95 98 99 96 91 80 73 83 86 81 79 83 74 65 58 63 67 64 60 57 56 56 60 62 64 64 68 66 60 65 72 78 79 83 84
60 59 54 63 80 87 95 68 97 100 94 98 87 71 72 89 87 75 76 77 71 71 59 66 66 61 59 57 56 55 52 54 60 62 65 67 66 65 63 70 82 91 92
54 63 57 49 66 80 93 76 74 100 99 99 83 67 65 81 82 73 73 71 74 76 67 65 59 59 57 58 58 55 52 57 54 55 56 58 61 67 68 68 69 78 83
49 56 66 52 50 63 91 80 89 99 100 98 80 67 69 74 77 67 72 64 75 72 63 58 56 55 58 60 69 66 66 67 66 64 60 59 60 65 66 71 74 73 74
45 47 56 48 50 58 100 99 93 99 100 93 77 68 66 73 71 68 67 66 73 64 60 57 55 56 64 72 72 70 70 68 65 66 64 63 63 64 64 67 69 73 75
41 53 63 56 48 62 100 100 100 99 88 84 74 67 71 69 69 72 69 73 67 62 58 57 55 60 69 74 75 71 68 68 69 69 69 69 69 65 68 68 71 74 77
55 56 56 63 67 52 96 93 100 98 81 79 70 62 65 70 66 72 72 67 65 61 58 56 56 76 79 77 74 76 88 79 77 76 76 76 75 76 79 79 82 88 88
65 82 68 69 68 48 100 90 89 85 74 78 76 70 64 70 69 66 65 65 63 59 59 64 73 74 80 81 75 72 91 91 86 82 77 75 76 75 77 81 84 85 87
55 58 73 90 69 61 97 85 81 81 77 71 80 75 76 72 69 66 64 63 61 62 71 75 77 78 82 80 78 77 74 76 89 97 85 81 79 78 79 80 85 89 90
55 69 100 92 82 80 79 94 78 75 70 73 75 76 71 71 67 64 61 60 62 71 77 78 83 84 86 76 77 84 87 85 84 90 94 91 81 82 81 78 78 79 83
56 79 100 100 99 85 72 98 80 73 74 76 76 78 75 71 66 61 61 62 73 78 78 82 85 85 87 82 78 79 80 87 93 91 93 84 85 82 77 78 78 82 88